<?xml version='1.0' encoding='UTF-8'?><gpx version="1.1" creator="JPX - https://github.com/jenetics/jpx" xmlns="http://www.topografix.com/GPX/1/1"><trk><trkseg><trkpt lat="41.9897108" lon="12.0888939"><ele>36.0</ele><time>2026-05-03T08:28:57.787Z</time></trkpt><trkpt lat="41.9897553" lon="12.0888223"><ele>36.0</ele><time>2026-05-03T08:29:03.788Z</time></trkpt><trkpt lat="41.9897894" lon="12.0887375"><ele>36.0</ele><time>2026-05-03T08:29:06.791Z</time></trkpt><trkpt lat="41.9898236" lon="12.0886275"><ele>36.0</ele><time>2026-05-03T08:29:09.787Z</time></trkpt><trkpt lat="41.9898596" lon="12.088516"><ele>36.0</ele><time>2026-05-03T08:29:12.784Z</time></trkpt><trkpt lat="41.9898911" lon="12.088427"><ele>36.0</ele><time>2026-05-03T08:29:15.785Z</time></trkpt><trkpt lat="41.9898742" lon="12.0885164"><ele>36.0</ele><time>2026-05-03T08:29:27.786Z</time></trkpt><trkpt lat="41.9898966" lon="12.088437"><ele>36.0</ele><time>2026-05-03T08:29:35.786Z</time></trkpt><trkpt lat="41.9899557" lon="12.0883607"><ele>36.0</ele><time>2026-05-03T08:29:50.794Z</time></trkpt><trkpt lat="41.9900313" lon="12.0883993"><ele>36.0</ele><time>2026-05-03T08:29:55.787Z</time></trkpt><trkpt lat="41.9900955" lon="12.0884689"><ele>36.0</ele><time>2026-05-03T08:29:58.788Z</time></trkpt><trkpt lat="41.9901493" lon="12.0885167"><ele>36.0</ele><time>2026-05-03T08:30:00.788Z</time></trkpt><trkpt lat="41.9902151" lon="12.0885746"><ele>36.0</ele><time>2026-05-03T08:30:03.802Z</time></trkpt><trkpt lat="41.9902918" lon="12.0886247"><ele>36.0</ele><time>2026-05-03T08:30:06.793Z</time></trkpt><trkpt lat="41.9903572" lon="12.0886755"><ele>36.0</ele><time>2026-05-03T08:30:08.789Z</time></trkpt><trkpt lat="41.9904314" lon="12.0887304"><ele>36.0</ele><time>2026-05-03T08:30:10.796Z</time></trkpt><trkpt lat="41.9905052" lon="12.0887984"><ele>36.0</ele><time>2026-05-03T08:30:12.793Z</time></trkpt><trkpt lat="41.990586" lon="12.088852"><ele>36.0</ele><time>2026-05-03T08:30:14.786Z</time></trkpt><trkpt lat="41.990665" lon="12.0889219"><ele>36.0</ele><time>2026-05-03T08:30:16.785Z</time></trkpt><trkpt lat="41.9907448" lon="12.0889899"><ele>36.0</ele><time>2026-05-03T08:30:18.791Z</time></trkpt><trkpt lat="41.9908266" lon="12.0890619"><ele>36.0</ele><time>2026-05-03T08:30:20.786Z</time></trkpt><trkpt lat="41.9909055" lon="12.0891225"><ele>36.0</ele><time>2026-05-03T08:30:22.787Z</time></trkpt><trkpt lat="41.9909847" lon="12.0891924"><ele>36.0</ele><time>2026-05-03T08:30:24.785Z</time></trkpt><trkpt lat="41.9910697" lon="12.0892612"><ele>36.6</ele><time>2026-05-03T08:30:26.787Z</time></trkpt><trkpt lat="41.99115" lon="12.089331"><ele>37.2</ele><time>2026-05-03T08:30:28.785Z</time></trkpt><trkpt lat="41.9912301" lon="12.0894029"><ele>37.8</ele><time>2026-05-03T08:30:30.789Z</time></trkpt><trkpt lat="41.9913198" lon="12.0894725"><ele>38.4</ele><time>2026-05-03T08:30:32.786Z</time></trkpt><trkpt lat="41.9914044" lon="12.0895398"><ele>39.0</ele><time>2026-05-03T08:30:34.787Z</time></trkpt><trkpt lat="41.9914946" lon="12.0896123"><ele>39.0</ele><time>2026-05-03T08:30:36.791Z</time></trkpt><trkpt lat="41.9915833" lon="12.0896836"><ele>39.0</ele><time>2026-05-03T08:30:38.787Z</time></trkpt><trkpt lat="41.9916614" lon="12.0897517"><ele>39.0</ele><time>2026-05-03T08:30:40.786Z</time></trkpt><trkpt lat="41.9917263" lon="12.0898081"><ele>39.0</ele><time>2026-05-03T08:30:42.787Z</time></trkpt><trkpt lat="41.9917385" lon="12.0898924"><ele>39.0</ele><time>2026-05-03T08:30:44.791Z</time></trkpt><trkpt lat="41.9916996" lon="12.089986"><ele>39.0</ele><time>2026-05-03T08:30:46.796Z</time></trkpt><trkpt lat="41.9916565" lon="12.090088"><ele>38.6</ele><time>2026-05-03T08:30:48.79Z</time></trkpt><trkpt lat="41.9915961" lon="12.090205"><ele>38.2</ele><time>2026-05-03T08:30:50.784Z</time></trkpt><trkpt lat="41.9915388" lon="12.0903203"><ele>37.800000000000004</ele><time>2026-05-03T08:30:52.794Z</time></trkpt><trkpt lat="41.9914767" lon="12.0904503"><ele>37.4</ele><time>2026-05-03T08:30:54.797Z</time></trkpt><trkpt lat="41.9914199" lon="12.0905903"><ele>37.0</ele><time>2026-05-03T08:30:56.791Z</time></trkpt><trkpt lat="41.9913546" lon="12.0907063"><ele>36.4</ele><time>2026-05-03T08:30:58.79Z</time></trkpt><trkpt lat="41.9912878" lon="12.0908104"><ele>35.800000000000004</ele><time>2026-05-03T08:31:00.786Z</time></trkpt><trkpt lat="41.9912167" lon="12.0909132"><ele>35.2</ele><time>2026-05-03T08:31:02.795Z</time></trkpt><trkpt lat="41.9911414" lon="12.0910196"><ele>34.6</ele><time>2026-05-03T08:31:04.817Z</time></trkpt><trkpt lat="41.9910769" lon="12.0911096"><ele>34.0</ele><time>2026-05-03T08:31:06.788Z</time></trkpt><trkpt lat="41.9910293" lon="12.0911873"><ele>34.0</ele><time>2026-05-03T08:31:08.785Z</time></trkpt><trkpt lat="41.9910086" lon="12.0912677"><ele>34.0</ele><time>2026-05-03T08:31:10.79Z</time></trkpt><trkpt lat="41.9910251" lon="12.0913576"><ele>34.0</ele><time>2026-05-03T08:31:12.79Z</time></trkpt><trkpt lat="41.9910742" lon="12.0914299"><ele>34.0</ele><time>2026-05-03T08:31:14.792Z</time></trkpt><trkpt lat="41.9911497" lon="12.0914639"><ele>34.0</ele><time>2026-05-03T08:31:16.79Z</time></trkpt><trkpt lat="41.991231" lon="12.0914971"><ele>34.0</ele><time>2026-05-03T08:31:18.795Z</time></trkpt><trkpt lat="41.9913162" lon="12.0915235"><ele>34.0</ele><time>2026-05-03T08:31:20.8Z</time></trkpt><trkpt lat="41.9914035" lon="12.0915458"><ele>34.0</ele><time>2026-05-03T08:31:22.791Z</time></trkpt><trkpt lat="41.9914933" lon="12.0915659"><ele>34.0</ele><time>2026-05-03T08:31:24.805Z</time></trkpt><trkpt lat="41.9915858" lon="12.0916002"><ele>34.0</ele><time>2026-05-03T08:31:26.814Z</time></trkpt><trkpt lat="41.9916807" lon="12.0916254"><ele>34.0</ele><time>2026-05-03T08:31:28.811Z</time></trkpt><trkpt lat="41.9917744" lon="12.0916521"><ele>33.8</ele><time>2026-05-03T08:31:30.809Z</time></trkpt><trkpt lat="41.9918672" lon="12.0916741"><ele>33.599999999999994</ele><time>2026-05-03T08:31:32.787Z</time></trkpt><trkpt lat="41.9919686" lon="12.0917025"><ele>33.4</ele><time>2026-05-03T08:31:34.793Z</time></trkpt><trkpt lat="41.9920677" lon="12.0917372"><ele>33.199999999999996</ele><time>2026-05-03T08:31:36.821Z</time></trkpt><trkpt lat="41.9921632" lon="12.0917664"><ele>33.0</ele><time>2026-05-03T08:31:38.816Z</time></trkpt><trkpt lat="41.992253" lon="12.0917916"><ele>33.0</ele><time>2026-05-03T08:31:40.788Z</time></trkpt><trkpt lat="41.9923439" lon="12.0918236"><ele>33.0</ele><time>2026-05-03T08:31:42.792Z</time></trkpt><trkpt lat="41.9924281" lon="12.0918575"><ele>33.0</ele><time>2026-05-03T08:31:44.789Z</time></trkpt><trkpt lat="41.9925081" lon="12.0918926"><ele>33.0</ele><time>2026-05-03T08:31:46.794Z</time></trkpt><trkpt lat="41.992592" lon="12.0919296"><ele>33.0</ele><time>2026-05-03T08:31:48.786Z</time></trkpt><trkpt lat="41.9926731" lon="12.0919688"><ele>33.0</ele><time>2026-05-03T08:31:50.79Z</time></trkpt><trkpt lat="41.9927597" lon="12.0920126"><ele>33.166666666666664</ele><time>2026-05-03T08:31:52.789Z</time></trkpt><trkpt lat="41.9928461" lon="12.0920557"><ele>33.333333333333336</ele><time>2026-05-03T08:31:54.79Z</time></trkpt><trkpt lat="41.9929206" lon="12.0921236"><ele>33.5</ele><time>2026-05-03T08:31:56.784Z</time></trkpt><trkpt lat="41.9929675" lon="12.0922169"><ele>33.66666666666667</ele><time>2026-05-03T08:31:58.786Z</time></trkpt><trkpt lat="41.9929724" lon="12.092317"><ele>33.833333333333336</ele><time>2026-05-03T08:32:00.792Z</time></trkpt><trkpt lat="41.992935" lon="12.092421"><ele>34.0</ele><time>2026-05-03T08:32:02.787Z</time></trkpt><trkpt lat="41.9928925" lon="12.0925372"><ele>34.0</ele><time>2026-05-03T08:32:04.783Z</time></trkpt><trkpt lat="41.9928477" lon="12.0926507"><ele>34.0</ele><time>2026-05-03T08:32:06.788Z</time></trkpt><trkpt lat="41.99285" lon="12.092772"><ele>34.0</ele><time>2026-05-03T08:32:08.789Z</time></trkpt><trkpt lat="41.9929205" lon="12.0928656"><ele>34.0</ele><time>2026-05-03T08:32:10.792Z</time></trkpt><trkpt lat="41.9929981" lon="12.0929574"><ele>34.0</ele><time>2026-05-03T08:32:12.786Z</time></trkpt><trkpt lat="41.9930327" lon="12.093069"><ele>34.0</ele><time>2026-05-03T08:32:14.786Z</time></trkpt><trkpt lat="41.9930274" lon="12.0931953"><ele>34.0</ele><time>2026-05-03T08:32:16.792Z</time></trkpt><trkpt lat="41.9930665" lon="12.0933146"><ele>34.0</ele><time>2026-05-03T08:32:18.789Z</time></trkpt><trkpt lat="41.9931369" lon="12.093399"><ele>34.0</ele><time>2026-05-03T08:32:20.788Z</time></trkpt><trkpt lat="41.9932179" lon="12.0934366"><ele>34.0</ele><time>2026-05-03T08:32:22.803Z</time></trkpt><trkpt lat="41.9933124" lon="12.093451"><ele>34.4</ele><time>2026-05-03T08:32:24.786Z</time></trkpt><trkpt lat="41.9934055" lon="12.0934765"><ele>34.8</ele><time>2026-05-03T08:32:26.786Z</time></trkpt><trkpt lat="41.9934873" lon="12.0935252"><ele>35.2</ele><time>2026-05-03T08:32:28.786Z</time></trkpt><trkpt lat="41.993557" lon="12.093597"><ele>35.6</ele><time>2026-05-03T08:32:30.792Z</time></trkpt><trkpt lat="41.9936318" lon="12.0936719"><ele>36.0</ele><time>2026-05-03T08:32:32.786Z</time></trkpt><trkpt lat="41.9936967" lon="12.0937565"><ele>36.0</ele><time>2026-05-03T08:32:34.789Z</time></trkpt><trkpt lat="41.993758" lon="12.0938368"><ele>36.0</ele><time>2026-05-03T08:32:36.789Z</time></trkpt><trkpt lat="41.9938257" lon="12.0939187"><ele>36.0</ele><time>2026-05-03T08:32:38.788Z</time></trkpt><trkpt lat="41.9938888" lon="12.0939875"><ele>36.0</ele><time>2026-05-03T08:32:40.784Z</time></trkpt><trkpt lat="41.9939504" lon="12.0940649"><ele>36.0</ele><time>2026-05-03T08:32:42.79Z</time></trkpt><trkpt lat="41.9940118" lon="12.0941425"><ele>36.0</ele><time>2026-05-03T08:32:44.788Z</time></trkpt><trkpt lat="41.9940742" lon="12.0942216"><ele>36.0</ele><time>2026-05-03T08:32:46.789Z</time></trkpt><trkpt lat="41.9941376" lon="12.0942899"><ele>36.0</ele><time>2026-05-03T08:32:48.789Z</time></trkpt><trkpt lat="41.9942064" lon="12.0943453"><ele>36.0</ele><time>2026-05-03T08:32:50.794Z</time></trkpt><trkpt lat="41.9942714" lon="12.0944224"><ele>36.0</ele><time>2026-05-03T08:32:52.788Z</time></trkpt><trkpt lat="41.9943362" lon="12.0944984"><ele>36.0</ele><time>2026-05-03T08:32:54.789Z</time></trkpt><trkpt lat="41.9943987" lon="12.0945768"><ele>36.0</ele><time>2026-05-03T08:32:56.787Z</time></trkpt><trkpt lat="41.9944597" lon="12.094652"><ele>36.833333333333336</ele><time>2026-05-03T08:32:58.785Z</time></trkpt><trkpt lat="41.99452" lon="12.0947233"><ele>37.666666666666664</ele><time>2026-05-03T08:33:00.784Z</time></trkpt><trkpt lat="41.9945829" lon="12.0947922"><ele>38.5</ele><time>2026-05-03T08:33:02.786Z</time></trkpt><trkpt lat="41.9946438" lon="12.0948668"><ele>39.33333333333333</ele><time>2026-05-03T08:33:04.786Z</time></trkpt><trkpt lat="41.9947078" lon="12.0949362"><ele>40.166666666666664</ele><time>2026-05-03T08:33:06.789Z</time></trkpt><trkpt lat="41.9947697" lon="12.0950135"><ele>41.0</ele><time>2026-05-03T08:33:08.79Z</time></trkpt><trkpt lat="41.9948282" lon="12.0950923"><ele>41.33333333333333</ele><time>2026-05-03T08:33:10.786Z</time></trkpt><trkpt lat="41.9948898" lon="12.0951655"><ele>41.666666666666664</ele><time>2026-05-03T08:33:12.788Z</time></trkpt><trkpt lat="41.9949507" lon="12.0952366"><ele>42.0</ele><time>2026-05-03T08:33:14.787Z</time></trkpt><trkpt lat="41.9950089" lon="12.0953129"><ele>42.333333333333336</ele><time>2026-05-03T08:33:16.788Z</time></trkpt><trkpt lat="41.9950737" lon="12.0953798"><ele>42.66666666666667</ele><time>2026-05-03T08:33:18.79Z</time></trkpt><trkpt lat="41.9951367" lon="12.0954454"><ele>43.0</ele><time>2026-05-03T08:33:20.784Z</time></trkpt><trkpt lat="41.9951978" lon="12.0955068"><ele>43.0</ele><time>2026-05-03T08:33:22.785Z</time></trkpt><trkpt lat="41.9952605" lon="12.0955719"><ele>43.0</ele><time>2026-05-03T08:33:24.788Z</time></trkpt><trkpt lat="41.9953204" lon="12.0956383"><ele>43.0</ele><time>2026-05-03T08:33:26.786Z</time></trkpt><trkpt lat="41.9953754" lon="12.0957181"><ele>43.0</ele><time>2026-05-03T08:33:28.787Z</time></trkpt><trkpt lat="41.9954274" lon="12.0958016"><ele>43.0</ele><time>2026-05-03T08:33:30.784Z</time></trkpt><trkpt lat="41.995482" lon="12.0958769"><ele>43.0</ele><time>2026-05-03T08:33:32.783Z</time></trkpt><trkpt lat="41.99553" lon="12.0959573"><ele>43.28571428571429</ele><time>2026-05-03T08:33:34.789Z</time></trkpt><trkpt lat="41.9955867" lon="12.0960263"><ele>43.57142857142857</ele><time>2026-05-03T08:33:36.788Z</time></trkpt><trkpt lat="41.9956433" lon="12.0960873"><ele>43.85714285714286</ele><time>2026-05-03T08:33:38.79Z</time></trkpt><trkpt lat="41.9956956" lon="12.0961545"><ele>44.142857142857146</ele><time>2026-05-03T08:33:40.788Z</time></trkpt><trkpt lat="41.9957482" lon="12.0962236"><ele>44.42857142857143</ele><time>2026-05-03T08:33:42.787Z</time></trkpt><trkpt lat="41.9958046" lon="12.0962888"><ele>44.714285714285715</ele><time>2026-05-03T08:33:44.789Z</time></trkpt><trkpt lat="41.9958596" lon="12.0963499"><ele>45.0</ele><time>2026-05-03T08:33:46.79Z</time></trkpt><trkpt lat="41.9959143" lon="12.0964104"><ele>45.14285714285714</ele><time>2026-05-03T08:33:48.79Z</time></trkpt><trkpt lat="41.9959646" lon="12.0964767"><ele>45.28571428571429</ele><time>2026-05-03T08:33:50.794Z</time></trkpt><trkpt lat="41.9960112" lon="12.0965474"><ele>45.42857142857143</ele><time>2026-05-03T08:33:52.787Z</time></trkpt><trkpt lat="41.9960537" lon="12.0966238"><ele>45.57142857142857</ele><time>2026-05-03T08:33:54.788Z</time></trkpt><trkpt lat="41.9961004" lon="12.096702"><ele>45.71428571428571</ele><time>2026-05-03T08:33:56.791Z</time></trkpt><trkpt lat="41.9961532" lon="12.0967677"><ele>45.85714285714286</ele><time>2026-05-03T08:33:58.793Z</time></trkpt><trkpt lat="41.9962048" lon="12.0968233"><ele>46.0</ele><time>2026-05-03T08:34:00.783Z</time></trkpt><trkpt lat="41.9962488" lon="12.0968853"><ele>46.714285714285715</ele><time>2026-05-03T08:34:02.784Z</time></trkpt><trkpt lat="41.9962907" lon="12.0969488"><ele>47.42857142857142</ele><time>2026-05-03T08:34:04.782Z</time></trkpt><trkpt lat="41.9963535" lon="12.0970435"><ele>48.14285714285714</ele><time>2026-05-03T08:34:07.785Z</time></trkpt><trkpt lat="41.9963945" lon="12.0971113"><ele>48.85714285714286</ele><time>2026-05-03T08:34:09.785Z</time></trkpt><trkpt lat="41.9964353" lon="12.0971795"><ele>49.57142857142857</ele><time>2026-05-03T08:34:11.785Z</time></trkpt><trkpt lat="41.9964762" lon="12.0972486"><ele>50.285714285714285</ele><time>2026-05-03T08:34:13.785Z</time></trkpt><trkpt lat="41.9965121" lon="12.0973202"><ele>51.0</ele><time>2026-05-03T08:34:15.784Z</time></trkpt><trkpt lat="41.9964923" lon="12.0974088"><ele>52.333333333333336</ele><time>2026-05-03T08:34:18.786Z</time></trkpt><trkpt lat="41.9964182" lon="12.0974541"><ele>53.66666666666667</ele><time>2026-05-03T08:34:21.786Z</time></trkpt><trkpt lat="41.9963385" lon="12.097499"><ele>55.0</ele><time>2026-05-03T08:34:24.786Z</time></trkpt><trkpt lat="41.9962519" lon="12.0975324"><ele>56.333333333333336</ele><time>2026-05-03T08:34:27.786Z</time></trkpt><trkpt lat="41.9961855" lon="12.0975554"><ele>57.66666666666667</ele><time>2026-05-03T08:34:29.785Z</time></trkpt><trkpt lat="41.9961211" lon="12.0975828"><ele>59.0</ele><time>2026-05-03T08:34:31.787Z</time></trkpt><trkpt lat="41.9960569" lon="12.0976014"><ele>59.0</ele><time>2026-05-03T08:34:33.785Z</time></trkpt><trkpt lat="41.9959905" lon="12.0976194"><ele>59.0</ele><time>2026-05-03T08:34:35.791Z</time></trkpt><trkpt lat="41.9959273" lon="12.0976413"><ele>59.0</ele><time>2026-05-03T08:34:37.786Z</time></trkpt><trkpt lat="41.9958636" lon="12.0976708"><ele>59.0</ele><time>2026-05-03T08:34:39.785Z</time></trkpt><trkpt lat="41.9957982" lon="12.0977021"><ele>59.0</ele><time>2026-05-03T08:34:41.788Z</time></trkpt><trkpt lat="41.9957322" lon="12.0977307"><ele>59.0</ele><time>2026-05-03T08:34:43.787Z</time></trkpt><trkpt lat="41.9956707" lon="12.0977667"><ele>59.0</ele><time>2026-05-03T08:34:45.788Z</time></trkpt><trkpt lat="41.995595" lon="12.0977925"><ele>59.16666666666667</ele><time>2026-05-03T08:34:47.786Z</time></trkpt><trkpt lat="41.9955287" lon="12.0978355"><ele>59.333333333333336</ele><time>2026-05-03T08:34:49.786Z</time></trkpt><trkpt lat="41.9954634" lon="12.0978854"><ele>59.5</ele><time>2026-05-03T08:34:51.789Z</time></trkpt><trkpt lat="41.995398" lon="12.0979397"><ele>59.66666666666667</ele><time>2026-05-03T08:34:53.785Z</time></trkpt><trkpt lat="41.9953317" lon="12.0979958"><ele>59.833333333333336</ele><time>2026-05-03T08:34:55.787Z</time></trkpt><trkpt lat="41.9952706" lon="12.0980538"><ele>60.0</ele><time>2026-05-03T08:34:57.787Z</time></trkpt><trkpt lat="41.9952126" lon="12.0981155"><ele>60.0</ele><time>2026-05-03T08:34:59.795Z</time></trkpt><trkpt lat="41.9951596" lon="12.0981838"><ele>60.0</ele><time>2026-05-03T08:35:01.796Z</time></trkpt><trkpt lat="41.9950938" lon="12.0982474"><ele>60.0</ele><time>2026-05-03T08:35:03.818Z</time></trkpt><trkpt lat="41.9950274" lon="12.0983132"><ele>60.0</ele><time>2026-05-03T08:35:05.812Z</time></trkpt><trkpt lat="41.9949608" lon="12.0983798"><ele>60.0</ele><time>2026-05-03T08:35:07.801Z</time></trkpt><trkpt lat="41.9948918" lon="12.0984448"><ele>60.0</ele><time>2026-05-03T08:35:09.796Z</time></trkpt><trkpt lat="41.9948205" lon="12.0985081"><ele>60.0</ele><time>2026-05-03T08:35:11.803Z</time></trkpt><trkpt lat="41.9947495" lon="12.098576"><ele>60.0</ele><time>2026-05-03T08:35:13.795Z</time></trkpt><trkpt lat="41.9946789" lon="12.0986423"><ele>60.0</ele><time>2026-05-03T08:35:15.797Z</time></trkpt><trkpt lat="41.9946078" lon="12.0987115"><ele>60.0</ele><time>2026-05-03T08:35:17.8Z</time></trkpt><trkpt lat="41.9945398" lon="12.0987853"><ele>60.0</ele><time>2026-05-03T08:35:19.841Z</time></trkpt><trkpt lat="41.9944697" lon="12.0988535"><ele>60.0</ele><time>2026-05-03T08:35:21.825Z</time></trkpt><trkpt lat="41.9944016" lon="12.0989265"><ele>60.0</ele><time>2026-05-03T08:35:23.807Z</time></trkpt><trkpt lat="41.9943352" lon="12.0989963"><ele>60.0</ele><time>2026-05-03T08:35:25.803Z</time></trkpt><trkpt lat="41.9942672" lon="12.0990764"><ele>60.0</ele><time>2026-05-03T08:35:27.816Z</time></trkpt><trkpt lat="41.9941914" lon="12.0991482"><ele>60.0</ele><time>2026-05-03T08:35:29.809Z</time></trkpt><trkpt lat="41.9941195" lon="12.0992202"><ele>60.0</ele><time>2026-05-03T08:35:31.806Z</time></trkpt><trkpt lat="41.9940508" lon="12.0992927"><ele>60.0</ele><time>2026-05-03T08:35:33.812Z</time></trkpt><trkpt lat="41.9939791" lon="12.0993641"><ele>59.8</ele><time>2026-05-03T08:35:35.862Z</time></trkpt><trkpt lat="41.9939094" lon="12.0994413"><ele>59.6</ele><time>2026-05-03T08:35:37.85Z</time></trkpt><trkpt lat="41.9938329" lon="12.0995051"><ele>59.400000000000006</ele><time>2026-05-03T08:35:39.804Z</time></trkpt><trkpt lat="41.9937578" lon="12.0995769"><ele>59.2</ele><time>2026-05-03T08:35:41.804Z</time></trkpt><trkpt lat="41.9936834" lon="12.0996351"><ele>59.0</ele><time>2026-05-03T08:35:43.799Z</time></trkpt><trkpt lat="41.9936099" lon="12.0997095"><ele>59.0</ele><time>2026-05-03T08:35:45.79Z</time></trkpt><trkpt lat="41.9935371" lon="12.0997771"><ele>59.00000000000001</ele><time>2026-05-03T08:35:47.793Z</time></trkpt><trkpt lat="41.9934561" lon="12.0998439"><ele>59.00000000000001</ele><time>2026-05-03T08:35:49.845Z</time></trkpt><trkpt lat="41.9933691" lon="12.099907"><ele>59.0</ele><time>2026-05-03T08:35:51.87Z</time></trkpt><trkpt lat="41.993273" lon="12.0999628"><ele>59.0</ele><time>2026-05-03T08:35:53.794Z</time></trkpt><trkpt lat="41.9931692" lon="12.099999"><ele>60.0</ele><time>2026-05-03T08:35:55.805Z</time></trkpt><trkpt lat="41.993073" lon="12.1000357"><ele>61.0</ele><time>2026-05-03T08:35:57.808Z</time></trkpt><trkpt lat="41.992969" lon="12.1000655"><ele>62.0</ele><time>2026-05-03T08:35:59.806Z</time></trkpt><trkpt lat="41.9928147" lon="12.1000807"><ele>63.0</ele><time>2026-05-03T08:36:02.831Z</time></trkpt><trkpt lat="41.9927041" lon="12.1000828"><ele>63.0</ele><time>2026-05-03T08:36:04.81Z</time></trkpt><trkpt lat="41.9925971" lon="12.1000922"><ele>63.0</ele><time>2026-05-03T08:36:06.804Z</time></trkpt><trkpt lat="41.9924274" lon="12.1001196"><ele>63.0</ele><time>2026-05-03T08:36:09.796Z</time></trkpt><trkpt lat="41.9923198" lon="12.1001189"><ele>63.0</ele><time>2026-05-03T08:36:11.786Z</time></trkpt><trkpt lat="41.9922116" lon="12.1001089"><ele>62.8</ele><time>2026-05-03T08:36:13.819Z</time></trkpt><trkpt lat="41.992101" lon="12.1000935"><ele>62.599999999999994</ele><time>2026-05-03T08:36:15.814Z</time></trkpt><trkpt lat="41.9919866" lon="12.1000776"><ele>62.400000000000006</ele><time>2026-05-03T08:36:17.806Z</time></trkpt><trkpt lat="41.9918645" lon="12.1000501"><ele>62.2</ele><time>2026-05-03T08:36:19.808Z</time></trkpt><trkpt lat="41.9918014" lon="12.1000402"><ele>62.0</ele><time>2026-05-03T08:36:20.816Z</time></trkpt><trkpt lat="41.9916753" lon="12.1000158"><ele>61.0</ele><time>2026-05-03T08:36:22.786Z</time></trkpt><trkpt lat="41.9916076" lon="12.1000039"><ele>60.0</ele><time>2026-05-03T08:36:23.783Z</time></trkpt><trkpt lat="41.9915431" lon="12.0999925"><ele>59.0</ele><time>2026-05-03T08:36:24.788Z</time></trkpt><trkpt lat="41.9914247" lon="12.0999745"><ele>58.0</ele><time>2026-05-03T08:36:26.786Z</time></trkpt><trkpt lat="41.9913079" lon="12.0999581"><ele>57.0</ele><time>2026-05-03T08:36:28.789Z</time></trkpt><trkpt lat="41.9911832" lon="12.0999329"><ele>57.0</ele><time>2026-05-03T08:36:30.791Z</time></trkpt><trkpt lat="41.9910596" lon="12.0999176"><ele>57.0</ele><time>2026-05-03T08:36:32.823Z</time></trkpt><trkpt lat="41.9909881" lon="12.0999129"><ele>57.0</ele><time>2026-05-03T08:36:33.786Z</time></trkpt><trkpt lat="41.9909224" lon="12.0999163"><ele>57.0</ele><time>2026-05-03T08:36:34.842Z</time></trkpt><trkpt lat="41.9908546" lon="12.0999321"><ele>57.0</ele><time>2026-05-03T08:36:35.787Z</time></trkpt><trkpt lat="41.9907831" lon="12.0999465"><ele>57.0</ele><time>2026-05-03T08:36:36.814Z</time></trkpt><trkpt lat="41.990717" lon="12.0999593"><ele>56.71428571428571</ele><time>2026-05-03T08:36:37.817Z</time></trkpt><trkpt lat="41.990648" lon="12.0999864"><ele>56.42857142857142</ele><time>2026-05-03T08:36:38.809Z</time></trkpt><trkpt lat="41.9905846" lon="12.1000138"><ele>56.14285714285714</ele><time>2026-05-03T08:36:39.814Z</time></trkpt><trkpt lat="41.9905193" lon="12.1000517"><ele>55.857142857142854</ele><time>2026-05-03T08:36:40.794Z</time></trkpt><trkpt lat="41.9904483" lon="12.100104"><ele>55.57142857142857</ele><time>2026-05-03T08:36:41.815Z</time></trkpt><trkpt lat="41.9903791" lon="12.1001489"><ele>55.28571428571428</ele><time>2026-05-03T08:36:42.784Z</time></trkpt><trkpt lat="41.9903068" lon="12.1001935"><ele>55.0</ele><time>2026-05-03T08:36:43.852Z</time></trkpt><trkpt lat="41.9902359" lon="12.1002407"><ele>55.0</ele><time>2026-05-03T08:36:44.818Z</time></trkpt><trkpt lat="41.9901653" lon="12.1002801"><ele>55.0</ele><time>2026-05-03T08:36:45.794Z</time></trkpt><trkpt lat="41.9900145" lon="12.1003775"><ele>55.0</ele><time>2026-05-03T08:36:47.829Z</time></trkpt><trkpt lat="41.9899387" lon="12.1004357"><ele>55.0</ele><time>2026-05-03T08:36:48.811Z</time></trkpt><trkpt lat="41.9898642" lon="12.1004821"><ele>55.0</ele><time>2026-05-03T08:36:49.803Z</time></trkpt><trkpt lat="41.9897873" lon="12.1005306"><ele>53.49999999999999</ele><time>2026-05-03T08:36:50.818Z</time></trkpt><trkpt lat="41.9897139" lon="12.100574"><ele>52.0</ele><time>2026-05-03T08:36:51.825Z</time></trkpt><trkpt lat="41.9896384" lon="12.1006247"><ele>50.5</ele><time>2026-05-03T08:36:52.807Z</time></trkpt><trkpt lat="41.9895651" lon="12.1006742"><ele>49.0</ele><time>2026-05-03T08:36:53.792Z</time></trkpt><trkpt lat="41.9894877" lon="12.1007219"><ele>47.5</ele><time>2026-05-03T08:36:54.824Z</time></trkpt><trkpt lat="41.9894077" lon="12.1007604"><ele>46.0</ele><time>2026-05-03T08:36:55.811Z</time></trkpt><trkpt lat="41.9893316" lon="12.1008191"><ele>46.0</ele><time>2026-05-03T08:36:56.808Z</time></trkpt><trkpt lat="41.9892637" lon="12.1008866"><ele>46.0</ele><time>2026-05-03T08:36:57.79Z</time></trkpt><trkpt lat="41.9891988" lon="12.100962"><ele>46.0</ele><time>2026-05-03T08:36:58.826Z</time></trkpt><trkpt lat="41.989144" lon="12.1010498"><ele>46.0</ele><time>2026-05-03T08:36:59.801Z</time></trkpt><trkpt lat="41.9891107" lon="12.1011528"><ele>46.0</ele><time>2026-05-03T08:37:00.811Z</time></trkpt><trkpt lat="41.989083" lon="12.1012626"><ele>46.0</ele><time>2026-05-03T08:37:01.789Z</time></trkpt><trkpt lat="41.9890768" lon="12.1013746"><ele>44.833333333333336</ele><time>2026-05-03T08:37:02.804Z</time></trkpt><trkpt lat="41.9890789" lon="12.1014859"><ele>43.66666666666667</ele><time>2026-05-03T08:37:03.825Z</time></trkpt><trkpt lat="41.9890869" lon="12.1016028"><ele>42.5</ele><time>2026-05-03T08:37:04.803Z</time></trkpt><trkpt lat="41.9891004" lon="12.1017178"><ele>41.333333333333336</ele><time>2026-05-03T08:37:05.816Z</time></trkpt><trkpt lat="41.9891116" lon="12.1018385"><ele>40.166666666666664</ele><time>2026-05-03T08:37:06.809Z</time></trkpt><trkpt lat="41.9891223" lon="12.1019583"><ele>39.0</ele><time>2026-05-03T08:37:07.852Z</time></trkpt><trkpt lat="41.9891325" lon="12.1020799"><ele>38.833333333333336</ele><time>2026-05-03T08:37:08.808Z</time></trkpt><trkpt lat="41.9891476" lon="12.102198"><ele>38.666666666666664</ele><time>2026-05-03T08:37:09.83Z</time></trkpt><trkpt lat="41.9891621" lon="12.1023182"><ele>38.5</ele><time>2026-05-03T08:37:10.799Z</time></trkpt><trkpt lat="41.9891681" lon="12.1024394"><ele>38.33333333333333</ele><time>2026-05-03T08:37:11.802Z</time></trkpt><trkpt lat="41.9891807" lon="12.1025605"><ele>38.166666666666664</ele><time>2026-05-03T08:37:12.814Z</time></trkpt><trkpt lat="41.9891942" lon="12.1026781"><ele>38.0</ele><time>2026-05-03T08:37:13.813Z</time></trkpt><trkpt lat="41.9891983" lon="12.1027955"><ele>38.166666666666664</ele><time>2026-05-03T08:37:14.807Z</time></trkpt><trkpt lat="41.9892051" lon="12.1029067"><ele>38.33333333333333</ele><time>2026-05-03T08:37:15.807Z</time></trkpt><trkpt lat="41.9892196" lon="12.1030121"><ele>38.5</ele><time>2026-05-03T08:37:16.791Z</time></trkpt><trkpt lat="41.9892216" lon="12.1031258"><ele>38.666666666666664</ele><time>2026-05-03T08:37:17.806Z</time></trkpt><trkpt lat="41.9892219" lon="12.1032395"><ele>38.833333333333336</ele><time>2026-05-03T08:37:18.816Z</time></trkpt><trkpt lat="41.9892154" lon="12.1033591"><ele>39.0</ele><time>2026-05-03T08:37:19.785Z</time></trkpt><trkpt lat="41.9891982" lon="12.1034738"><ele>39.0</ele><time>2026-05-03T08:37:20.803Z</time></trkpt><trkpt lat="41.9891808" lon="12.1035871"><ele>39.0</ele><time>2026-05-03T08:37:21.79Z</time></trkpt><trkpt lat="41.9891648" lon="12.1037041"><ele>39.0</ele><time>2026-05-03T08:37:22.813Z</time></trkpt><trkpt lat="41.9891432" lon="12.1038202"><ele>39.0</ele><time>2026-05-03T08:37:23.793Z</time></trkpt><trkpt lat="41.9891217" lon="12.1039341"><ele>39.0</ele><time>2026-05-03T08:37:24.788Z</time></trkpt><trkpt lat="41.9890982" lon="12.1040438"><ele>39.0</ele><time>2026-05-03T08:37:25.812Z</time></trkpt><trkpt lat="41.9890778" lon="12.1041508"><ele>37.2</ele><time>2026-05-03T08:37:26.783Z</time></trkpt><trkpt lat="41.9890557" lon="12.1042493"><ele>35.4</ele><time>2026-05-03T08:37:27.805Z</time></trkpt><trkpt lat="41.9890268" lon="12.1043354"><ele>33.6</ele><time>2026-05-03T08:37:28.879Z</time></trkpt><trkpt lat="41.9889671" lon="12.1044702"><ele>31.8</ele><time>2026-05-03T08:37:30.785Z</time></trkpt><trkpt lat="41.9888938" lon="12.1045696"><ele>30.0</ele><time>2026-05-03T08:37:32.859Z</time></trkpt><trkpt lat="41.9888417" lon="12.1047048"><ele>30.0</ele><time>2026-05-03T08:37:34.824Z</time></trkpt><trkpt lat="41.9888306" lon="12.1048574"><ele>30.0</ele><time>2026-05-03T08:37:36.81Z</time></trkpt><trkpt lat="41.9888307" lon="12.1050853"><ele>30.0</ele><time>2026-05-03T08:37:39.827Z</time></trkpt><trkpt lat="41.9888025" lon="12.1052407"><ele>30.0</ele><time>2026-05-03T08:37:41.807Z</time></trkpt><trkpt lat="41.9887749" lon="12.1053977"><ele>29.833333333333332</ele><time>2026-05-03T08:37:43.808Z</time></trkpt><trkpt lat="41.9887397" lon="12.1055519"><ele>29.666666666666664</ele><time>2026-05-03T08:37:45.813Z</time></trkpt><trkpt lat="41.988698" lon="12.1057115"><ele>29.5</ele><time>2026-05-03T08:37:47.812Z</time></trkpt><trkpt lat="41.9886812" lon="12.1057954"><ele>29.333333333333332</ele><time>2026-05-03T08:37:48.805Z</time></trkpt><trkpt lat="41.9886577" lon="12.1058791"><ele>29.166666666666664</ele><time>2026-05-03T08:37:49.828Z</time></trkpt><trkpt lat="41.9886358" lon="12.1059597"><ele>29.0</ele><time>2026-05-03T08:37:50.808Z</time></trkpt><trkpt lat="41.988614" lon="12.1060466"><ele>29.000000000000004</ele><time>2026-05-03T08:37:51.805Z</time></trkpt><trkpt lat="41.9885911" lon="12.1061322"><ele>29.0</ele><time>2026-05-03T08:37:52.814Z</time></trkpt><trkpt lat="41.9885668" lon="12.1062185"><ele>29.000000000000004</ele><time>2026-05-03T08:37:53.813Z</time></trkpt><trkpt lat="41.9885416" lon="12.1063028"><ele>29.000000000000004</ele><time>2026-05-03T08:37:54.84Z</time></trkpt><trkpt lat="41.9885193" lon="12.1063911"><ele>29.0</ele><time>2026-05-03T08:37:55.789Z</time></trkpt><trkpt lat="41.9884979" lon="12.1064774"><ele>29.000000000000004</ele><time>2026-05-03T08:37:56.804Z</time></trkpt><trkpt lat="41.9884734" lon="12.1065614"><ele>29.000000000000004</ele><time>2026-05-03T08:37:57.808Z</time></trkpt><trkpt lat="41.9884499" lon="12.1066472"><ele>29.000000000000004</ele><time>2026-05-03T08:37:58.811Z</time></trkpt><trkpt lat="41.9884277" lon="12.1067333"><ele>29.0</ele><time>2026-05-03T08:37:59.812Z</time></trkpt><trkpt lat="41.9884058" lon="12.10682"><ele>29.000000000000004</ele><time>2026-05-03T08:38:00.816Z</time></trkpt><trkpt lat="41.9883848" lon="12.1069049"><ele>29.000000000000004</ele><time>2026-05-03T08:38:01.809Z</time></trkpt><trkpt lat="41.9883692" lon="12.1069893"><ele>29.0</ele><time>2026-05-03T08:38:02.809Z</time></trkpt><trkpt lat="41.9883567" lon="12.107078"><ele>29.000000000000004</ele><time>2026-05-03T08:38:03.817Z</time></trkpt><trkpt lat="41.9883451" lon="12.1071639"><ele>29.000000000000004</ele><time>2026-05-03T08:38:04.811Z</time></trkpt><trkpt lat="41.9883382" lon="12.1072489"><ele>28.85714285714286</ele><time>2026-05-03T08:38:05.807Z</time></trkpt><trkpt lat="41.9883249" lon="12.1073372"><ele>28.714285714285715</ele><time>2026-05-03T08:38:06.811Z</time></trkpt><trkpt lat="41.9883267" lon="12.1074236"><ele>28.571428571428573</ele><time>2026-05-03T08:38:07.816Z</time></trkpt><trkpt lat="41.9883337" lon="12.1075157"><ele>28.42857142857143</ele><time>2026-05-03T08:38:08.82Z</time></trkpt><trkpt lat="41.9883404" lon="12.107602"><ele>28.285714285714285</ele><time>2026-05-03T08:38:09.806Z</time></trkpt><trkpt lat="41.9883424" lon="12.1076905"><ele>28.142857142857142</ele><time>2026-05-03T08:38:10.804Z</time></trkpt><trkpt lat="41.9883438" lon="12.1077779"><ele>28.0</ele><time>2026-05-03T08:38:11.79Z</time></trkpt><trkpt lat="41.9883365" lon="12.1078645"><ele>28.0</ele><time>2026-05-03T08:38:12.813Z</time></trkpt><trkpt lat="41.9883185" lon="12.1079467"><ele>27.999999999999996</ele><time>2026-05-03T08:38:13.811Z</time></trkpt><trkpt lat="41.9882754" lon="12.1080951"><ele>27.999999999999996</ele><time>2026-05-03T08:38:15.809Z</time></trkpt><trkpt lat="41.9882209" lon="12.1082288"><ele>28.0</ele><time>2026-05-03T08:38:17.829Z</time></trkpt><trkpt lat="41.9881594" lon="12.1083448"><ele>28.0</ele><time>2026-05-03T08:38:19.833Z</time></trkpt><trkpt lat="41.9880975" lon="12.1084528"><ele>28.333333333333336</ele><time>2026-05-03T08:38:21.824Z</time></trkpt><trkpt lat="41.9880294" lon="12.1085482"><ele>28.666666666666668</ele><time>2026-05-03T08:38:23.816Z</time></trkpt><trkpt lat="41.9879692" lon="12.108607"><ele>29.0</ele><time>2026-05-03T08:38:25.797Z</time></trkpt><trkpt lat="41.9878965" lon="12.1086485"><ele>29.333333333333336</ele><time>2026-05-03T08:38:27.788Z</time></trkpt><trkpt lat="41.9878304" lon="12.1086761"><ele>29.666666666666668</ele><time>2026-05-03T08:38:29.812Z</time></trkpt><trkpt lat="41.9877633" lon="12.1086918"><ele>30.0</ele><time>2026-05-03T08:38:31.794Z</time></trkpt><trkpt lat="41.9876734" lon="12.1087112"><ele>30.0</ele><time>2026-05-03T08:38:34.786Z</time></trkpt><trkpt lat="41.9875998" lon="12.1087153"><ele>30.0</ele><time>2026-05-03T08:38:37.79Z</time></trkpt><trkpt lat="41.9875265" lon="12.1087288"><ele>30.0</ele><time>2026-05-03T08:38:40.792Z</time></trkpt><trkpt lat="41.9874396" lon="12.1087466"><ele>30.0</ele><time>2026-05-03T08:38:43.798Z</time></trkpt><trkpt lat="41.9873711" lon="12.1087676"><ele>30.0</ele><time>2026-05-03T08:38:45.88Z</time></trkpt><trkpt lat="41.9873104" lon="12.1087904"><ele>30.0</ele><time>2026-05-03T08:38:47.802Z</time></trkpt><trkpt lat="41.9872285" lon="12.1088283"><ele>30.333333333333332</ele><time>2026-05-03T08:38:50.797Z</time></trkpt><trkpt lat="41.9871514" lon="12.1088621"><ele>30.666666666666664</ele><time>2026-05-03T08:38:53.802Z</time></trkpt><trkpt lat="41.9870679" lon="12.1088975"><ele>31.0</ele><time>2026-05-03T08:38:56.788Z</time></trkpt><trkpt lat="41.9869842" lon="12.108931"><ele>31.333333333333332</ele><time>2026-05-03T08:38:59.793Z</time></trkpt><trkpt lat="41.9869018" lon="12.1089672"><ele>31.666666666666664</ele><time>2026-05-03T08:39:02.825Z</time></trkpt><trkpt lat="41.9868215" lon="12.1089916"><ele>32.0</ele><time>2026-05-03T08:39:05.783Z</time></trkpt><trkpt lat="41.9867418" lon="12.1090205"><ele>32.83333333333333</ele><time>2026-05-03T08:39:08.787Z</time></trkpt><trkpt lat="41.9866554" lon="12.1090531"><ele>33.666666666666664</ele><time>2026-05-03T08:39:11.82Z</time></trkpt><trkpt lat="41.9865744" lon="12.1090795"><ele>34.5</ele><time>2026-05-03T08:39:14.812Z</time></trkpt><trkpt lat="41.9865045" lon="12.1091093"><ele>35.333333333333336</ele><time>2026-05-03T08:39:17.792Z</time></trkpt><trkpt lat="41.9864374" lon="12.1091362"><ele>36.16666666666667</ele><time>2026-05-03T08:39:20.786Z</time></trkpt><trkpt lat="41.9863716" lon="12.1091533"><ele>37.0</ele><time>2026-05-03T08:39:23.784Z</time></trkpt><trkpt lat="41.9862897" lon="12.1091794"><ele>38.57142857142857</ele><time>2026-05-03T08:39:27.785Z</time></trkpt><trkpt lat="41.9862221" lon="12.1091994"><ele>40.14285714285714</ele><time>2026-05-03T08:39:30.787Z</time></trkpt><trkpt lat="41.9861538" lon="12.1092088"><ele>41.71428571428571</ele><time>2026-05-03T08:39:33.794Z</time></trkpt><trkpt lat="41.9860867" lon="12.1092317"><ele>43.285714285714285</ele><time>2026-05-03T08:39:36.796Z</time></trkpt><trkpt lat="41.9860066" lon="12.1092675"><ele>44.857142857142854</ele><time>2026-05-03T08:39:40.811Z</time></trkpt><trkpt lat="41.9859401" lon="12.1092871"><ele>46.42857142857142</ele><time>2026-05-03T08:39:43.793Z</time></trkpt><trkpt lat="41.9858747" lon="12.109313"><ele>48.0</ele><time>2026-05-03T08:39:46.792Z</time></trkpt><trkpt lat="41.985805" lon="12.1093381"><ele>48.42857142857142</ele><time>2026-05-03T08:39:49.791Z</time></trkpt><trkpt lat="41.9857307" lon="12.1093548"><ele>48.857142857142854</ele><time>2026-05-03T08:39:52.8Z</time></trkpt><trkpt lat="41.9856637" lon="12.1093746"><ele>49.285714285714285</ele><time>2026-05-03T08:39:55.796Z</time></trkpt><trkpt lat="41.9855967" lon="12.1093955"><ele>49.71428571428571</ele><time>2026-05-03T08:39:58.813Z</time></trkpt><trkpt lat="41.9855307" lon="12.1094212"><ele>50.142857142857146</ele><time>2026-05-03T08:40:01.796Z</time></trkpt><trkpt lat="41.985467" lon="12.109455"><ele>50.57142857142857</ele><time>2026-05-03T08:40:04.797Z</time></trkpt><trkpt lat="41.9854051" lon="12.1094927"><ele>51.0</ele><time>2026-05-03T08:40:07.808Z</time></trkpt><trkpt lat="41.9853429" lon="12.1095243"><ele>51.0</ele><time>2026-05-03T08:40:10.795Z</time></trkpt><trkpt lat="41.9852826" lon="12.1095666"><ele>51.0</ele><time>2026-05-03T08:40:13.791Z</time></trkpt><trkpt lat="41.9852257" lon="12.1096101"><ele>51.0</ele><time>2026-05-03T08:40:16.808Z</time></trkpt><trkpt lat="41.9851625" lon="12.109657"><ele>51.0</ele><time>2026-05-03T08:40:19.81Z</time></trkpt><trkpt lat="41.9850957" lon="12.1096892"><ele>51.0</ele><time>2026-05-03T08:40:22.797Z</time></trkpt><trkpt lat="41.9850312" lon="12.109731"><ele>51.0</ele><time>2026-05-03T08:40:25.797Z</time></trkpt><trkpt lat="41.984968" lon="12.1097733"><ele>51.0</ele><time>2026-05-03T08:40:28.822Z</time></trkpt><trkpt lat="41.9849026" lon="12.1098194"><ele>51.85714285714286</ele><time>2026-05-03T08:40:31.793Z</time></trkpt><trkpt lat="41.9848359" lon="12.109858"><ele>52.714285714285715</ele><time>2026-05-03T08:40:34.811Z</time></trkpt><trkpt lat="41.9847673" lon="12.1099013"><ele>53.57142857142857</ele><time>2026-05-03T08:40:37.794Z</time></trkpt><trkpt lat="41.9846975" lon="12.1099478"><ele>54.42857142857143</ele><time>2026-05-03T08:40:40.792Z</time></trkpt><trkpt lat="41.9846353" lon="12.1099948"><ele>55.28571428571428</ele><time>2026-05-03T08:40:43.829Z</time></trkpt><trkpt lat="41.9845895" lon="12.1100628"><ele>56.14285714285714</ele><time>2026-05-03T08:40:46.785Z</time></trkpt><trkpt lat="41.9845731" lon="12.1101571"><ele>57.0</ele><time>2026-05-03T08:40:49.803Z</time></trkpt><trkpt lat="41.984622" lon="12.1102177"><ele>57.71428571428571</ele><time>2026-05-03T08:40:52.793Z</time></trkpt><trkpt lat="41.9846943" lon="12.1102342"><ele>58.42857142857142</ele><time>2026-05-03T08:40:55.785Z</time></trkpt><trkpt lat="41.9847639" lon="12.1102483"><ele>59.14285714285714</ele><time>2026-05-03T08:40:58.805Z</time></trkpt><trkpt lat="41.9848377" lon="12.1102749"><ele>59.85714285714286</ele><time>2026-05-03T08:41:01.791Z</time></trkpt><trkpt lat="41.9848979" lon="12.1103057"><ele>60.57142857142858</ele><time>2026-05-03T08:41:04.819Z</time></trkpt><trkpt lat="41.9849597" lon="12.1103365"><ele>61.28571428571429</ele><time>2026-05-03T08:41:07.811Z</time></trkpt><trkpt lat="41.9850169" lon="12.1103888"><ele>62.0</ele><time>2026-05-03T08:41:10.8Z</time></trkpt><trkpt lat="41.9850667" lon="12.110456"><ele>62.57142857142858</ele><time>2026-05-03T08:41:13.797Z</time></trkpt><trkpt lat="41.9851222" lon="12.110505"><ele>63.14285714285715</ele><time>2026-05-03T08:41:16.787Z</time></trkpt><trkpt lat="41.9851842" lon="12.1105545"><ele>63.714285714285715</ele><time>2026-05-03T08:41:19.789Z</time></trkpt><trkpt lat="41.9852392" lon="12.110605"><ele>64.28571428571429</ele><time>2026-05-03T08:41:22.815Z</time></trkpt><trkpt lat="41.9852982" lon="12.1106588"><ele>64.85714285714286</ele><time>2026-05-03T08:41:25.788Z</time></trkpt><trkpt lat="41.9853588" lon="12.1107098"><ele>65.42857142857143</ele><time>2026-05-03T08:41:28.798Z</time></trkpt><trkpt lat="41.9854289" lon="12.1107601"><ele>66.0</ele><time>2026-05-03T08:41:31.83Z</time></trkpt><trkpt lat="41.9854879" lon="12.1107966"><ele>67.0</ele><time>2026-05-03T08:41:34.79Z</time></trkpt><trkpt lat="41.9855282" lon="12.1108636"><ele>68.0</ele><time>2026-05-03T08:41:38.798Z</time></trkpt><trkpt lat="41.9855855" lon="12.1109386"><ele>69.0</ele><time>2026-05-03T08:41:42.807Z</time></trkpt><trkpt lat="41.9856392" lon="12.1109945"><ele>70.0</ele><time>2026-05-03T08:41:45.791Z</time></trkpt><trkpt lat="41.9857075" lon="12.1110536"><ele>71.0</ele><time>2026-05-03T08:41:49.796Z</time></trkpt><trkpt lat="41.9857597" lon="12.1111055"><ele>72.0</ele><time>2026-05-03T08:41:53.825Z</time></trkpt><trkpt lat="41.9858249" lon="12.1111523"><ele>73.0</ele><time>2026-05-03T08:41:57.824Z</time></trkpt><trkpt lat="41.9858947" lon="12.1112039"><ele>73.5</ele><time>2026-05-03T08:42:01.801Z</time></trkpt><trkpt lat="41.9859667" lon="12.1112557"><ele>74.0</ele><time>2026-05-03T08:42:05.789Z</time></trkpt><trkpt lat="41.9860396" lon="12.1113067"><ele>74.5</ele><time>2026-05-03T08:42:09.789Z</time></trkpt><trkpt lat="41.9861022" lon="12.1113264"><ele>75.0</ele><time>2026-05-03T08:42:12.81Z</time></trkpt><trkpt lat="41.9861837" lon="12.1113192"><ele>75.5</ele><time>2026-05-03T08:42:16.809Z</time></trkpt><trkpt lat="41.986259" lon="12.1112699"><ele>76.0</ele><time>2026-05-03T08:42:20.8Z</time></trkpt><trkpt lat="41.9863349" lon="12.11123"><ele>76.0</ele><time>2026-05-03T08:42:24.788Z</time></trkpt><trkpt lat="41.9864103" lon="12.1112026"><ele>76.0</ele><time>2026-05-03T08:42:28.811Z</time></trkpt><trkpt lat="41.9864732" lon="12.1112099"><ele>76.0</ele><time>2026-05-03T08:42:31.799Z</time></trkpt><trkpt lat="41.986555" lon="12.1112277"><ele>76.0</ele><time>2026-05-03T08:42:35.801Z</time></trkpt><trkpt lat="41.9866175" lon="12.1112615"><ele>76.0</ele><time>2026-05-03T08:42:38.798Z</time></trkpt><trkpt lat="41.9866715" lon="12.1113126"><ele>76.0</ele><time>2026-05-03T08:42:41.791Z</time></trkpt><trkpt lat="41.9867328" lon="12.1113719"><ele>76.0</ele><time>2026-05-03T08:42:44.826Z</time></trkpt><trkpt lat="41.986794" lon="12.1114229"><ele>76.0</ele><time>2026-05-03T08:42:47.844Z</time></trkpt><trkpt lat="41.9868581" lon="12.1114831"><ele>76.0</ele><time>2026-05-03T08:42:50.815Z</time></trkpt><trkpt lat="41.9869194" lon="12.1115478"><ele>76.0</ele><time>2026-05-03T08:42:53.815Z</time></trkpt><trkpt lat="41.9869791" lon="12.1116008"><ele>76.0</ele><time>2026-05-03T08:42:56.797Z</time></trkpt><trkpt lat="41.9870413" lon="12.1116561"><ele>76.0</ele><time>2026-05-03T08:42:59.804Z</time></trkpt><trkpt lat="41.9871068" lon="12.1117083"><ele>76.0</ele><time>2026-05-03T08:43:02.797Z</time></trkpt><trkpt lat="41.9871748" lon="12.1117582"><ele>76.0</ele><time>2026-05-03T08:43:05.804Z</time></trkpt><trkpt lat="41.9872401" lon="12.1118093"><ele>76.0</ele><time>2026-05-03T08:43:08.796Z</time></trkpt><trkpt lat="41.9873049" lon="12.1118694"><ele>76.0</ele><time>2026-05-03T08:43:11.793Z</time></trkpt><trkpt lat="41.9873711" lon="12.1119422"><ele>76.0</ele><time>2026-05-03T08:43:14.824Z</time></trkpt><trkpt lat="41.9874341" lon="12.1120301"><ele>76.0</ele><time>2026-05-03T08:43:17.793Z</time></trkpt><trkpt lat="41.9874886" lon="12.1121191"><ele>76.0</ele><time>2026-05-03T08:43:20.811Z</time></trkpt><trkpt lat="41.9875381" lon="12.1122198"><ele>77.16666666666666</ele><time>2026-05-03T08:43:23.814Z</time></trkpt><trkpt lat="41.9875872" lon="12.1123159"><ele>78.33333333333333</ele><time>2026-05-03T08:43:26.805Z</time></trkpt><trkpt lat="41.9876344" lon="12.1124141"><ele>79.5</ele><time>2026-05-03T08:43:29.806Z</time></trkpt><trkpt lat="41.9876859" lon="12.1125133"><ele>80.66666666666667</ele><time>2026-05-03T08:43:32.799Z</time></trkpt><trkpt lat="41.9877374" lon="12.1126094"><ele>81.83333333333334</ele><time>2026-05-03T08:43:35.806Z</time></trkpt><trkpt lat="41.9877897" lon="12.112704"><ele>83.0</ele><time>2026-05-03T08:43:38.811Z</time></trkpt><trkpt lat="41.9878358" lon="12.1128013"><ele>83.0</ele><time>2026-05-03T08:43:41.815Z</time></trkpt><trkpt lat="41.9878835" lon="12.1128914"><ele>83.0</ele><time>2026-05-03T08:43:44.811Z</time></trkpt><trkpt lat="41.9879303" lon="12.1129836"><ele>83.0</ele><time>2026-05-03T08:43:47.806Z</time></trkpt><trkpt lat="41.9879732" lon="12.1130848"><ele>83.0</ele><time>2026-05-03T08:43:50.8Z</time></trkpt><trkpt lat="41.9880141" lon="12.1131899"><ele>83.0</ele><time>2026-05-03T08:43:53.792Z</time></trkpt><trkpt lat="41.9880645" lon="12.1132855"><ele>83.0</ele><time>2026-05-03T08:43:56.824Z</time></trkpt><trkpt lat="41.9881046" lon="12.1133865"><ele>83.16666666666667</ele><time>2026-05-03T08:43:59.818Z</time></trkpt><trkpt lat="41.9881515" lon="12.1134863"><ele>83.33333333333334</ele><time>2026-05-03T08:44:02.802Z</time></trkpt><trkpt lat="41.9882013" lon="12.1135827"><ele>83.5</ele><time>2026-05-03T08:44:05.809Z</time></trkpt><trkpt lat="41.988257" lon="12.1136675"><ele>83.66666666666667</ele><time>2026-05-03T08:44:08.798Z</time></trkpt><trkpt lat="41.9883093" lon="12.1137558"><ele>83.83333333333333</ele><time>2026-05-03T08:44:11.81Z</time></trkpt><trkpt lat="41.988356" lon="12.1138463"><ele>84.0</ele><time>2026-05-03T08:44:14.801Z</time></trkpt><trkpt lat="41.9884068" lon="12.1139383"><ele>83.66666666666667</ele><time>2026-05-03T08:44:17.835Z</time></trkpt><trkpt lat="41.9884678" lon="12.1140235"><ele>83.33333333333333</ele><time>2026-05-03T08:44:20.796Z</time></trkpt><trkpt lat="41.9885257" lon="12.1141147"><ele>83.0</ele><time>2026-05-03T08:44:23.81Z</time></trkpt><trkpt lat="41.9885799" lon="12.1142035"><ele>82.66666666666666</ele><time>2026-05-03T08:44:26.819Z</time></trkpt><trkpt lat="41.9886381" lon="12.1142826"><ele>82.33333333333333</ele><time>2026-05-03T08:44:29.813Z</time></trkpt><trkpt lat="41.9886938" lon="12.1143713"><ele>82.0</ele><time>2026-05-03T08:44:32.821Z</time></trkpt><trkpt lat="41.9887531" lon="12.1144541"><ele>82.83333333333333</ele><time>2026-05-03T08:44:35.802Z</time></trkpt><trkpt lat="41.9888103" lon="12.1145356"><ele>83.66666666666666</ele><time>2026-05-03T08:44:38.811Z</time></trkpt><trkpt lat="41.9888788" lon="12.1146153"><ele>84.5</ele><time>2026-05-03T08:44:41.805Z</time></trkpt><trkpt lat="41.9889411" lon="12.1146956"><ele>85.33333333333333</ele><time>2026-05-03T08:44:44.797Z</time></trkpt><trkpt lat="41.9889987" lon="12.1147781"><ele>86.16666666666667</ele><time>2026-05-03T08:44:47.802Z</time></trkpt><trkpt lat="41.9890596" lon="12.1148586"><ele>87.0</ele><time>2026-05-03T08:44:50.806Z</time></trkpt><trkpt lat="41.9891183" lon="12.1149458"><ele>86.33333333333333</ele><time>2026-05-03T08:44:53.79Z</time></trkpt><trkpt lat="41.9891797" lon="12.1150295"><ele>85.66666666666667</ele><time>2026-05-03T08:44:56.798Z</time></trkpt><trkpt lat="41.9892374" lon="12.1151178"><ele>85.0</ele><time>2026-05-03T08:44:59.8Z</time></trkpt><trkpt lat="41.9892937" lon="12.1152008"><ele>84.33333333333334</ele><time>2026-05-03T08:45:02.797Z</time></trkpt><trkpt lat="41.9893547" lon="12.115285"><ele>83.66666666666667</ele><time>2026-05-03T08:45:05.815Z</time></trkpt><trkpt lat="41.9894149" lon="12.11537"><ele>83.0</ele><time>2026-05-03T08:45:08.824Z</time></trkpt><trkpt lat="41.9894831" lon="12.1154501"><ele>83.0</ele><time>2026-05-03T08:45:11.789Z</time></trkpt><trkpt lat="41.9895467" lon="12.1155321"><ele>83.0</ele><time>2026-05-03T08:45:14.822Z</time></trkpt><trkpt lat="41.9896132" lon="12.1156144"><ele>83.0</ele><time>2026-05-03T08:45:17.812Z</time></trkpt><trkpt lat="41.9896621" lon="12.1156721"><ele>83.0</ele><time>2026-05-03T08:45:19.801Z</time></trkpt><trkpt lat="41.9897134" lon="12.1157357"><ele>83.0</ele><time>2026-05-03T08:45:21.807Z</time></trkpt><trkpt lat="41.9897722" lon="12.1158032"><ele>83.0</ele><time>2026-05-03T08:45:23.796Z</time></trkpt><trkpt lat="41.9898404" lon="12.1158649"><ele>83.16666666666667</ele><time>2026-05-03T08:45:25.825Z</time></trkpt><trkpt lat="41.9899035" lon="12.1159214"><ele>83.33333333333334</ele><time>2026-05-03T08:45:27.795Z</time></trkpt><trkpt lat="41.9899702" lon="12.1159755"><ele>83.5</ele><time>2026-05-03T08:45:29.816Z</time></trkpt><trkpt lat="41.9900352" lon="12.116016"><ele>83.66666666666667</ele><time>2026-05-03T08:45:31.837Z</time></trkpt><trkpt lat="41.9900949" lon="12.1160628"><ele>83.83333333333333</ele><time>2026-05-03T08:45:33.79Z</time></trkpt><trkpt lat="41.9901556" lon="12.1161117"><ele>84.0</ele><time>2026-05-03T08:45:35.804Z</time></trkpt><trkpt lat="41.9902457" lon="12.1161783"><ele>84.0</ele><time>2026-05-03T08:45:38.784Z</time></trkpt><trkpt lat="41.9903087" lon="12.1162209"><ele>84.0</ele><time>2026-05-03T08:45:40.82Z</time></trkpt><trkpt lat="41.9903737" lon="12.1162562"><ele>84.0</ele><time>2026-05-03T08:45:42.788Z</time></trkpt><trkpt lat="41.9904475" lon="12.1162776"><ele>84.0</ele><time>2026-05-03T08:45:44.815Z</time></trkpt><trkpt lat="41.9905063" lon="12.1163097"><ele>84.0</ele><time>2026-05-03T08:45:46.808Z</time></trkpt><trkpt lat="41.9905723" lon="12.1163324"><ele>84.0</ele><time>2026-05-03T08:45:48.805Z</time></trkpt><trkpt lat="41.9906368" lon="12.1163576"><ele>84.0</ele><time>2026-05-03T08:45:50.808Z</time></trkpt><trkpt lat="41.9906987" lon="12.1163755"><ele>84.0</ele><time>2026-05-03T08:45:52.823Z</time></trkpt><trkpt lat="41.9907632" lon="12.116394"><ele>84.0</ele><time>2026-05-03T08:45:54.81Z</time></trkpt><trkpt lat="41.9908254" lon="12.1164212"><ele>84.0</ele><time>2026-05-03T08:45:56.803Z</time></trkpt><trkpt lat="41.9908855" lon="12.1164519"><ele>84.0</ele><time>2026-05-03T08:45:58.797Z</time></trkpt><trkpt lat="41.9909458" lon="12.1164942"><ele>84.0</ele><time>2026-05-03T08:46:00.796Z</time></trkpt><trkpt lat="41.9910084" lon="12.1165381"><ele>84.0</ele><time>2026-05-03T08:46:02.803Z</time></trkpt><trkpt lat="41.991075" lon="12.1165887"><ele>84.0</ele><time>2026-05-03T08:46:04.807Z</time></trkpt><trkpt lat="41.9911441" lon="12.1166476"><ele>84.66666666666667</ele><time>2026-05-03T08:46:06.816Z</time></trkpt><trkpt lat="41.9912072" lon="12.1167007"><ele>85.33333333333333</ele><time>2026-05-03T08:46:08.822Z</time></trkpt><trkpt lat="41.9912682" lon="12.1167569"><ele>86.0</ele><time>2026-05-03T08:46:10.804Z</time></trkpt><trkpt lat="41.9913343" lon="12.1168073"><ele>86.66666666666666</ele><time>2026-05-03T08:46:12.812Z</time></trkpt><trkpt lat="41.9913961" lon="12.1168624"><ele>87.33333333333333</ele><time>2026-05-03T08:46:14.809Z</time></trkpt><trkpt lat="41.991495" lon="12.1169395"><ele>88.0</ele><time>2026-05-03T08:46:17.807Z</time></trkpt><trkpt lat="41.9915629" lon="12.1169908"><ele>88.0</ele><time>2026-05-03T08:46:19.805Z</time></trkpt><trkpt lat="41.9916313" lon="12.117039"><ele>88.0</ele><time>2026-05-03T08:46:21.812Z</time></trkpt><trkpt lat="41.9917022" lon="12.117084"><ele>88.0</ele><time>2026-05-03T08:46:23.783Z</time></trkpt><trkpt lat="41.9917706" lon="12.1171398"><ele>88.0</ele><time>2026-05-03T08:46:25.807Z</time></trkpt><trkpt lat="41.9918374" lon="12.1171969"><ele>88.0</ele><time>2026-05-03T08:46:27.844Z</time></trkpt><trkpt lat="41.9919017" lon="12.1172528"><ele>88.0</ele><time>2026-05-03T08:46:29.79Z</time></trkpt><trkpt lat="41.9919676" lon="12.1172993"><ele>87.66666666666666</ele><time>2026-05-03T08:46:31.797Z</time></trkpt><trkpt lat="41.9920356" lon="12.1173471"><ele>87.33333333333333</ele><time>2026-05-03T08:46:33.798Z</time></trkpt><trkpt lat="41.992098" lon="12.1173983"><ele>87.0</ele><time>2026-05-03T08:46:35.825Z</time></trkpt><trkpt lat="41.9921623" lon="12.1174553"><ele>86.66666666666667</ele><time>2026-05-03T08:46:37.813Z</time></trkpt><trkpt lat="41.992231" lon="12.1175121"><ele>86.33333333333334</ele><time>2026-05-03T08:46:39.789Z</time></trkpt><trkpt lat="41.992303" lon="12.1175711"><ele>86.0</ele><time>2026-05-03T08:46:41.795Z</time></trkpt><trkpt lat="41.9923737" lon="12.1176365"><ele>86.8</ele><time>2026-05-03T08:46:43.788Z</time></trkpt><trkpt lat="41.992454" lon="12.1177062"><ele>87.6</ele><time>2026-05-03T08:46:45.8Z</time></trkpt><trkpt lat="41.9925355" lon="12.1177814"><ele>88.4</ele><time>2026-05-03T08:46:47.801Z</time></trkpt><trkpt lat="41.9926279" lon="12.1178487"><ele>89.2</ele><time>2026-05-03T08:46:49.814Z</time></trkpt><trkpt lat="41.9927136" lon="12.1179268"><ele>90.0</ele><time>2026-05-03T08:46:51.807Z</time></trkpt><trkpt lat="41.9927942" lon="12.118004"><ele>90.33333333333333</ele><time>2026-05-03T08:46:53.795Z</time></trkpt><trkpt lat="41.9928696" lon="12.118064"><ele>90.66666666666667</ele><time>2026-05-03T08:46:55.789Z</time></trkpt><trkpt lat="41.9929343" lon="12.1181375"><ele>91.0</ele><time>2026-05-03T08:46:57.803Z</time></trkpt><trkpt lat="41.9930044" lon="12.1181936"><ele>91.33333333333334</ele><time>2026-05-03T08:46:59.787Z</time></trkpt><trkpt lat="41.9930718" lon="12.1182498"><ele>91.66666666666667</ele><time>2026-05-03T08:47:01.791Z</time></trkpt><trkpt lat="41.9931409" lon="12.1183062"><ele>92.0</ele><time>2026-05-03T08:47:03.804Z</time></trkpt><trkpt lat="41.9932114" lon="12.1183615"><ele>92.0</ele><time>2026-05-03T08:47:05.808Z</time></trkpt><trkpt lat="41.9932803" lon="12.1184066"><ele>92.0</ele><time>2026-05-03T08:47:07.795Z</time></trkpt><trkpt lat="41.9933461" lon="12.1184597"><ele>92.0</ele><time>2026-05-03T08:47:09.86Z</time></trkpt><trkpt lat="41.9934116" lon="12.1185181"><ele>92.0</ele><time>2026-05-03T08:47:11.793Z</time></trkpt><trkpt lat="41.9934772" lon="12.1185776"><ele>92.0</ele><time>2026-05-03T08:47:13.788Z</time></trkpt><trkpt lat="41.9935365" lon="12.1186334"><ele>92.0</ele><time>2026-05-03T08:47:15.803Z</time></trkpt><trkpt lat="41.9935936" lon="12.1186884"><ele>92.42857142857143</ele><time>2026-05-03T08:47:17.789Z</time></trkpt><trkpt lat="41.9936491" lon="12.1187455"><ele>92.85714285714285</ele><time>2026-05-03T08:47:19.787Z</time></trkpt><trkpt lat="41.9937022" lon="12.1187934"><ele>93.28571428571428</ele><time>2026-05-03T08:47:21.806Z</time></trkpt><trkpt lat="41.99376" lon="12.1188374"><ele>93.71428571428572</ele><time>2026-05-03T08:47:23.808Z</time></trkpt><trkpt lat="41.9938221" lon="12.1188818"><ele>94.14285714285714</ele><time>2026-05-03T08:47:25.812Z</time></trkpt><trkpt lat="41.9938838" lon="12.1189285"><ele>94.57142857142857</ele><time>2026-05-03T08:47:27.79Z</time></trkpt><trkpt lat="41.9939364" lon="12.1189765"><ele>95.0</ele><time>2026-05-03T08:47:29.855Z</time></trkpt><trkpt lat="41.9939907" lon="12.1190208"><ele>95.57142857142857</ele><time>2026-05-03T08:47:31.804Z</time></trkpt><trkpt lat="41.9940494" lon="12.1190685"><ele>96.14285714285714</ele><time>2026-05-03T08:47:33.822Z</time></trkpt><trkpt lat="41.9940956" lon="12.1191275"><ele>96.71428571428572</ele><time>2026-05-03T08:47:35.782Z</time></trkpt><trkpt lat="41.994165" lon="12.1191951"><ele>97.28571428571428</ele><time>2026-05-03T08:47:38.793Z</time></trkpt><trkpt lat="41.9942441" lon="12.1192568"><ele>97.85714285714285</ele><time>2026-05-03T08:47:41.798Z</time></trkpt><trkpt lat="41.9942955" lon="12.1193064"><ele>98.42857142857143</ele><time>2026-05-03T08:47:43.833Z</time></trkpt><trkpt lat="41.9943562" lon="12.1193428"><ele>99.0</ele><time>2026-05-03T08:47:45.8Z</time></trkpt><trkpt lat="41.9944117" lon="12.1193832"><ele>99.28571428571429</ele><time>2026-05-03T08:47:47.803Z</time></trkpt><trkpt lat="41.9944843" lon="12.1194625"><ele>99.57142857142857</ele><time>2026-05-03T08:47:50.798Z</time></trkpt><trkpt lat="41.9945356" lon="12.1195177"><ele>99.85714285714286</ele><time>2026-05-03T08:47:52.798Z</time></trkpt><trkpt lat="41.9945877" lon="12.119568"><ele>100.14285714285714</ele><time>2026-05-03T08:47:54.798Z</time></trkpt><trkpt lat="41.9946392" lon="12.1196262"><ele>100.42857142857142</ele><time>2026-05-03T08:47:56.813Z</time></trkpt><trkpt lat="41.994694" lon="12.1196815"><ele>100.71428571428571</ele><time>2026-05-03T08:47:58.854Z</time></trkpt><trkpt lat="41.9947378" lon="12.1197486"><ele>101.0</ele><time>2026-05-03T08:48:00.797Z</time></trkpt><trkpt lat="41.9947905" lon="12.119798"><ele>101.0</ele><time>2026-05-03T08:48:02.812Z</time></trkpt><trkpt lat="41.9948486" lon="12.1198374"><ele>101.0</ele><time>2026-05-03T08:48:04.795Z</time></trkpt><trkpt lat="41.9949035" lon="12.1198794"><ele>101.0</ele><time>2026-05-03T08:48:06.796Z</time></trkpt><trkpt lat="41.9949766" lon="12.1199538"><ele>101.0</ele><time>2026-05-03T08:48:09.796Z</time></trkpt><trkpt lat="41.9950306" lon="12.1200056"><ele>101.0</ele><time>2026-05-03T08:48:11.799Z</time></trkpt><trkpt lat="41.9950847" lon="12.12006"><ele>101.0</ele><time>2026-05-03T08:48:13.814Z</time></trkpt><trkpt lat="41.9951405" lon="12.1201137"><ele>101.0</ele><time>2026-05-03T08:48:15.808Z</time></trkpt><trkpt lat="41.9951929" lon="12.1201666"><ele>101.42857142857143</ele><time>2026-05-03T08:48:17.791Z</time></trkpt><trkpt lat="41.9952466" lon="12.1202177"><ele>101.85714285714286</ele><time>2026-05-03T08:48:19.8Z</time></trkpt><trkpt lat="41.9953017" lon="12.1202634"><ele>102.28571428571428</ele><time>2026-05-03T08:48:21.799Z</time></trkpt><trkpt lat="41.9953549" lon="12.1203149"><ele>102.71428571428572</ele><time>2026-05-03T08:48:23.798Z</time></trkpt><trkpt lat="41.9954092" lon="12.1203684"><ele>103.14285714285715</ele><time>2026-05-03T08:48:25.795Z</time></trkpt><trkpt lat="41.9954637" lon="12.1204174"><ele>103.57142857142857</ele><time>2026-05-03T08:48:27.796Z</time></trkpt><trkpt lat="41.9955171" lon="12.1204689"><ele>104.0</ele><time>2026-05-03T08:48:29.811Z</time></trkpt><trkpt lat="41.9955703" lon="12.1205236"><ele>104.0</ele><time>2026-05-03T08:48:31.799Z</time></trkpt><trkpt lat="41.9956235" lon="12.1205753"><ele>104.0</ele><time>2026-05-03T08:48:33.797Z</time></trkpt><trkpt lat="41.9956777" lon="12.1206226"><ele>104.0</ele><time>2026-05-03T08:48:35.795Z</time></trkpt><trkpt lat="41.9957323" lon="12.1206681"><ele>104.0</ele><time>2026-05-03T08:48:37.789Z</time></trkpt><trkpt lat="41.9957922" lon="12.1207075"><ele>104.0</ele><time>2026-05-03T08:48:39.815Z</time></trkpt><trkpt lat="41.995874" lon="12.1207697"><ele>104.0</ele><time>2026-05-03T08:48:42.815Z</time></trkpt><trkpt lat="41.9959535" lon="12.1208359"><ele>104.0</ele><time>2026-05-03T08:48:45.813Z</time></trkpt><trkpt lat="41.9960067" lon="12.1208842"><ele>104.42857142857143</ele><time>2026-05-03T08:48:47.797Z</time></trkpt><trkpt lat="41.996063" lon="12.1209356"><ele>104.85714285714286</ele><time>2026-05-03T08:48:49.798Z</time></trkpt><trkpt lat="41.9961218" lon="12.1209878"><ele>105.28571428571429</ele><time>2026-05-03T08:48:51.793Z</time></trkpt><trkpt lat="41.9961827" lon="12.1210348"><ele>105.71428571428572</ele><time>2026-05-03T08:48:53.799Z</time></trkpt><trkpt lat="41.9962435" lon="12.1210868"><ele>106.14285714285714</ele><time>2026-05-03T08:48:55.788Z</time></trkpt><trkpt lat="41.996299" lon="12.1211362"><ele>106.57142857142858</ele><time>2026-05-03T08:48:57.807Z</time></trkpt><trkpt lat="41.99636" lon="12.1211854"><ele>107.0</ele><time>2026-05-03T08:48:59.797Z</time></trkpt><trkpt lat="41.9964284" lon="12.1212388"><ele>106.99999999999999</ele><time>2026-05-03T08:49:01.802Z</time></trkpt><trkpt lat="41.9965034" lon="12.1212984"><ele>107.0</ele><time>2026-05-03T08:49:03.803Z</time></trkpt><trkpt lat="41.9965723" lon="12.121358"><ele>107.0</ele><time>2026-05-03T08:49:05.792Z</time></trkpt><trkpt lat="41.9966488" lon="12.1214178"><ele>107.0</ele><time>2026-05-03T08:49:07.79Z</time></trkpt><trkpt lat="41.9967261" lon="12.1214823"><ele>106.99999999999999</ele><time>2026-05-03T08:49:09.832Z</time></trkpt><trkpt lat="41.9968026" lon="12.1215509"><ele>107.0</ele><time>2026-05-03T08:49:11.811Z</time></trkpt><trkpt lat="41.9968776" lon="12.1216219"><ele>106.49999999999999</ele><time>2026-05-03T08:49:13.813Z</time></trkpt><trkpt lat="41.9969569" lon="12.1216919"><ele>106.0</ele><time>2026-05-03T08:49:15.797Z</time></trkpt><trkpt lat="41.997034" lon="12.1217611"><ele>105.5</ele><time>2026-05-03T08:49:17.807Z</time></trkpt><trkpt lat="41.997106" lon="12.1218146"><ele>105.0</ele><time>2026-05-03T08:49:19.792Z</time></trkpt><trkpt lat="41.9971823" lon="12.1218705"><ele>104.49999999999999</ele><time>2026-05-03T08:49:21.805Z</time></trkpt><trkpt lat="41.9972493" lon="12.121931"><ele>104.0</ele><time>2026-05-03T08:49:23.809Z</time></trkpt><trkpt lat="41.9973184" lon="12.1219904"><ele>103.99999999999999</ele><time>2026-05-03T08:49:25.79Z</time></trkpt><trkpt lat="41.9973881" lon="12.1220495"><ele>104.0</ele><time>2026-05-03T08:49:27.796Z</time></trkpt><trkpt lat="41.9974608" lon="12.1221058"><ele>104.0</ele><time>2026-05-03T08:49:29.797Z</time></trkpt><trkpt lat="41.9975374" lon="12.1221662"><ele>104.0</ele><time>2026-05-03T08:49:31.812Z</time></trkpt><trkpt lat="41.9976136" lon="12.1222357"><ele>103.99999999999999</ele><time>2026-05-03T08:49:33.811Z</time></trkpt><trkpt lat="41.9976907" lon="12.1222925"><ele>104.0</ele><time>2026-05-03T08:49:35.806Z</time></trkpt><trkpt lat="41.9977625" lon="12.1223446"><ele>103.49999999999999</ele><time>2026-05-03T08:49:37.793Z</time></trkpt><trkpt lat="41.9978333" lon="12.1224182"><ele>103.0</ele><time>2026-05-03T08:49:39.8Z</time></trkpt><trkpt lat="41.9979074" lon="12.1224866"><ele>102.5</ele><time>2026-05-03T08:49:41.795Z</time></trkpt><trkpt lat="41.9979811" lon="12.1225411"><ele>102.0</ele><time>2026-05-03T08:49:43.797Z</time></trkpt><trkpt lat="41.9980458" lon="12.1226198"><ele>101.49999999999999</ele><time>2026-05-03T08:49:45.786Z</time></trkpt><trkpt lat="41.9980786" lon="12.1227085"><ele>101.0</ele><time>2026-05-03T08:49:47.798Z</time></trkpt><trkpt lat="41.9981093" lon="12.1228034"><ele>100.99999999999999</ele><time>2026-05-03T08:49:49.791Z</time></trkpt><trkpt lat="41.9981451" lon="12.1228968"><ele>101.0</ele><time>2026-05-03T08:49:51.796Z</time></trkpt><trkpt lat="41.9981783" lon="12.1229964"><ele>101.0</ele><time>2026-05-03T08:49:53.799Z</time></trkpt><trkpt lat="41.9982079" lon="12.1230986"><ele>101.0</ele><time>2026-05-03T08:49:55.809Z</time></trkpt><trkpt lat="41.9982284" lon="12.1232064"><ele>100.99999999999999</ele><time>2026-05-03T08:49:57.798Z</time></trkpt><trkpt lat="41.9982393" lon="12.1233141"><ele>101.0</ele><time>2026-05-03T08:49:59.8Z</time></trkpt><trkpt lat="41.9982355" lon="12.1234181"><ele>101.28571428571428</ele><time>2026-05-03T08:50:01.795Z</time></trkpt><trkpt lat="41.9982221" lon="12.1235212"><ele>101.57142857142857</ele><time>2026-05-03T08:50:03.788Z</time></trkpt><trkpt lat="41.9981977" lon="12.1236189"><ele>101.85714285714286</ele><time>2026-05-03T08:50:05.807Z</time></trkpt><trkpt lat="41.9981653" lon="12.1237015"><ele>102.14285714285714</ele><time>2026-05-03T08:50:07.812Z</time></trkpt><trkpt lat="41.998137" lon="12.1237852"><ele>102.42857142857143</ele><time>2026-05-03T08:50:09.801Z</time></trkpt><trkpt lat="41.998111" lon="12.1238677"><ele>102.71428571428571</ele><time>2026-05-03T08:50:11.788Z</time></trkpt><trkpt lat="41.9980864" lon="12.1239536"><ele>103.0</ele><time>2026-05-03T08:50:13.794Z</time></trkpt><trkpt lat="41.9980621" lon="12.1240395"><ele>103.28571428571428</ele><time>2026-05-03T08:50:15.8Z</time></trkpt><trkpt lat="41.998044" lon="12.1241303"><ele>103.57142857142857</ele><time>2026-05-03T08:50:17.797Z</time></trkpt><trkpt lat="41.998041" lon="12.1242285"><ele>103.85714285714286</ele><time>2026-05-03T08:50:19.798Z</time></trkpt><trkpt lat="41.9980482" lon="12.1243257"><ele>104.14285714285714</ele><time>2026-05-03T08:50:21.793Z</time></trkpt><trkpt lat="41.9980708" lon="12.1244224"><ele>104.42857142857143</ele><time>2026-05-03T08:50:23.803Z</time></trkpt><trkpt lat="41.9981085" lon="12.1245112"><ele>104.71428571428571</ele><time>2026-05-03T08:50:25.809Z</time></trkpt><trkpt lat="41.9981567" lon="12.1245928"><ele>105.0</ele><time>2026-05-03T08:50:27.818Z</time></trkpt><trkpt lat="41.998208" lon="12.124678"><ele>105.0</ele><time>2026-05-03T08:50:29.795Z</time></trkpt><trkpt lat="41.9982571" lon="12.1247522"><ele>105.0</ele><time>2026-05-03T08:50:31.797Z</time></trkpt><trkpt lat="41.9983106" lon="12.1248173"><ele>105.0</ele><time>2026-05-03T08:50:33.789Z</time></trkpt><trkpt lat="41.9983687" lon="12.1248755"><ele>105.0</ele><time>2026-05-03T08:50:35.801Z</time></trkpt><trkpt lat="41.9984271" lon="12.1249257"><ele>105.0</ele><time>2026-05-03T08:50:37.812Z</time></trkpt><trkpt lat="41.9984891" lon="12.1249725"><ele>105.0</ele><time>2026-05-03T08:50:39.79Z</time></trkpt><trkpt lat="41.9985568" lon="12.1250196"><ele>105.0</ele><time>2026-05-03T08:50:41.817Z</time></trkpt><trkpt lat="41.9986037" lon="12.1251121"><ele>105.8</ele><time>2026-05-03T08:50:43.815Z</time></trkpt><trkpt lat="41.9986147" lon="12.125216"><ele>106.6</ele><time>2026-05-03T08:50:45.802Z</time></trkpt><trkpt lat="41.9985844" lon="12.1253506"><ele>107.4</ele><time>2026-05-03T08:50:47.813Z</time></trkpt><trkpt lat="41.9985417" lon="12.1254898"><ele>108.2</ele><time>2026-05-03T08:50:49.788Z</time></trkpt><trkpt lat="41.9985182" lon="12.1255937"><ele>109.0</ele><time>2026-05-03T08:50:51.823Z</time></trkpt><trkpt lat="41.9985365" lon="12.1257041"><ele>108.33333333333334</ele><time>2026-05-03T08:50:54.8Z</time></trkpt><trkpt lat="41.998593" lon="12.1257558"><ele>107.66666666666667</ele><time>2026-05-03T08:54:24.81Z</time></trkpt><trkpt lat="41.9986664" lon="12.1257839"><ele>107.0</ele><time>2026-05-03T08:54:28.806Z</time></trkpt><trkpt lat="41.9987449" lon="12.1258046"><ele>106.33333333333334</ele><time>2026-05-03T08:54:31.803Z</time></trkpt><trkpt lat="41.998832" lon="12.1258201"><ele>105.66666666666667</ele><time>2026-05-03T08:54:34.9Z</time></trkpt><trkpt lat="41.9989114" lon="12.1258375"><ele>105.0</ele><time>2026-05-03T08:54:37.821Z</time></trkpt><trkpt lat="41.9989969" lon="12.1258632"><ele>105.0</ele><time>2026-05-03T08:54:40.8Z</time></trkpt><trkpt lat="41.9990831" lon="12.1259027"><ele>105.0</ele><time>2026-05-03T08:54:43.788Z</time></trkpt><trkpt lat="41.9991707" lon="12.1259308"><ele>105.0</ele><time>2026-05-03T08:54:46.798Z</time></trkpt><trkpt lat="41.9992331" lon="12.1259435"><ele>105.0</ele><time>2026-05-03T08:54:48.794Z</time></trkpt><trkpt lat="41.9993235" lon="12.1259634"><ele>105.0</ele><time>2026-05-03T08:54:51.797Z</time></trkpt><trkpt lat="41.9994128" lon="12.1259949"><ele>105.0</ele><time>2026-05-03T08:54:54.791Z</time></trkpt><trkpt lat="41.9995033" lon="12.1260176"><ele>105.4</ele><time>2026-05-03T08:54:57.807Z</time></trkpt><trkpt lat="41.9995946" lon="12.1260464"><ele>105.8</ele><time>2026-05-03T08:55:00.793Z</time></trkpt><trkpt lat="41.9996845" lon="12.1260773"><ele>106.19999999999999</ele><time>2026-05-03T08:55:03.806Z</time></trkpt><trkpt lat="41.9997717" lon="12.1261089"><ele>106.6</ele><time>2026-05-03T08:55:06.784Z</time></trkpt><trkpt lat="41.9998575" lon="12.1261383"><ele>107.0</ele><time>2026-05-03T08:55:09.817Z</time></trkpt><trkpt lat="41.9999483" lon="12.1261723"><ele>106.99999999999999</ele><time>2026-05-03T08:55:12.81Z</time></trkpt><trkpt lat="42.0000129" lon="12.1261916"><ele>107.0</ele><time>2026-05-03T08:55:14.819Z</time></trkpt><trkpt lat="42.0000741" lon="12.1262149"><ele>107.0</ele><time>2026-05-03T08:55:16.806Z</time></trkpt><trkpt lat="42.000136" lon="12.1262379"><ele>107.0</ele><time>2026-05-03T08:55:18.795Z</time></trkpt><trkpt lat="42.0002257" lon="12.1262844"><ele>106.99999999999999</ele><time>2026-05-03T08:55:21.812Z</time></trkpt><trkpt lat="42.0003055" lon="12.1263264"><ele>107.0</ele><time>2026-05-03T08:55:24.802Z</time></trkpt><trkpt lat="42.0003955" lon="12.1263662"><ele>106.99999999999999</ele><time>2026-05-03T08:55:27.808Z</time></trkpt><trkpt lat="42.0004596" lon="12.1263945"><ele>107.0</ele><time>2026-05-03T08:55:29.786Z</time></trkpt><trkpt lat="42.0005276" lon="12.1264268"><ele>107.0</ele><time>2026-05-03T08:55:31.803Z</time></trkpt><trkpt lat="42.0005938" lon="12.1264611"><ele>107.0</ele><time>2026-05-03T08:55:33.804Z</time></trkpt><trkpt lat="42.0006557" lon="12.1264781"><ele>106.99999999999999</ele><time>2026-05-03T08:55:35.806Z</time></trkpt><trkpt lat="42.0007469" lon="12.1265029"><ele>107.0</ele><time>2026-05-03T08:55:38.8Z</time></trkpt><trkpt lat="42.0008372" lon="12.1265282"><ele>107.28571428571429</ele><time>2026-05-03T08:55:41.798Z</time></trkpt><trkpt lat="42.0009277" lon="12.1265393"><ele>107.57142857142857</ele><time>2026-05-03T08:55:44.794Z</time></trkpt><trkpt lat="42.0009906" lon="12.1265523"><ele>107.85714285714286</ele><time>2026-05-03T08:55:46.796Z</time></trkpt><trkpt lat="42.0010525" lon="12.1265796"><ele>108.14285714285714</ele><time>2026-05-03T08:55:48.786Z</time></trkpt><trkpt lat="42.0011158" lon="12.1266106"><ele>108.42857142857143</ele><time>2026-05-03T08:55:50.793Z</time></trkpt><trkpt lat="42.0011794" lon="12.1266485"><ele>108.71428571428572</ele><time>2026-05-03T08:55:52.822Z</time></trkpt><trkpt lat="42.0012428" lon="12.1266855"><ele>109.0</ele><time>2026-05-03T08:55:54.785Z</time></trkpt><trkpt lat="42.0013057" lon="12.1267232"><ele>109.00000000000001</ele><time>2026-05-03T08:55:56.793Z</time></trkpt><trkpt lat="42.0013702" lon="12.1267547"><ele>109.0</ele><time>2026-05-03T08:55:58.809Z</time></trkpt><trkpt lat="42.0014296" lon="12.1267946"><ele>109.0</ele><time>2026-05-03T08:56:00.81Z</time></trkpt><trkpt lat="42.0014893" lon="12.1268357"><ele>109.0</ele><time>2026-05-03T08:56:02.82Z</time></trkpt><trkpt lat="42.0015495" lon="12.1268718"><ele>109.00000000000001</ele><time>2026-05-03T08:56:04.791Z</time></trkpt><trkpt lat="42.0016332" lon="12.1269305"><ele>109.0</ele><time>2026-05-03T08:56:07.813Z</time></trkpt><trkpt lat="42.0017141" lon="12.1269904"><ele>109.42857142857143</ele><time>2026-05-03T08:56:10.793Z</time></trkpt><trkpt lat="42.0017703" lon="12.1270415"><ele>109.85714285714286</ele><time>2026-05-03T08:56:12.79Z</time></trkpt><trkpt lat="42.001828" lon="12.1270843"><ele>110.28571428571428</ele><time>2026-05-03T08:56:14.812Z</time></trkpt><trkpt lat="42.0018852" lon="12.1271231"><ele>110.71428571428572</ele><time>2026-05-03T08:56:16.804Z</time></trkpt><trkpt lat="42.001965" lon="12.1271805"><ele>111.14285714285714</ele><time>2026-05-03T08:56:19.809Z</time></trkpt><trkpt lat="42.0020455" lon="12.1272444"><ele>111.57142857142857</ele><time>2026-05-03T08:56:22.793Z</time></trkpt><trkpt lat="42.0020933" lon="12.1273033"><ele>112.0</ele><time>2026-05-03T08:56:24.796Z</time></trkpt><trkpt lat="42.0021561" lon="12.127393"><ele>112.0</ele><time>2026-05-03T08:56:27.789Z</time></trkpt><trkpt lat="42.0021997" lon="12.1274544"><ele>112.0</ele><time>2026-05-03T08:56:29.823Z</time></trkpt><trkpt lat="42.0022397" lon="12.1275212"><ele>112.0</ele><time>2026-05-03T08:56:31.812Z</time></trkpt><trkpt lat="42.0022791" lon="12.1275904"><ele>112.0</ele><time>2026-05-03T08:56:33.827Z</time></trkpt><trkpt lat="42.0023169" lon="12.127662"><ele>112.0</ele><time>2026-05-03T08:56:35.821Z</time></trkpt><trkpt lat="42.0023585" lon="12.1277271"><ele>112.0</ele><time>2026-05-03T08:56:37.8Z</time></trkpt><trkpt lat="42.0024192" lon="12.1278234"><ele>112.0</ele><time>2026-05-03T08:56:40.811Z</time></trkpt><trkpt lat="42.0024608" lon="12.1278879"><ele>112.57142857142857</ele><time>2026-05-03T08:56:42.807Z</time></trkpt><trkpt lat="42.0025285" lon="12.1279769"><ele>113.14285714285714</ele><time>2026-05-03T08:56:45.787Z</time></trkpt><trkpt lat="42.0025798" lon="12.128037"><ele>113.71428571428572</ele><time>2026-05-03T08:56:47.803Z</time></trkpt><trkpt lat="42.0026356" lon="12.128092"><ele>114.28571428571429</ele><time>2026-05-03T08:56:49.785Z</time></trkpt><trkpt lat="42.002691" lon="12.1281463"><ele>114.85714285714286</ele><time>2026-05-03T08:56:51.804Z</time></trkpt><trkpt lat="42.0027476" lon="12.1281945"><ele>115.42857142857144</ele><time>2026-05-03T08:56:53.823Z</time></trkpt><trkpt lat="42.0028025" lon="12.1282419"><ele>116.00000000000001</ele><time>2026-05-03T08:56:55.812Z</time></trkpt><trkpt lat="42.0028573" lon="12.1282928"><ele>116.0</ele><time>2026-05-03T08:56:57.806Z</time></trkpt><trkpt lat="42.0029214" lon="12.1283482"><ele>116.0</ele><time>2026-05-03T08:56:59.796Z</time></trkpt><trkpt lat="42.0029959" lon="12.1283995"><ele>116.0</ele><time>2026-05-03T08:57:01.789Z</time></trkpt><trkpt lat="42.0031223" lon="12.1284655"><ele>116.0</ele><time>2026-05-03T08:57:04.819Z</time></trkpt><trkpt lat="42.0031926" lon="12.1285191"><ele>116.0</ele><time>2026-05-03T08:57:06.808Z</time></trkpt><trkpt lat="42.0032783" lon="12.1285841"><ele>116.0</ele><time>2026-05-03T08:57:08.807Z</time></trkpt><trkpt lat="42.0033608" lon="12.1286543"><ele>116.0</ele><time>2026-05-03T08:57:10.8Z</time></trkpt><trkpt lat="42.0034322" lon="12.1287434"><ele>116.0</ele><time>2026-05-03T08:57:12.823Z</time></trkpt><trkpt lat="42.003496" lon="12.1288383"><ele>116.0</ele><time>2026-05-03T08:57:14.803Z</time></trkpt><trkpt lat="42.0035487" lon="12.1289441"><ele>116.0</ele><time>2026-05-03T08:57:16.813Z</time></trkpt><trkpt lat="42.0036016" lon="12.129053"><ele>116.0</ele><time>2026-05-03T08:57:18.824Z</time></trkpt><trkpt lat="42.0036595" lon="12.1291493"><ele>116.0</ele><time>2026-05-03T08:57:20.787Z</time></trkpt><trkpt lat="42.003715" lon="12.1292449"><ele>116.0</ele><time>2026-05-03T08:57:22.791Z</time></trkpt><trkpt lat="42.0037774" lon="12.1293429"><ele>116.0</ele><time>2026-05-03T08:57:24.812Z</time></trkpt><trkpt lat="42.0038343" lon="12.1294422"><ele>116.0</ele><time>2026-05-03T08:57:26.807Z</time></trkpt><trkpt lat="42.0038976" lon="12.1295393"><ele>115.99999999999999</ele><time>2026-05-03T08:57:28.789Z</time></trkpt><trkpt lat="42.0039414" lon="12.1296432"><ele>116.0</ele><time>2026-05-03T08:57:30.798Z</time></trkpt><trkpt lat="42.0039882" lon="12.1297446"><ele>116.0</ele><time>2026-05-03T08:57:32.796Z</time></trkpt><trkpt lat="42.004044" lon="12.1298404"><ele>116.0</ele><time>2026-05-03T08:57:34.796Z</time></trkpt><trkpt lat="42.0041055" lon="12.129922"><ele>115.99999999999999</ele><time>2026-05-03T08:57:36.815Z</time></trkpt><trkpt lat="42.0041708" lon="12.1299971"><ele>116.0</ele><time>2026-05-03T08:57:38.793Z</time></trkpt><trkpt lat="42.0042342" lon="12.1300761"><ele>115.66666666666666</ele><time>2026-05-03T08:57:40.815Z</time></trkpt><trkpt lat="42.0042968" lon="12.1301571"><ele>115.33333333333333</ele><time>2026-05-03T08:57:42.8Z</time></trkpt><trkpt lat="42.0043557" lon="12.130239"><ele>115.0</ele><time>2026-05-03T08:57:44.79Z</time></trkpt><trkpt lat="42.0044218" lon="12.1303089"><ele>114.66666666666666</ele><time>2026-05-03T08:57:46.789Z</time></trkpt><trkpt lat="42.004489" lon="12.1303676"><ele>114.33333333333333</ele><time>2026-05-03T08:57:48.791Z</time></trkpt><trkpt lat="42.0045519" lon="12.1304261"><ele>114.0</ele><time>2026-05-03T08:57:50.798Z</time></trkpt><trkpt lat="42.004606" lon="12.1304903"><ele>114.0</ele><time>2026-05-03T08:57:52.821Z</time></trkpt><trkpt lat="42.0046569" lon="12.1305539"><ele>113.99999999999999</ele><time>2026-05-03T08:57:54.787Z</time></trkpt><trkpt lat="42.0047133" lon="12.1306117"><ele>114.0</ele><time>2026-05-03T08:57:56.792Z</time></trkpt><trkpt lat="42.004763" lon="12.1306725"><ele>114.0</ele><time>2026-05-03T08:57:58.796Z</time></trkpt><trkpt lat="42.0048229" lon="12.1307256"><ele>113.99999999999999</ele><time>2026-05-03T08:58:00.792Z</time></trkpt><trkpt lat="42.0048794" lon="12.1307721"><ele>114.0</ele><time>2026-05-03T08:58:02.799Z</time></trkpt><trkpt lat="42.0049579" lon="12.1308388"><ele>114.0</ele><time>2026-05-03T08:58:05.8Z</time></trkpt><trkpt lat="42.0050247" lon="12.1309105"><ele>114.33333333333333</ele><time>2026-05-03T08:58:08.794Z</time></trkpt><trkpt lat="42.0050793" lon="12.13097"><ele>114.66666666666666</ele><time>2026-05-03T08:58:10.817Z</time></trkpt><trkpt lat="42.0051465" lon="12.1310269"><ele>115.0</ele><time>2026-05-03T08:58:12.804Z</time></trkpt><trkpt lat="42.0052244" lon="12.1310909"><ele>115.33333333333333</ele><time>2026-05-03T08:58:14.798Z</time></trkpt><trkpt lat="42.0053022" lon="12.1311643"><ele>115.66666666666666</ele><time>2026-05-03T08:58:16.809Z</time></trkpt><trkpt lat="42.0053911" lon="12.1312408"><ele>116.0</ele><time>2026-05-03T08:58:18.832Z</time></trkpt><trkpt lat="42.0054812" lon="12.1313159"><ele>116.0</ele><time>2026-05-03T08:58:20.803Z</time></trkpt><trkpt lat="42.0055692" lon="12.1313922"><ele>116.0</ele><time>2026-05-03T08:58:22.813Z</time></trkpt><trkpt lat="42.005654" lon="12.13145"><ele>116.0</ele><time>2026-05-03T08:58:24.821Z</time></trkpt><trkpt lat="42.0057315" lon="12.1315159"><ele>116.0</ele><time>2026-05-03T08:58:26.811Z</time></trkpt><trkpt lat="42.0058157" lon="12.1315787"><ele>116.0</ele><time>2026-05-03T08:58:28.805Z</time></trkpt><trkpt lat="42.0058915" lon="12.1316382"><ele>115.33333333333333</ele><time>2026-05-03T08:58:30.801Z</time></trkpt><trkpt lat="42.0059717" lon="12.1316957"><ele>114.66666666666666</ele><time>2026-05-03T08:58:32.834Z</time></trkpt><trkpt lat="42.0060498" lon="12.1317516"><ele>114.0</ele><time>2026-05-03T08:58:34.799Z</time></trkpt><trkpt lat="42.0061238" lon="12.1317993"><ele>113.33333333333334</ele><time>2026-05-03T08:58:36.789Z</time></trkpt><trkpt lat="42.0061978" lon="12.1318456"><ele>112.66666666666667</ele><time>2026-05-03T08:58:38.785Z</time></trkpt><trkpt lat="42.0062679" lon="12.1318934"><ele>112.0</ele><time>2026-05-03T08:58:40.811Z</time></trkpt><trkpt lat="42.0063381" lon="12.1319392"><ele>112.0</ele><time>2026-05-03T08:58:42.804Z</time></trkpt><trkpt lat="42.0064072" lon="12.131988"><ele>112.0</ele><time>2026-05-03T08:58:44.794Z</time></trkpt><trkpt lat="42.0064733" lon="12.1320273"><ele>112.0</ele><time>2026-05-03T08:58:46.805Z</time></trkpt><trkpt lat="42.0065351" lon="12.1320701"><ele>112.0</ele><time>2026-05-03T08:58:48.798Z</time></trkpt><trkpt lat="42.006599" lon="12.1321135"><ele>112.0</ele><time>2026-05-03T08:58:50.797Z</time></trkpt><trkpt lat="42.0066593" lon="12.1321482"><ele>112.0</ele><time>2026-05-03T08:58:52.851Z</time></trkpt><trkpt lat="42.0067182" lon="12.1321829"><ele>112.0</ele><time>2026-05-03T08:58:54.8Z</time></trkpt><trkpt lat="42.0068022" lon="12.1322385"><ele>112.50000000000001</ele><time>2026-05-03T08:58:57.792Z</time></trkpt><trkpt lat="42.0068604" lon="12.1322796"><ele>113.0</ele><time>2026-05-03T08:58:59.806Z</time></trkpt><trkpt lat="42.0069201" lon="12.1323202"><ele>113.5</ele><time>2026-05-03T08:59:01.828Z</time></trkpt><trkpt lat="42.0070013" lon="12.1323788"><ele>114.0</ele><time>2026-05-03T08:59:04.79Z</time></trkpt><trkpt lat="42.0070579" lon="12.132417"><ele>114.50000000000001</ele><time>2026-05-03T08:59:06.797Z</time></trkpt><trkpt lat="42.0071378" lon="12.1324671"><ele>115.0</ele><time>2026-05-03T08:59:09.829Z</time></trkpt><trkpt lat="42.007208" lon="12.1325133"><ele>115.00000000000001</ele><time>2026-05-03T08:59:12.812Z</time></trkpt><trkpt lat="42.0072851" lon="12.1325552"><ele>115.0</ele><time>2026-05-03T08:59:15.804Z</time></trkpt><trkpt lat="42.0073678" lon="12.1325975"><ele>115.0</ele><time>2026-05-03T08:59:18.795Z</time></trkpt><trkpt lat="42.0074499" lon="12.1326427"><ele>115.0</ele><time>2026-05-03T08:59:21.83Z</time></trkpt><trkpt lat="42.0075219" lon="12.1326845"><ele>115.00000000000001</ele><time>2026-05-03T08:59:24.799Z</time></trkpt><trkpt lat="42.0076006" lon="12.1327269"><ele>115.0</ele><time>2026-05-03T08:59:27.824Z</time></trkpt><trkpt lat="42.0076802" lon="12.1327705"><ele>116.66666666666667</ele><time>2026-05-03T08:59:30.81Z</time></trkpt><trkpt lat="42.0077567" lon="12.1328142"><ele>118.33333333333334</ele><time>2026-05-03T08:59:33.8Z</time></trkpt><trkpt lat="42.0078315" lon="12.1328581"><ele>120.0</ele><time>2026-05-03T08:59:36.81Z</time></trkpt><trkpt lat="42.0079" lon="12.1328952"><ele>121.66666666666666</ele><time>2026-05-03T08:59:39.832Z</time></trkpt><trkpt lat="42.0079672" lon="12.13293"><ele>123.33333333333333</ele><time>2026-05-03T08:59:42.809Z</time></trkpt><trkpt lat="42.0080357" lon="12.1329648"><ele>125.0</ele><time>2026-05-03T08:59:45.806Z</time></trkpt><trkpt lat="42.008108" lon="12.1330021"><ele>124.99999999999999</ele><time>2026-05-03T08:59:48.814Z</time></trkpt><trkpt lat="42.0081719" lon="12.1330369"><ele>125.0</ele><time>2026-05-03T08:59:51.816Z</time></trkpt><trkpt lat="42.0082424" lon="12.1330744"><ele>125.0</ele><time>2026-05-03T08:59:54.792Z</time></trkpt><trkpt lat="42.0083123" lon="12.1331099"><ele>125.0</ele><time>2026-05-03T08:59:57.791Z</time></trkpt><trkpt lat="42.008382" lon="12.133152"><ele>124.99999999999999</ele><time>2026-05-03T09:00:00.816Z</time></trkpt><trkpt lat="42.00845" lon="12.1332047"><ele>125.0</ele><time>2026-05-03T09:00:03.807Z</time></trkpt><trkpt lat="42.008522" lon="12.1332479"><ele>124.99999999999999</ele><time>2026-05-03T09:00:06.788Z</time></trkpt><trkpt lat="42.008589" lon="12.1332943"><ele>125.0</ele><time>2026-05-03T09:00:09.822Z</time></trkpt><trkpt lat="42.0086563" lon="12.1333352"><ele>125.0</ele><time>2026-05-03T09:00:12.805Z</time></trkpt><trkpt lat="42.0087259" lon="12.1333786"><ele>125.0</ele><time>2026-05-03T09:00:15.793Z</time></trkpt><trkpt lat="42.0087994" lon="12.1334141"><ele>124.99999999999999</ele><time>2026-05-03T09:00:18.797Z</time></trkpt><trkpt lat="42.0088736" lon="12.1334522"><ele>125.0</ele><time>2026-05-03T09:00:21.841Z</time></trkpt><trkpt lat="42.008943" lon="12.1334944"><ele>124.99999999999999</ele><time>2026-05-03T09:00:24.804Z</time></trkpt><trkpt lat="42.0090134" lon="12.1335312"><ele>125.0</ele><time>2026-05-03T09:00:27.792Z</time></trkpt><trkpt lat="42.0090827" lon="12.1335545"><ele>125.0</ele><time>2026-05-03T09:00:30.799Z</time></trkpt><trkpt lat="42.0091527" lon="12.1335762"><ele>125.0</ele><time>2026-05-03T09:00:33.801Z</time></trkpt><trkpt lat="42.0092306" lon="12.1336065"><ele>124.99999999999999</ele><time>2026-05-03T09:00:36.809Z</time></trkpt><trkpt lat="42.0093112" lon="12.1336423"><ele>125.0</ele><time>2026-05-03T09:00:39.803Z</time></trkpt><trkpt lat="42.0094008" lon="12.1336811"><ele>125.28571428571428</ele><time>2026-05-03T09:00:42.804Z</time></trkpt><trkpt lat="42.009465" lon="12.1337095"><ele>125.57142857142858</ele><time>2026-05-03T09:00:44.799Z</time></trkpt><trkpt lat="42.0095286" lon="12.1337409"><ele>125.85714285714286</ele><time>2026-05-03T09:00:46.793Z</time></trkpt><trkpt lat="42.0095898" lon="12.1337718"><ele>126.14285714285714</ele><time>2026-05-03T09:00:48.828Z</time></trkpt><trkpt lat="42.0096507" lon="12.1337991"><ele>126.42857142857142</ele><time>2026-05-03T09:00:50.821Z</time></trkpt><trkpt lat="42.0097142" lon="12.1338265"><ele>126.71428571428572</ele><time>2026-05-03T09:00:52.799Z</time></trkpt><trkpt lat="42.0097803" lon="12.1338538"><ele>127.0</ele><time>2026-05-03T09:00:54.793Z</time></trkpt><trkpt lat="42.009845" lon="12.1338856"><ele>127.0</ele><time>2026-05-03T09:00:56.788Z</time></trkpt><trkpt lat="42.0099057" lon="12.1339148"><ele>127.0</ele><time>2026-05-03T09:00:58.79Z</time></trkpt><trkpt lat="42.0099695" lon="12.1339448"><ele>127.0</ele><time>2026-05-03T09:01:00.806Z</time></trkpt><trkpt lat="42.0100353" lon="12.1339777"><ele>127.0</ele><time>2026-05-03T09:01:02.806Z</time></trkpt><trkpt lat="42.0101002" lon="12.1340073"><ele>127.0</ele><time>2026-05-03T09:01:04.796Z</time></trkpt><trkpt lat="42.0101612" lon="12.1340397"><ele>127.0</ele><time>2026-05-03T09:01:06.807Z</time></trkpt><trkpt lat="42.0102219" lon="12.1340781"><ele>127.0</ele><time>2026-05-03T09:01:08.796Z</time></trkpt><trkpt lat="42.0102819" lon="12.1341203"><ele>126.85714285714286</ele><time>2026-05-03T09:01:10.791Z</time></trkpt><trkpt lat="42.0103431" lon="12.1341587"><ele>126.71428571428571</ele><time>2026-05-03T09:01:12.825Z</time></trkpt><trkpt lat="42.0104059" lon="12.1341837"><ele>126.57142857142857</ele><time>2026-05-03T09:01:14.813Z</time></trkpt><trkpt lat="42.0104693" lon="12.1342109"><ele>126.42857142857143</ele><time>2026-05-03T09:01:16.795Z</time></trkpt><trkpt lat="42.0105319" lon="12.1342399"><ele>126.28571428571428</ele><time>2026-05-03T09:01:18.795Z</time></trkpt><trkpt lat="42.0105951" lon="12.1342702"><ele>126.14285714285714</ele><time>2026-05-03T09:01:20.801Z</time></trkpt><trkpt lat="42.0106596" lon="12.1343052"><ele>126.0</ele><time>2026-05-03T09:01:22.802Z</time></trkpt><trkpt lat="42.0107227" lon="12.1343416"><ele>126.0</ele><time>2026-05-03T09:01:24.807Z</time></trkpt><trkpt lat="42.0107864" lon="12.1343803"><ele>126.0</ele><time>2026-05-03T09:01:26.807Z</time></trkpt><trkpt lat="42.0108478" lon="12.1344252"><ele>126.0</ele><time>2026-05-03T09:01:28.793Z</time></trkpt><trkpt lat="42.0109031" lon="12.1344692"><ele>126.0</ele><time>2026-05-03T09:01:30.807Z</time></trkpt><trkpt lat="42.0109649" lon="12.1345008"><ele>126.0</ele><time>2026-05-03T09:01:32.796Z</time></trkpt><trkpt lat="42.011026" lon="12.1345348"><ele>126.0</ele><time>2026-05-03T09:01:34.798Z</time></trkpt><trkpt lat="42.0110856" lon="12.1345739"><ele>126.0</ele><time>2026-05-03T09:01:36.806Z</time></trkpt><trkpt lat="42.0111478" lon="12.1346145"><ele>126.42857142857143</ele><time>2026-05-03T09:01:38.804Z</time></trkpt><trkpt lat="42.0112127" lon="12.1346512"><ele>126.85714285714286</ele><time>2026-05-03T09:01:40.81Z</time></trkpt><trkpt lat="42.0112797" lon="12.1346901"><ele>127.28571428571428</ele><time>2026-05-03T09:01:42.79Z</time></trkpt><trkpt lat="42.011349" lon="12.1347277"><ele>127.71428571428571</ele><time>2026-05-03T09:01:44.818Z</time></trkpt><trkpt lat="42.0114185" lon="12.1347694"><ele>128.14285714285714</ele><time>2026-05-03T09:01:46.808Z</time></trkpt><trkpt lat="42.0114888" lon="12.1348106"><ele>128.57142857142856</ele><time>2026-05-03T09:01:48.796Z</time></trkpt><trkpt lat="42.0115589" lon="12.1348502"><ele>129.0</ele><time>2026-05-03T09:01:50.798Z</time></trkpt><trkpt lat="42.0116276" lon="12.1348892"><ele>129.5</ele><time>2026-05-03T09:01:52.812Z</time></trkpt><trkpt lat="42.0116981" lon="12.1349285"><ele>130.0</ele><time>2026-05-03T09:01:54.808Z</time></trkpt><trkpt lat="42.0117695" lon="12.1349712"><ele>130.5</ele><time>2026-05-03T09:01:56.809Z</time></trkpt><trkpt lat="42.0118407" lon="12.135013"><ele>131.0</ele><time>2026-05-03T09:01:58.809Z</time></trkpt><trkpt lat="42.0119118" lon="12.1350521"><ele>131.5</ele><time>2026-05-03T09:02:00.808Z</time></trkpt><trkpt lat="42.0119825" lon="12.1350921"><ele>132.0</ele><time>2026-05-03T09:02:02.816Z</time></trkpt><trkpt lat="42.0120527" lon="12.1351304"><ele>132.0</ele><time>2026-05-03T09:02:04.804Z</time></trkpt><trkpt lat="42.0121212" lon="12.1351675"><ele>132.0</ele><time>2026-05-03T09:02:06.817Z</time></trkpt><trkpt lat="42.0121912" lon="12.1352026"><ele>132.0</ele><time>2026-05-03T09:02:08.796Z</time></trkpt><trkpt lat="42.0122587" lon="12.1352406"><ele>132.0</ele><time>2026-05-03T09:02:10.84Z</time></trkpt><trkpt lat="42.0123263" lon="12.135281"><ele>132.0</ele><time>2026-05-03T09:02:12.811Z</time></trkpt><trkpt lat="42.0123931" lon="12.1353226"><ele>132.0</ele><time>2026-05-03T09:02:14.786Z</time></trkpt><trkpt lat="42.0124593" lon="12.1353605"><ele>132.0</ele><time>2026-05-03T09:02:16.808Z</time></trkpt><trkpt lat="42.0125215" lon="12.135392"><ele>132.33333333333334</ele><time>2026-05-03T09:02:18.809Z</time></trkpt><trkpt lat="42.0126104" lon="12.1354343"><ele>132.66666666666666</ele><time>2026-05-03T09:02:21.822Z</time></trkpt><trkpt lat="42.0126724" lon="12.1354662"><ele>133.0</ele><time>2026-05-03T09:02:23.806Z</time></trkpt><trkpt lat="42.0127339" lon="12.1355015"><ele>133.33333333333331</ele><time>2026-05-03T09:02:25.814Z</time></trkpt><trkpt lat="42.0127948" lon="12.1355404"><ele>133.66666666666666</ele><time>2026-05-03T09:02:27.813Z</time></trkpt><trkpt lat="42.0128556" lon="12.1355801"><ele>134.0</ele><time>2026-05-03T09:02:29.808Z</time></trkpt><trkpt lat="42.0129407" lon="12.1356285"><ele>134.0</ele><time>2026-05-03T09:02:32.859Z</time></trkpt><trkpt lat="42.0130015" lon="12.1356636"><ele>134.0</ele><time>2026-05-03T09:02:34.808Z</time></trkpt><trkpt lat="42.0130672" lon="12.1357"><ele>134.0</ele><time>2026-05-03T09:02:36.814Z</time></trkpt><trkpt lat="42.0131337" lon="12.1357361"><ele>134.0</ele><time>2026-05-03T09:02:38.804Z</time></trkpt><trkpt lat="42.0131999" lon="12.135779"><ele>134.0</ele><time>2026-05-03T09:02:40.805Z</time></trkpt><trkpt lat="42.013268" lon="12.1358233"><ele>134.0</ele><time>2026-05-03T09:02:42.8Z</time></trkpt><trkpt lat="42.0133344" lon="12.1358726"><ele>134.0</ele><time>2026-05-03T09:02:44.797Z</time></trkpt><trkpt lat="42.0133864" lon="12.1359281"><ele>134.14285714285714</ele><time>2026-05-03T09:02:46.821Z</time></trkpt><trkpt lat="42.013447" lon="12.1359815"><ele>134.28571428571428</ele><time>2026-05-03T09:02:48.832Z</time></trkpt><trkpt lat="42.0135076" lon="12.1360331"><ele>134.42857142857142</ele><time>2026-05-03T09:02:50.805Z</time></trkpt><trkpt lat="42.0135668" lon="12.1360828"><ele>134.57142857142856</ele><time>2026-05-03T09:02:52.852Z</time></trkpt><trkpt lat="42.0136232" lon="12.1361317"><ele>134.7142857142857</ele><time>2026-05-03T09:02:54.791Z</time></trkpt><trkpt lat="42.0136805" lon="12.1361796"><ele>134.85714285714286</ele><time>2026-05-03T09:02:56.817Z</time></trkpt><trkpt lat="42.0137361" lon="12.1362282"><ele>135.0</ele><time>2026-05-03T09:02:58.81Z</time></trkpt><trkpt lat="42.0137923" lon="12.1362737"><ele>135.0</ele><time>2026-05-03T09:03:00.793Z</time></trkpt><trkpt lat="42.0138478" lon="12.1363194"><ele>135.0</ele><time>2026-05-03T09:03:02.81Z</time></trkpt><trkpt lat="42.0139198" lon="12.1363822"><ele>135.0</ele><time>2026-05-03T09:03:05.806Z</time></trkpt><trkpt lat="42.0140002" lon="12.1364379"><ele>135.0</ele><time>2026-05-03T09:03:08.805Z</time></trkpt><trkpt lat="42.0140548" lon="12.1364862"><ele>135.0</ele><time>2026-05-03T09:03:10.811Z</time></trkpt><trkpt lat="42.0141142" lon="12.1365405"><ele>135.0</ele><time>2026-05-03T09:03:12.816Z</time></trkpt><trkpt lat="42.0141717" lon="12.1365902"><ele>135.0</ele><time>2026-05-03T09:03:14.795Z</time></trkpt><trkpt lat="42.0142283" lon="12.1366275"><ele>135.42857142857142</ele><time>2026-05-03T09:03:16.805Z</time></trkpt><trkpt lat="42.0142897" lon="12.1366777"><ele>135.85714285714283</ele><time>2026-05-03T09:03:18.793Z</time></trkpt><trkpt lat="42.0143527" lon="12.1367323"><ele>136.28571428571428</ele><time>2026-05-03T09:03:20.804Z</time></trkpt><trkpt lat="42.0144146" lon="12.1367875"><ele>136.71428571428572</ele><time>2026-05-03T09:03:22.789Z</time></trkpt><trkpt lat="42.0144667" lon="12.1368495"><ele>137.14285714285717</ele><time>2026-05-03T09:03:24.806Z</time></trkpt><trkpt lat="42.0145239" lon="12.1368935"><ele>137.57142857142858</ele><time>2026-05-03T09:03:26.802Z</time></trkpt><trkpt lat="42.01458" lon="12.1369389"><ele>138.0</ele><time>2026-05-03T09:03:28.811Z</time></trkpt><trkpt lat="42.0146561" lon="12.1370009"><ele>138.0</ele><time>2026-05-03T09:03:31.804Z</time></trkpt><trkpt lat="42.0147146" lon="12.1370412"><ele>138.0</ele><time>2026-05-03T09:03:33.8Z</time></trkpt><trkpt lat="42.0147726" lon="12.1370916"><ele>138.0</ele><time>2026-05-03T09:03:35.791Z</time></trkpt><trkpt lat="42.0148343" lon="12.1371434"><ele>138.0</ele><time>2026-05-03T09:03:37.795Z</time></trkpt><trkpt lat="42.0148994" lon="12.1371965"><ele>138.0</ele><time>2026-05-03T09:03:39.8Z</time></trkpt><trkpt lat="42.0149629" lon="12.1372481"><ele>138.0</ele><time>2026-05-03T09:03:41.795Z</time></trkpt><trkpt lat="42.0150261" lon="12.1372947"><ele>138.0</ele><time>2026-05-03T09:03:43.805Z</time></trkpt><trkpt lat="42.015089" lon="12.1373374"><ele>138.0</ele><time>2026-05-03T09:03:45.803Z</time></trkpt><trkpt lat="42.0151543" lon="12.1373827"><ele>138.0</ele><time>2026-05-03T09:03:47.807Z</time></trkpt><trkpt lat="42.0152225" lon="12.1374278"><ele>138.0</ele><time>2026-05-03T09:03:49.808Z</time></trkpt><trkpt lat="42.0152943" lon="12.1374731"><ele>138.0</ele><time>2026-05-03T09:03:51.794Z</time></trkpt><trkpt lat="42.0153643" lon="12.1375211"><ele>138.0</ele><time>2026-05-03T09:03:53.803Z</time></trkpt><trkpt lat="42.0154313" lon="12.1375632"><ele>138.0</ele><time>2026-05-03T09:03:55.794Z</time></trkpt><trkpt lat="42.0154996" lon="12.1376049"><ele>138.0</ele><time>2026-05-03T09:03:57.799Z</time></trkpt><trkpt lat="42.0155678" lon="12.137645"><ele>138.0</ele><time>2026-05-03T09:03:59.802Z</time></trkpt><trkpt lat="42.0156357" lon="12.1376863"><ele>138.0</ele><time>2026-05-03T09:04:01.797Z</time></trkpt><trkpt lat="42.0157051" lon="12.1377274"><ele>138.0</ele><time>2026-05-03T09:04:03.785Z</time></trkpt><trkpt lat="42.0157762" lon="12.137769"><ele>138.0</ele><time>2026-05-03T09:04:05.804Z</time></trkpt><trkpt lat="42.0158453" lon="12.1378102"><ele>138.0</ele><time>2026-05-03T09:04:07.792Z</time></trkpt><trkpt lat="42.0159121" lon="12.1378534"><ele>137.85714285714286</ele><time>2026-05-03T09:04:09.787Z</time></trkpt><trkpt lat="42.0159797" lon="12.1378928"><ele>137.71428571428572</ele><time>2026-05-03T09:04:11.79Z</time></trkpt><trkpt lat="42.016047" lon="12.1379333"><ele>137.57142857142858</ele><time>2026-05-03T09:04:13.792Z</time></trkpt><trkpt lat="42.0161144" lon="12.1379728"><ele>137.42857142857144</ele><time>2026-05-03T09:04:15.805Z</time></trkpt><trkpt lat="42.0161822" lon="12.1380122"><ele>137.28571428571428</ele><time>2026-05-03T09:04:17.811Z</time></trkpt><trkpt lat="42.016247" lon="12.1380525"><ele>137.14285714285717</ele><time>2026-05-03T09:04:19.79Z</time></trkpt><trkpt lat="42.0163135" lon="12.1380925"><ele>137.0</ele><time>2026-05-03T09:04:21.784Z</time></trkpt><trkpt lat="42.0163801" lon="12.1381313"><ele>137.0</ele><time>2026-05-03T09:04:23.792Z</time></trkpt><trkpt lat="42.016447" lon="12.138171"><ele>137.0</ele><time>2026-05-03T09:04:25.791Z</time></trkpt><trkpt lat="42.0165157" lon="12.1382132"><ele>137.0</ele><time>2026-05-03T09:04:27.791Z</time></trkpt><trkpt lat="42.0165834" lon="12.1382599"><ele>137.0</ele><time>2026-05-03T09:04:29.787Z</time></trkpt><trkpt lat="42.0166508" lon="12.1383074"><ele>137.0</ele><time>2026-05-03T09:04:31.794Z</time></trkpt><trkpt lat="42.0167167" lon="12.1383606"><ele>137.0</ele><time>2026-05-03T09:04:33.798Z</time></trkpt><trkpt lat="42.0167866" lon="12.1384059"><ele>137.57142857142858</ele><time>2026-05-03T09:04:35.795Z</time></trkpt><trkpt lat="42.0168569" lon="12.1384532"><ele>138.14285714285714</ele><time>2026-05-03T09:04:37.795Z</time></trkpt><trkpt lat="42.016925" lon="12.1385032"><ele>138.71428571428572</ele><time>2026-05-03T09:04:39.789Z</time></trkpt><trkpt lat="42.0169876" lon="12.1385454"><ele>139.28571428571428</ele><time>2026-05-03T09:04:41.793Z</time></trkpt><trkpt lat="42.0170577" lon="12.138565"><ele>139.85714285714286</ele><time>2026-05-03T09:04:43.789Z</time></trkpt><trkpt lat="42.0171205" lon="12.1385992"><ele>140.42857142857144</ele><time>2026-05-03T09:04:45.792Z</time></trkpt><trkpt lat="42.0171837" lon="12.1386427"><ele>141.0</ele><time>2026-05-03T09:04:47.794Z</time></trkpt><trkpt lat="42.0172473" lon="12.1386853"><ele>141.0</ele><time>2026-05-03T09:04:49.796Z</time></trkpt><trkpt lat="42.0173119" lon="12.1387257"><ele>141.0</ele><time>2026-05-03T09:04:51.797Z</time></trkpt><trkpt lat="42.0173773" lon="12.1387688"><ele>141.0</ele><time>2026-05-03T09:04:53.787Z</time></trkpt><trkpt lat="42.0174419" lon="12.1388084"><ele>141.0</ele><time>2026-05-03T09:04:55.798Z</time></trkpt><trkpt lat="42.0175053" lon="12.1388516"><ele>141.0</ele><time>2026-05-03T09:04:57.792Z</time></trkpt><trkpt lat="42.0175699" lon="12.1388893"><ele>141.0</ele><time>2026-05-03T09:04:59.813Z</time></trkpt><trkpt lat="42.0176293" lon="12.1389305"><ele>141.0</ele><time>2026-05-03T09:05:01.792Z</time></trkpt><trkpt lat="42.0177078" lon="12.138948"><ele>141.33333333333334</ele><time>2026-05-03T09:05:04.794Z</time></trkpt><trkpt lat="42.0177543" lon="12.1390185"><ele>141.66666666666666</ele><time>2026-05-03T09:05:07.8Z</time></trkpt><trkpt lat="42.0177896" lon="12.1391127"><ele>142.0</ele><time>2026-05-03T09:05:10.809Z</time></trkpt><trkpt lat="42.0178476" lon="12.1391488"><ele>142.33333333333331</ele><time>2026-05-03T09:05:12.809Z</time></trkpt><trkpt lat="42.0179179" lon="12.1391946"><ele>142.66666666666666</ele><time>2026-05-03T09:05:14.804Z</time></trkpt><trkpt lat="42.017979" lon="12.1392883"><ele>143.0</ele><time>2026-05-03T09:05:16.787Z</time></trkpt><trkpt lat="42.018037" lon="12.1393937"><ele>143.0</ele><time>2026-05-03T09:05:18.789Z</time></trkpt><trkpt lat="42.0181004" lon="12.1395073"><ele>143.0</ele><time>2026-05-03T09:05:20.804Z</time></trkpt><trkpt lat="42.0181687" lon="12.139625"><ele>143.0</ele><time>2026-05-03T09:05:22.806Z</time></trkpt><trkpt lat="42.0182299" lon="12.1397368"><ele>143.0</ele><time>2026-05-03T09:05:24.806Z</time></trkpt><trkpt lat="42.0182914" lon="12.1398559"><ele>143.0</ele><time>2026-05-03T09:05:26.809Z</time></trkpt><trkpt lat="42.0183558" lon="12.1399763"><ele>142.4</ele><time>2026-05-03T09:05:28.797Z</time></trkpt><trkpt lat="42.018413" lon="12.1400936"><ele>141.8</ele><time>2026-05-03T09:05:30.795Z</time></trkpt><trkpt lat="42.0184769" lon="12.140219"><ele>141.2</ele><time>2026-05-03T09:05:32.795Z</time></trkpt><trkpt lat="42.0185407" lon="12.1403466"><ele>140.6</ele><time>2026-05-03T09:05:34.812Z</time></trkpt><trkpt lat="42.0186049" lon="12.1404728"><ele>140.0</ele><time>2026-05-03T09:05:36.811Z</time></trkpt><trkpt lat="42.0186642" lon="12.1406013"><ele>139.6</ele><time>2026-05-03T09:05:38.809Z</time></trkpt><trkpt lat="42.0187242" lon="12.1407276"><ele>139.2</ele><time>2026-05-03T09:05:40.815Z</time></trkpt><trkpt lat="42.018773" lon="12.1408479"><ele>138.8</ele><time>2026-05-03T09:05:42.806Z</time></trkpt><trkpt lat="42.0188238" lon="12.1409736"><ele>138.4</ele><time>2026-05-03T09:05:44.813Z</time></trkpt><trkpt lat="42.0188738" lon="12.1410962"><ele>138.0</ele><time>2026-05-03T09:05:46.795Z</time></trkpt><trkpt lat="42.0189248" lon="12.1412193"><ele>138.0</ele><time>2026-05-03T09:05:48.8Z</time></trkpt><trkpt lat="42.0189811" lon="12.1413397"><ele>138.0</ele><time>2026-05-03T09:05:50.837Z</time></trkpt><trkpt lat="42.0190282" lon="12.1414519"><ele>138.0</ele><time>2026-05-03T09:05:52.802Z</time></trkpt><trkpt lat="42.0190791" lon="12.1415651"><ele>138.0</ele><time>2026-05-03T09:05:54.801Z</time></trkpt><trkpt lat="42.0191254" lon="12.1416745"><ele>138.0</ele><time>2026-05-03T09:05:56.882Z</time></trkpt><trkpt lat="42.0191708" lon="12.1417873"><ele>138.8</ele><time>2026-05-03T09:05:58.807Z</time></trkpt><trkpt lat="42.0192119" lon="12.141898"><ele>139.60000000000002</ele><time>2026-05-03T09:06:00.79Z</time></trkpt><trkpt lat="42.019252" lon="12.1420115"><ele>140.39999999999998</ele><time>2026-05-03T09:06:02.817Z</time></trkpt><trkpt lat="42.0192953" lon="12.1421204"><ele>141.2</ele><time>2026-05-03T09:06:04.812Z</time></trkpt><trkpt lat="42.0193376" lon="12.1422432"><ele>142.0</ele><time>2026-05-03T09:06:06.813Z</time></trkpt><trkpt lat="42.0193789" lon="12.1423616"><ele>142.6</ele><time>2026-05-03T09:06:08.806Z</time></trkpt><trkpt lat="42.019419" lon="12.1424797"><ele>143.2</ele><time>2026-05-03T09:06:10.811Z</time></trkpt><trkpt lat="42.0194588" lon="12.1425958"><ele>143.8</ele><time>2026-05-03T09:06:12.809Z</time></trkpt><trkpt lat="42.0195009" lon="12.1427071"><ele>144.4</ele><time>2026-05-03T09:06:14.815Z</time></trkpt><trkpt lat="42.0195337" lon="12.1428185"><ele>145.0</ele><time>2026-05-03T09:06:16.838Z</time></trkpt><trkpt lat="42.0195703" lon="12.1429336"><ele>145.0</ele><time>2026-05-03T09:06:18.803Z</time></trkpt><trkpt lat="42.0195994" lon="12.1430469"><ele>145.0</ele><time>2026-05-03T09:06:20.805Z</time></trkpt><trkpt lat="42.0196325" lon="12.1431539"><ele>145.0</ele><time>2026-05-03T09:06:22.802Z</time></trkpt><trkpt lat="42.0196616" lon="12.143262"><ele>145.0</ele><time>2026-05-03T09:06:24.792Z</time></trkpt><trkpt lat="42.0196914" lon="12.1433689"><ele>145.0</ele><time>2026-05-03T09:06:26.814Z</time></trkpt><trkpt lat="42.0197178" lon="12.1434789"><ele>145.0</ele><time>2026-05-03T09:06:28.79Z</time></trkpt><trkpt lat="42.019748" lon="12.1435888"><ele>145.6</ele><time>2026-05-03T09:06:30.794Z</time></trkpt><trkpt lat="42.0197867" lon="12.1436973"><ele>146.2</ele><time>2026-05-03T09:06:32.804Z</time></trkpt><trkpt lat="42.0198184" lon="12.1438139"><ele>146.8</ele><time>2026-05-03T09:06:34.788Z</time></trkpt><trkpt lat="42.0198518" lon="12.1439231"><ele>147.4</ele><time>2026-05-03T09:06:36.785Z</time></trkpt><trkpt lat="42.0198794" lon="12.1440412"><ele>148.0</ele><time>2026-05-03T09:06:38.788Z</time></trkpt><trkpt lat="42.0199143" lon="12.1441534"><ele>148.0</ele><time>2026-05-03T09:06:40.806Z</time></trkpt><trkpt lat="42.0199401" lon="12.1442617"><ele>148.0</ele><time>2026-05-03T09:06:42.8Z</time></trkpt><trkpt lat="42.0199719" lon="12.1443728"><ele>148.0</ele><time>2026-05-03T09:06:44.806Z</time></trkpt><trkpt lat="42.0200046" lon="12.1444865"><ele>148.0</ele><time>2026-05-03T09:06:46.806Z</time></trkpt><trkpt lat="42.0200378" lon="12.1445958"><ele>148.0</ele><time>2026-05-03T09:06:48.804Z</time></trkpt><trkpt lat="42.020066" lon="12.1447068"><ele>148.0</ele><time>2026-05-03T09:06:50.81Z</time></trkpt><trkpt lat="42.020098" lon="12.1448282"><ele>148.4</ele><time>2026-05-03T09:06:52.802Z</time></trkpt><trkpt lat="42.0201291" lon="12.1449563"><ele>148.8</ele><time>2026-05-03T09:06:54.788Z</time></trkpt><trkpt lat="42.0201556" lon="12.1450832"><ele>149.2</ele><time>2026-05-03T09:06:56.808Z</time></trkpt><trkpt lat="42.0201957" lon="12.1452195"><ele>149.6</ele><time>2026-05-03T09:06:58.826Z</time></trkpt><trkpt lat="42.0202299" lon="12.1453603"><ele>150.0</ele><time>2026-05-03T09:07:00.808Z</time></trkpt><trkpt lat="42.020269" lon="12.1455109"><ele>150.0</ele><time>2026-05-03T09:07:02.82Z</time></trkpt><trkpt lat="42.0203168" lon="12.1456598"><ele>150.0</ele><time>2026-05-03T09:07:04.785Z</time></trkpt><trkpt lat="42.0203548" lon="12.1458021"><ele>150.0</ele><time>2026-05-03T09:07:06.794Z</time></trkpt><trkpt lat="42.0203911" lon="12.1459401"><ele>150.0</ele><time>2026-05-03T09:07:08.799Z</time></trkpt><trkpt lat="42.0204346" lon="12.1460821"><ele>148.75</ele><time>2026-05-03T09:07:10.808Z</time></trkpt><trkpt lat="42.0204772" lon="12.1462327"><ele>147.5</ele><time>2026-05-03T09:07:12.784Z</time></trkpt><trkpt lat="42.0205314" lon="12.1463782"><ele>146.25</ele><time>2026-05-03T09:07:14.798Z</time></trkpt><trkpt lat="42.0205809" lon="12.1465186"><ele>145.0</ele><time>2026-05-03T09:07:16.806Z</time></trkpt><trkpt lat="42.020638" lon="12.1466558"><ele>145.25</ele><time>2026-05-03T09:07:18.81Z</time></trkpt><trkpt lat="42.0207061" lon="12.1467975"><ele>145.5</ele><time>2026-05-03T09:07:20.808Z</time></trkpt><trkpt lat="42.0207698" lon="12.1469264"><ele>145.75</ele><time>2026-05-03T09:07:22.798Z</time></trkpt><trkpt lat="42.0208328" lon="12.1470485"><ele>146.0</ele><time>2026-05-03T09:07:24.805Z</time></trkpt><trkpt lat="42.0209008" lon="12.1471534"><ele>146.0</ele><time>2026-05-03T09:07:26.801Z</time></trkpt><trkpt lat="42.0209724" lon="12.1472668"><ele>146.0</ele><time>2026-05-03T09:07:28.786Z</time></trkpt><trkpt lat="42.0210493" lon="12.1473797"><ele>146.0</ele><time>2026-05-03T09:07:30.786Z</time></trkpt><trkpt lat="42.0211243" lon="12.1474994"><ele>146.0</ele><time>2026-05-03T09:07:32.809Z</time></trkpt><trkpt lat="42.0211972" lon="12.1476213"><ele>146.2</ele><time>2026-05-03T09:07:34.831Z</time></trkpt><trkpt lat="42.0212387" lon="12.147686"><ele>146.39999999999998</ele><time>2026-05-03T09:07:35.814Z</time></trkpt><trkpt lat="42.0213079" lon="12.1478061"><ele>146.6</ele><time>2026-05-03T09:07:37.801Z</time></trkpt><trkpt lat="42.0213879" lon="12.1479286"><ele>146.79999999999998</ele><time>2026-05-03T09:07:39.824Z</time></trkpt><trkpt lat="42.0214647" lon="12.1480505"><ele>147.0</ele><time>2026-05-03T09:07:41.818Z</time></trkpt><trkpt lat="42.0215439" lon="12.1481746"><ele>146.79999999999998</ele><time>2026-05-03T09:07:43.803Z</time></trkpt><trkpt lat="42.0215891" lon="12.1482408"><ele>146.6</ele><time>2026-05-03T09:07:44.806Z</time></trkpt><trkpt lat="42.0216699" lon="12.1483673"><ele>146.39999999999998</ele><time>2026-05-03T09:07:46.801Z</time></trkpt><trkpt lat="42.0217107" lon="12.1484337"><ele>146.2</ele><time>2026-05-03T09:07:47.782Z</time></trkpt><trkpt lat="42.0217904" lon="12.1485581"><ele>146.0</ele><time>2026-05-03T09:07:49.824Z</time></trkpt><trkpt lat="42.0218642" lon="12.1486776"><ele>145.5</ele><time>2026-05-03T09:07:51.807Z</time></trkpt><trkpt lat="42.0219229" lon="12.1487719"><ele>145.0</ele><time>2026-05-03T09:07:53.79Z</time></trkpt><trkpt lat="42.0219773" lon="12.1488668"><ele>144.5</ele><time>2026-05-03T09:07:55.815Z</time></trkpt><trkpt lat="42.0220294" lon="12.148945"><ele>144.0</ele><time>2026-05-03T09:07:57.79Z</time></trkpt><trkpt lat="42.0221051" lon="12.1489864"><ele>143.5</ele><time>2026-05-03T09:07:59.792Z</time></trkpt><trkpt lat="42.0221706" lon="12.1489373"><ele>143.0</ele><time>2026-05-03T09:08:01.791Z</time></trkpt><trkpt lat="42.0222241" lon="12.1488138"><ele>143.0</ele><time>2026-05-03T09:08:03.789Z</time></trkpt><trkpt lat="42.0222898" lon="12.1486713"><ele>143.0</ele><time>2026-05-03T09:08:05.803Z</time></trkpt><trkpt lat="42.0223245" lon="12.148589"><ele>143.0</ele><time>2026-05-03T09:08:06.805Z</time></trkpt><trkpt lat="42.0223631" lon="12.1485147"><ele>143.0</ele><time>2026-05-03T09:08:07.794Z</time></trkpt><trkpt lat="42.0223965" lon="12.1484273"><ele>143.0</ele><time>2026-05-03T09:08:08.807Z</time></trkpt><trkpt lat="42.0224338" lon="12.1483429"><ele>143.0</ele><time>2026-05-03T09:08:09.821Z</time></trkpt><trkpt lat="42.0224717" lon="12.1482635"><ele>142.83333333333331</ele><time>2026-05-03T09:08:10.801Z</time></trkpt><trkpt lat="42.0225009" lon="12.1481804"><ele>142.66666666666666</ele><time>2026-05-03T09:08:11.787Z</time></trkpt><trkpt lat="42.0225385" lon="12.1481008"><ele>142.5</ele><time>2026-05-03T09:08:12.797Z</time></trkpt><trkpt lat="42.0225772" lon="12.1480298"><ele>142.33333333333334</ele><time>2026-05-03T09:08:13.796Z</time></trkpt><trkpt lat="42.0226507" lon="12.1478968"><ele>142.16666666666669</ele><time>2026-05-03T09:08:15.808Z</time></trkpt><trkpt lat="42.0227321" lon="12.147778"><ele>142.0</ele><time>2026-05-03T09:08:17.79Z</time></trkpt><trkpt lat="42.0227942" lon="12.1477518"><ele>142.0</ele><time>2026-05-03T09:08:18.81Z</time></trkpt><trkpt lat="42.0229045" lon="12.1476981"><ele>142.0</ele><time>2026-05-03T09:08:20.805Z</time></trkpt><trkpt lat="42.0230202" lon="12.147679"><ele>142.0</ele><time>2026-05-03T09:08:22.822Z</time></trkpt><trkpt lat="42.0231338" lon="12.1476574"><ele>142.0</ele><time>2026-05-03T09:08:24.805Z</time></trkpt><trkpt lat="42.0232503" lon="12.1476379"><ele>140.5</ele><time>2026-05-03T09:08:26.803Z</time></trkpt><trkpt lat="42.0233709" lon="12.1476088"><ele>139.0</ele><time>2026-05-03T09:08:28.795Z</time></trkpt><trkpt lat="42.0234868" lon="12.1475768"><ele>137.5</ele><time>2026-05-03T09:08:30.829Z</time></trkpt><trkpt lat="42.0236073" lon="12.1475458"><ele>136.0</ele><time>2026-05-03T09:08:32.816Z</time></trkpt><trkpt lat="42.0237319" lon="12.1475208"><ele>136.0</ele><time>2026-05-03T09:08:34.808Z</time></trkpt><trkpt lat="42.0238603" lon="12.1475006"><ele>136.0</ele><time>2026-05-03T09:08:36.803Z</time></trkpt><trkpt lat="42.023977" lon="12.1474879"><ele>136.0</ele><time>2026-05-03T09:08:38.792Z</time></trkpt><trkpt lat="42.0240994" lon="12.1474931"><ele>136.0</ele><time>2026-05-03T09:08:40.786Z</time></trkpt><trkpt lat="42.0242166" lon="12.147481"><ele>136.33333333333334</ele><time>2026-05-03T09:08:42.796Z</time></trkpt><trkpt lat="42.0243416" lon="12.1474761"><ele>136.66666666666669</ele><time>2026-05-03T09:08:44.788Z</time></trkpt><trkpt lat="42.0244049" lon="12.1474659"><ele>137.0</ele><time>2026-05-03T09:08:45.807Z</time></trkpt><trkpt lat="42.0244699" lon="12.1474582"><ele>137.33333333333334</ele><time>2026-05-03T09:08:46.811Z</time></trkpt><trkpt lat="42.0245361" lon="12.1474484"><ele>137.66666666666666</ele><time>2026-05-03T09:08:47.787Z</time></trkpt><trkpt lat="42.0246041" lon="12.1474395"><ele>138.0</ele><time>2026-05-03T09:08:48.788Z</time></trkpt><trkpt lat="42.0246742" lon="12.1474346"><ele>138.0</ele><time>2026-05-03T09:08:49.811Z</time></trkpt><trkpt lat="42.0247414" lon="12.1474196"><ele>138.0</ele><time>2026-05-03T09:08:50.788Z</time></trkpt><trkpt lat="42.0248637" lon="12.1473882"><ele>138.0</ele><time>2026-05-03T09:08:52.796Z</time></trkpt><trkpt lat="42.0249289" lon="12.1473556"><ele>138.0</ele><time>2026-05-03T09:08:53.811Z</time></trkpt><trkpt lat="42.0249914" lon="12.147326"><ele>138.0</ele><time>2026-05-03T09:08:54.835Z</time></trkpt><trkpt lat="42.0251048" lon="12.1472663"><ele>137.4</ele><time>2026-05-03T09:08:56.787Z</time></trkpt><trkpt lat="42.0252161" lon="12.1472088"><ele>136.8</ele><time>2026-05-03T09:08:58.809Z</time></trkpt><trkpt lat="42.0253217" lon="12.1471553"><ele>136.2</ele><time>2026-05-03T09:09:00.856Z</time></trkpt><trkpt lat="42.0254265" lon="12.1471127"><ele>135.6</ele><time>2026-05-03T09:09:02.811Z</time></trkpt><trkpt lat="42.0255282" lon="12.1470949"><ele>135.0</ele><time>2026-05-03T09:09:04.8Z</time></trkpt><trkpt lat="42.0256259" lon="12.1470642"><ele>135.0</ele><time>2026-05-03T09:09:06.788Z</time></trkpt><trkpt lat="42.0257149" lon="12.1470432"><ele>135.0</ele><time>2026-05-03T09:09:08.81Z</time></trkpt><trkpt lat="42.0257984" lon="12.1470201"><ele>135.0</ele><time>2026-05-03T09:09:10.79Z</time></trkpt><trkpt lat="42.0258741" lon="12.1470021"><ele>135.0</ele><time>2026-05-03T09:09:12.788Z</time></trkpt><trkpt lat="42.0259483" lon="12.1469911"><ele>135.0</ele><time>2026-05-03T09:09:14.788Z</time></trkpt><trkpt lat="42.0260197" lon="12.1469749"><ele>135.0</ele><time>2026-05-03T09:09:16.784Z</time></trkpt><trkpt lat="42.0260895" lon="12.1469574"><ele>135.14285714285714</ele><time>2026-05-03T09:09:18.798Z</time></trkpt><trkpt lat="42.0261573" lon="12.1469459"><ele>135.28571428571428</ele><time>2026-05-03T09:09:20.807Z</time></trkpt><trkpt lat="42.0262262" lon="12.1469356"><ele>135.42857142857142</ele><time>2026-05-03T09:09:22.791Z</time></trkpt><trkpt lat="42.0262948" lon="12.146919"><ele>135.57142857142856</ele><time>2026-05-03T09:09:24.805Z</time></trkpt><trkpt lat="42.0263607" lon="12.1469123"><ele>135.71428571428572</ele><time>2026-05-03T09:09:26.785Z</time></trkpt><trkpt lat="42.0264241" lon="12.1469282"><ele>135.85714285714283</ele><time>2026-05-03T09:09:28.796Z</time></trkpt><trkpt lat="42.0265093" lon="12.1469655"><ele>136.0</ele><time>2026-05-03T09:09:31.796Z</time></trkpt><trkpt lat="42.0265691" lon="12.1469969"><ele>136.99999999999997</ele><time>2026-05-03T09:09:33.793Z</time></trkpt><trkpt lat="42.0266475" lon="12.1470472"><ele>138.0</ele><time>2026-05-03T09:09:36.816Z</time></trkpt><trkpt lat="42.0267124" lon="12.1470795"><ele>139.0</ele><time>2026-05-03T09:09:39.801Z</time></trkpt><trkpt lat="42.0267717" lon="12.1471091"><ele>140.0</ele><time>2026-05-03T09:09:42.809Z</time></trkpt><trkpt lat="42.0268331" lon="12.1471401"><ele>141.0</ele><time>2026-05-03T09:09:45.793Z</time></trkpt><trkpt lat="42.0269078" lon="12.1471697"><ele>141.99999999999997</ele><time>2026-05-03T09:09:49.789Z</time></trkpt><trkpt lat="42.0269739" lon="12.1472124"><ele>143.0</ele><time>2026-05-03T09:09:53.807Z</time></trkpt><trkpt lat="42.0270375" lon="12.1472563"><ele>142.99999999999997</ele><time>2026-05-03T09:09:57.804Z</time></trkpt><trkpt lat="42.0271063" lon="12.1472908"><ele>143.0</ele><time>2026-05-03T09:10:01.816Z</time></trkpt><trkpt lat="42.0271649" lon="12.1473382"><ele>143.0</ele><time>2026-05-03T09:10:05.788Z</time></trkpt><trkpt lat="42.0272263" lon="12.1473836"><ele>143.0</ele><time>2026-05-03T09:10:09.799Z</time></trkpt><trkpt lat="42.0272905" lon="12.1474312"><ele>143.0</ele><time>2026-05-03T09:10:13.809Z</time></trkpt><trkpt lat="42.0273513" lon="12.1474767"><ele>142.99999999999997</ele><time>2026-05-03T09:10:17.823Z</time></trkpt><trkpt lat="42.0274104" lon="12.1475196"><ele>143.0</ele><time>2026-05-03T09:10:21.817Z</time></trkpt><trkpt lat="42.0274798" lon="12.1475578"><ele>144.14285714285714</ele><time>2026-05-03T09:10:25.806Z</time></trkpt><trkpt lat="42.0275489" lon="12.1475898"><ele>145.28571428571428</ele><time>2026-05-03T09:10:29.802Z</time></trkpt><trkpt lat="42.0276133" lon="12.1476182"><ele>146.42857142857144</ele><time>2026-05-03T09:10:33.857Z</time></trkpt><trkpt lat="42.027691" lon="12.1476359"><ele>147.57142857142856</ele><time>2026-05-03T09:10:38.808Z</time></trkpt><trkpt lat="42.0277551" lon="12.1476396"><ele>148.71428571428572</ele><time>2026-05-03T09:10:42.796Z</time></trkpt><trkpt lat="42.0278261" lon="12.1476568"><ele>149.85714285714286</ele><time>2026-05-03T09:10:46.789Z</time></trkpt><trkpt lat="42.0279007" lon="12.1476785"><ele>151.0</ele><time>2026-05-03T09:10:50.788Z</time></trkpt><trkpt lat="42.0279771" lon="12.1476954"><ele>151.00000000000003</ele><time>2026-05-03T09:10:54.81Z</time></trkpt><trkpt lat="42.0280536" lon="12.1477189"><ele>151.0</ele><time>2026-05-03T09:10:58.812Z</time></trkpt><trkpt lat="42.0281153" lon="12.1477421"><ele>151.0</ele><time>2026-05-03T09:11:01.797Z</time></trkpt><trkpt lat="42.0281947" lon="12.1477622"><ele>151.0</ele><time>2026-05-03T09:11:05.818Z</time></trkpt><trkpt lat="42.0282778" lon="12.147782"><ele>151.0</ele><time>2026-05-03T09:11:09.799Z</time></trkpt><trkpt lat="42.0283443" lon="12.1477994"><ele>151.00000000000003</ele><time>2026-05-03T09:11:12.809Z</time></trkpt><trkpt lat="42.0284121" lon="12.1478137"><ele>151.0</ele><time>2026-05-03T09:11:15.797Z</time></trkpt><trkpt lat="42.028478" lon="12.1478323"><ele>151.57142857142858</ele><time>2026-05-03T09:11:18.804Z</time></trkpt><trkpt lat="42.0285569" lon="12.1478537"><ele>152.14285714285714</ele><time>2026-05-03T09:11:22.801Z</time></trkpt><trkpt lat="42.0286406" lon="12.1478694"><ele>152.71428571428572</ele><time>2026-05-03T09:11:26.819Z</time></trkpt><trkpt lat="42.0287038" lon="12.1478978"><ele>153.28571428571428</ele><time>2026-05-03T09:11:29.808Z</time></trkpt><trkpt lat="42.0287679" lon="12.1479161"><ele>153.85714285714286</ele><time>2026-05-03T09:11:32.806Z</time></trkpt><trkpt lat="42.0288302" lon="12.147938"><ele>154.42857142857144</ele><time>2026-05-03T09:11:35.813Z</time></trkpt><trkpt lat="42.0288944" lon="12.1479605"><ele>155.0</ele><time>2026-05-03T09:11:38.811Z</time></trkpt><trkpt lat="42.0289639" lon="12.14798"><ele>155.0</ele><time>2026-05-03T09:11:41.784Z</time></trkpt><trkpt lat="42.0290265" lon="12.1480085"><ele>155.0</ele><time>2026-05-03T09:11:44.809Z</time></trkpt><trkpt lat="42.0290924" lon="12.1480406"><ele>155.0</ele><time>2026-05-03T09:11:47.808Z</time></trkpt><trkpt lat="42.0291578" lon="12.1480812"><ele>155.0</ele><time>2026-05-03T09:11:50.809Z</time></trkpt><trkpt lat="42.0292248" lon="12.1481099"><ele>155.0</ele><time>2026-05-03T09:11:53.789Z</time></trkpt><trkpt lat="42.0292876" lon="12.1481431"><ele>155.0</ele><time>2026-05-03T09:11:56.808Z</time></trkpt><trkpt lat="42.0293508" lon="12.1481788"><ele>155.0</ele><time>2026-05-03T09:11:59.792Z</time></trkpt><trkpt lat="42.0294132" lon="12.1482063"><ele>155.71428571428572</ele><time>2026-05-03T09:12:02.816Z</time></trkpt><trkpt lat="42.0294773" lon="12.1482359"><ele>156.42857142857142</ele><time>2026-05-03T09:12:05.793Z</time></trkpt><trkpt lat="42.0295427" lon="12.1482667"><ele>157.14285714285714</ele><time>2026-05-03T09:12:08.809Z</time></trkpt><trkpt lat="42.0296126" lon="12.1482873"><ele>157.85714285714286</ele><time>2026-05-03T09:12:11.853Z</time></trkpt><trkpt lat="42.029674" lon="12.1483373"><ele>158.57142857142858</ele><time>2026-05-03T09:12:14.786Z</time></trkpt><trkpt lat="42.0297382" lon="12.1483719"><ele>159.28571428571428</ele><time>2026-05-03T09:12:17.819Z</time></trkpt><trkpt lat="42.029807" lon="12.148398"><ele>160.0</ele><time>2026-05-03T09:12:20.805Z</time></trkpt><trkpt lat="42.0298777" lon="12.1484327"><ele>160.0</ele><time>2026-05-03T09:12:23.807Z</time></trkpt><trkpt lat="42.0299451" lon="12.1484631"><ele>160.0</ele><time>2026-05-03T09:12:26.827Z</time></trkpt><trkpt lat="42.0300241" lon="12.1484836"><ele>160.0</ele><time>2026-05-03T09:12:29.804Z</time></trkpt><trkpt lat="42.0301049" lon="12.1485167"><ele>160.0</ele><time>2026-05-03T09:12:32.841Z</time></trkpt><trkpt lat="42.0301919" lon="12.1485335"><ele>160.0</ele><time>2026-05-03T09:12:35.804Z</time></trkpt><trkpt lat="42.0302865" lon="12.1485449"><ele>160.0</ele><time>2026-05-03T09:12:38.846Z</time></trkpt><trkpt lat="42.0303578" lon="12.148542"><ele>160.42857142857142</ele><time>2026-05-03T09:12:40.8Z</time></trkpt><trkpt lat="42.0304276" lon="12.1485399"><ele>160.85714285714286</ele><time>2026-05-03T09:12:42.8Z</time></trkpt><trkpt lat="42.0305019" lon="12.1485346"><ele>161.28571428571428</ele><time>2026-05-03T09:12:44.813Z</time></trkpt><trkpt lat="42.0305753" lon="12.1485258"><ele>161.71428571428572</ele><time>2026-05-03T09:12:46.8Z</time></trkpt><trkpt lat="42.0306444" lon="12.1485215"><ele>162.14285714285714</ele><time>2026-05-03T09:12:48.825Z</time></trkpt><trkpt lat="42.0307113" lon="12.1485117"><ele>162.57142857142858</ele><time>2026-05-03T09:12:50.796Z</time></trkpt><trkpt lat="42.0307759" lon="12.1485083"><ele>163.0</ele><time>2026-05-03T09:12:52.82Z</time></trkpt><trkpt lat="42.0308655" lon="12.1484832"><ele>163.83333333333334</ele><time>2026-05-03T09:12:55.81Z</time></trkpt><trkpt lat="42.0309428" lon="12.1484502"><ele>164.66666666666669</ele><time>2026-05-03T09:12:58.844Z</time></trkpt><trkpt lat="42.0310182" lon="12.1484262"><ele>165.5</ele><time>2026-05-03T09:13:01.8Z</time></trkpt><trkpt lat="42.0310851" lon="12.1483851"><ele>166.33333333333334</ele><time>2026-05-03T09:13:04.815Z</time></trkpt><trkpt lat="42.0311446" lon="12.1483466"><ele>167.16666666666666</ele><time>2026-05-03T09:13:07.825Z</time></trkpt><trkpt lat="42.0312143" lon="12.1483007"><ele>168.0</ele><time>2026-05-03T09:13:11.799Z</time></trkpt><trkpt lat="42.031286" lon="12.1482561"><ele>168.0</ele><time>2026-05-03T09:13:15.798Z</time></trkpt><trkpt lat="42.0313446" lon="12.1481986"><ele>168.0</ele><time>2026-05-03T09:13:19.823Z</time></trkpt><trkpt lat="42.0314142" lon="12.1481538"><ele>168.0</ele><time>2026-05-03T09:13:23.813Z</time></trkpt><trkpt lat="42.0314803" lon="12.1481188"><ele>168.0</ele><time>2026-05-03T09:13:27.827Z</time></trkpt><trkpt lat="42.031565" lon="12.1481194"><ele>168.0</ele><time>2026-05-03T09:13:31.791Z</time></trkpt><trkpt lat="42.0316327" lon="12.1481145"><ele>168.0</ele><time>2026-05-03T09:13:34.814Z</time></trkpt><trkpt lat="42.0317049" lon="12.1481293"><ele>168.0</ele><time>2026-05-03T09:13:37.812Z</time></trkpt><trkpt lat="42.0317811" lon="12.1481516"><ele>168.0</ele><time>2026-05-03T09:13:40.811Z</time></trkpt><trkpt lat="42.0318474" lon="12.1481876"><ele>168.0</ele><time>2026-05-03T09:13:43.824Z</time></trkpt><trkpt lat="42.031926" lon="12.1482131"><ele>168.0</ele><time>2026-05-03T09:13:46.785Z</time></trkpt><trkpt lat="42.0320008" lon="12.1482395"><ele>168.0</ele><time>2026-05-03T09:13:49.8Z</time></trkpt><trkpt lat="42.0320764" lon="12.1482682"><ele>168.0</ele><time>2026-05-03T09:13:52.798Z</time></trkpt><trkpt lat="42.0321575" lon="12.148306"><ele>168.0</ele><time>2026-05-03T09:13:55.847Z</time></trkpt><trkpt lat="42.0322309" lon="12.1483498"><ele>168.57142857142858</ele><time>2026-05-03T09:13:58.814Z</time></trkpt><trkpt lat="42.0323046" lon="12.1483787"><ele>169.14285714285714</ele><time>2026-05-03T09:14:01.804Z</time></trkpt><trkpt lat="42.0323763" lon="12.1484097"><ele>169.71428571428572</ele><time>2026-05-03T09:14:04.824Z</time></trkpt><trkpt lat="42.032446" lon="12.1484365"><ele>170.28571428571428</ele><time>2026-05-03T09:14:07.782Z</time></trkpt><trkpt lat="42.0325108" lon="12.1484776"><ele>170.85714285714286</ele><time>2026-05-03T09:14:10.822Z</time></trkpt><trkpt lat="42.032587" lon="12.1485189"><ele>171.42857142857144</ele><time>2026-05-03T09:14:13.804Z</time></trkpt><trkpt lat="42.032655" lon="12.1485428"><ele>172.0</ele><time>2026-05-03T09:14:15.815Z</time></trkpt><trkpt lat="42.0327347" lon="12.1485662"><ele>172.6</ele><time>2026-05-03T09:14:17.804Z</time></trkpt><trkpt lat="42.032827" lon="12.1485815"><ele>173.2</ele><time>2026-05-03T09:14:19.808Z</time></trkpt><trkpt lat="42.0329293" lon="12.1486007"><ele>173.8</ele><time>2026-05-03T09:14:21.807Z</time></trkpt><trkpt lat="42.0330439" lon="12.1486146"><ele>174.4</ele><time>2026-05-03T09:14:23.792Z</time></trkpt><trkpt lat="42.0331563" lon="12.148617"><ele>175.0</ele><time>2026-05-03T09:14:25.791Z</time></trkpt><trkpt lat="42.0332545" lon="12.1486156"><ele>175.14285714285714</ele><time>2026-05-03T09:14:27.793Z</time></trkpt><trkpt lat="42.0333445" lon="12.1486224"><ele>175.28571428571428</ele><time>2026-05-03T09:14:29.807Z</time></trkpt><trkpt lat="42.033417" lon="12.1486241"><ele>175.42857142857144</ele><time>2026-05-03T09:14:31.79Z</time></trkpt><trkpt lat="42.0334854" lon="12.1486345"><ele>175.57142857142856</ele><time>2026-05-03T09:14:33.785Z</time></trkpt><trkpt lat="42.0335519" lon="12.1486391"><ele>175.71428571428572</ele><time>2026-05-03T09:14:35.782Z</time></trkpt><trkpt lat="42.0336168" lon="12.1486362"><ele>175.85714285714286</ele><time>2026-05-03T09:14:37.783Z</time></trkpt><trkpt lat="42.0336845" lon="12.1486269"><ele>176.0</ele><time>2026-05-03T09:14:39.785Z</time></trkpt><trkpt lat="42.0337542" lon="12.1486542"><ele>176.0</ele><time>2026-05-03T09:14:41.787Z</time></trkpt><trkpt lat="42.0338257" lon="12.1486648"><ele>176.0</ele><time>2026-05-03T09:14:43.789Z</time></trkpt><trkpt lat="42.0338924" lon="12.1486581"><ele>176.0</ele><time>2026-05-03T09:14:45.825Z</time></trkpt><trkpt lat="42.0339854" lon="12.1486696"><ele>176.0</ele><time>2026-05-03T09:14:48.782Z</time></trkpt><trkpt lat="42.0340485" lon="12.1486828"><ele>176.0</ele><time>2026-05-03T09:14:50.789Z</time></trkpt><trkpt lat="42.0341135" lon="12.1486936"><ele>176.0</ele><time>2026-05-03T09:14:52.789Z</time></trkpt><trkpt lat="42.0341776" lon="12.1486962"><ele>176.0</ele><time>2026-05-03T09:14:54.791Z</time></trkpt><trkpt lat="42.0342415" lon="12.1487126"><ele>176.5</ele><time>2026-05-03T09:14:56.85Z</time></trkpt><trkpt lat="42.0343098" lon="12.1487309"><ele>177.0</ele><time>2026-05-03T09:14:58.8Z</time></trkpt><trkpt lat="42.0343748" lon="12.1487503"><ele>177.5</ele><time>2026-05-03T09:15:00.814Z</time></trkpt><trkpt lat="42.0344661" lon="12.1487914"><ele>178.0</ele><time>2026-05-03T09:15:03.808Z</time></trkpt><trkpt lat="42.034527" lon="12.148821"><ele>178.5</ele><time>2026-05-03T09:15:05.804Z</time></trkpt><trkpt lat="42.0346012" lon="12.1488457"><ele>179.0</ele><time>2026-05-03T09:15:08.793Z</time></trkpt><trkpt lat="42.0346792" lon="12.1488815"><ele>179.00000000000003</ele><time>2026-05-03T09:15:12.802Z</time></trkpt><trkpt lat="42.0347566" lon="12.1488914"><ele>179.0</ele><time>2026-05-03T09:15:16.789Z</time></trkpt><trkpt lat="42.0348217" lon="12.148904"><ele>179.0</ele><time>2026-05-03T09:15:20.812Z</time></trkpt><trkpt lat="42.0348955" lon="12.1488973"><ele>179.0</ele><time>2026-05-03T09:15:25.809Z</time></trkpt><trkpt lat="42.0349751" lon="12.1489122"><ele>179.0</ele><time>2026-05-03T09:15:29.815Z</time></trkpt><trkpt lat="42.0350497" lon="12.1489085"><ele>179.00000000000003</ele><time>2026-05-03T09:15:33.82Z</time></trkpt><trkpt lat="42.0351133" lon="12.148921"><ele>179.0</ele><time>2026-05-03T09:15:37.806Z</time></trkpt><trkpt lat="42.0351786" lon="12.1489291"><ele>179.14285714285717</ele><time>2026-05-03T09:15:41.804Z</time></trkpt><trkpt lat="42.035257" lon="12.148936"><ele>179.28571428571428</ele><time>2026-05-03T09:15:46.823Z</time></trkpt><trkpt lat="42.0353313" lon="12.1489405"><ele>179.42857142857144</ele><time>2026-05-03T09:15:50.791Z</time></trkpt><trkpt lat="42.0354007" lon="12.1489406"><ele>179.57142857142858</ele><time>2026-05-03T09:15:54.815Z</time></trkpt><trkpt lat="42.0354814" lon="12.1489537"><ele>179.71428571428572</ele><time>2026-05-03T09:15:58.802Z</time></trkpt><trkpt lat="42.0355519" lon="12.1489655"><ele>179.85714285714286</ele><time>2026-05-03T09:16:02.785Z</time></trkpt><trkpt lat="42.0356161" lon="12.1489762"><ele>180.0</ele><time>2026-05-03T09:16:05.795Z</time></trkpt><trkpt lat="42.0357103" lon="12.1490237"><ele>180.57142857142856</ele><time>2026-05-03T09:16:10.813Z</time></trkpt><trkpt lat="42.0357757" lon="12.1490452"><ele>181.14285714285717</ele><time>2026-05-03T09:16:13.794Z</time></trkpt><trkpt lat="42.0358416" lon="12.1490618"><ele>181.71428571428572</ele><time>2026-05-03T09:16:16.792Z</time></trkpt><trkpt lat="42.03591" lon="12.1490912"><ele>182.28571428571428</ele><time>2026-05-03T09:16:19.808Z</time></trkpt><trkpt lat="42.0359775" lon="12.1491247"><ele>182.85714285714283</ele><time>2026-05-03T09:16:22.804Z</time></trkpt><trkpt lat="42.0360558" lon="12.1491528"><ele>183.42857142857144</ele><time>2026-05-03T09:16:25.864Z</time></trkpt><trkpt lat="42.0361287" lon="12.1491951"><ele>184.0</ele><time>2026-05-03T09:16:28.811Z</time></trkpt><trkpt lat="42.0362073" lon="12.1492422"><ele>184.83333333333334</ele><time>2026-05-03T09:16:31.801Z</time></trkpt><trkpt lat="42.0362964" lon="12.1492788"><ele>185.66666666666669</ele><time>2026-05-03T09:16:34.819Z</time></trkpt><trkpt lat="42.0363584" lon="12.1493002"><ele>186.5</ele><time>2026-05-03T09:16:36.887Z</time></trkpt><trkpt lat="42.036447" lon="12.1493336"><ele>187.33333333333334</ele><time>2026-05-03T09:16:39.844Z</time></trkpt><trkpt lat="42.0365279" lon="12.1493801"><ele>188.16666666666666</ele><time>2026-05-03T09:16:42.804Z</time></trkpt><trkpt lat="42.0366082" lon="12.1494243"><ele>189.0</ele><time>2026-05-03T09:16:45.801Z</time></trkpt><trkpt lat="42.0366877" lon="12.1494731"><ele>189.0</ele><time>2026-05-03T09:16:48.826Z</time></trkpt><trkpt lat="42.0367693" lon="12.1495324"><ele>189.0</ele><time>2026-05-03T09:16:51.812Z</time></trkpt><trkpt lat="42.036843" lon="12.1496015"><ele>189.0</ele><time>2026-05-03T09:16:54.792Z</time></trkpt><trkpt lat="42.0368919" lon="12.1496984"><ele>189.0</ele><time>2026-05-03T09:16:57.782Z</time></trkpt><trkpt lat="42.0369541" lon="12.149792"><ele>189.0</ele><time>2026-05-03T09:17:00.794Z</time></trkpt><trkpt lat="42.0370199" lon="12.149885"><ele>189.0</ele><time>2026-05-03T09:17:03.787Z</time></trkpt><trkpt lat="42.0370734" lon="12.149946"><ele>189.0</ele><time>2026-05-03T09:17:05.797Z</time></trkpt><trkpt lat="42.037128" lon="12.1500293"><ele>189.0</ele><time>2026-05-03T09:17:07.81Z</time></trkpt><trkpt lat="42.0371949" lon="12.1501223"><ele>189.0</ele><time>2026-05-03T09:17:09.806Z</time></trkpt><trkpt lat="42.037273" lon="12.1502319"><ele>189.0</ele><time>2026-05-03T09:17:11.797Z</time></trkpt><trkpt lat="42.0373497" lon="12.1503554"><ele>189.0</ele><time>2026-05-03T09:17:13.792Z</time></trkpt><trkpt lat="42.0373959" lon="12.1504162"><ele>189.0</ele><time>2026-05-03T09:17:14.809Z</time></trkpt><trkpt lat="42.0374415" lon="12.1504785"><ele>189.0</ele><time>2026-05-03T09:17:15.862Z</time></trkpt><trkpt lat="42.0374872" lon="12.1505388"><ele>189.0</ele><time>2026-05-03T09:17:16.815Z</time></trkpt><trkpt lat="42.0375339" lon="12.1505957"><ele>189.0</ele><time>2026-05-03T09:17:17.815Z</time></trkpt><trkpt lat="42.0376236" lon="12.1507047"><ele>189.0</ele><time>2026-05-03T09:17:19.799Z</time></trkpt><trkpt lat="42.0377094" lon="12.1508111"><ele>189.0</ele><time>2026-05-03T09:17:21.826Z</time></trkpt><trkpt lat="42.0377913" lon="12.1509161"><ele>189.0</ele><time>2026-05-03T09:17:23.805Z</time></trkpt><trkpt lat="42.0378798" lon="12.1510006"><ele>189.0</ele><time>2026-05-03T09:17:25.815Z</time></trkpt><trkpt lat="42.0379628" lon="12.1510811"><ele>189.0</ele><time>2026-05-03T09:17:27.811Z</time></trkpt><trkpt lat="42.0380417" lon="12.15116"><ele>189.0</ele><time>2026-05-03T09:17:29.819Z</time></trkpt><trkpt lat="42.0381136" lon="12.1512463"><ele>189.0</ele><time>2026-05-03T09:17:31.807Z</time></trkpt><trkpt lat="42.0381792" lon="12.1513144"><ele>189.0</ele><time>2026-05-03T09:17:33.798Z</time></trkpt><trkpt lat="42.0382511" lon="12.1513813"><ele>189.0</ele><time>2026-05-03T09:17:35.809Z</time></trkpt><trkpt lat="42.0383221" lon="12.151448"><ele>189.0</ele><time>2026-05-03T09:17:37.86Z</time></trkpt><trkpt lat="42.0383909" lon="12.1515194"><ele>189.0</ele><time>2026-05-03T09:17:39.788Z</time></trkpt><trkpt lat="42.0384606" lon="12.1515948"><ele>189.0</ele><time>2026-05-03T09:17:41.808Z</time></trkpt><trkpt lat="42.0385318" lon="12.1516648"><ele>189.0</ele><time>2026-05-03T09:17:43.808Z</time></trkpt><trkpt lat="42.0385896" lon="12.1517448"><ele>189.0</ele><time>2026-05-03T09:17:45.8Z</time></trkpt><trkpt lat="42.038648" lon="12.1518271"><ele>189.0</ele><time>2026-05-03T09:17:47.803Z</time></trkpt><trkpt lat="42.0387023" lon="12.1519185"><ele>189.0</ele><time>2026-05-03T09:17:49.789Z</time></trkpt><trkpt lat="42.0387488" lon="12.1520058"><ele>189.0</ele><time>2026-05-03T09:17:51.805Z</time></trkpt><trkpt lat="42.038808" lon="12.1520809"><ele>189.0</ele><time>2026-05-03T09:17:53.792Z</time></trkpt><trkpt lat="42.0388633" lon="12.1521556"><ele>189.0</ele><time>2026-05-03T09:17:55.794Z</time></trkpt><trkpt lat="42.0389242" lon="12.1522235"><ele>189.0</ele><time>2026-05-03T09:17:57.81Z</time></trkpt><trkpt lat="42.0389896" lon="12.1522731"><ele>189.0</ele><time>2026-05-03T09:17:59.8Z</time></trkpt><trkpt lat="42.0390551" lon="12.1523152"><ele>189.0</ele><time>2026-05-03T09:18:01.794Z</time></trkpt><trkpt lat="42.0391226" lon="12.1523543"><ele>189.0</ele><time>2026-05-03T09:18:03.807Z</time></trkpt><trkpt lat="42.0391959" lon="12.1523766"><ele>189.0</ele><time>2026-05-03T09:18:05.798Z</time></trkpt><trkpt lat="42.0392688" lon="12.1523964"><ele>188.83333333333334</ele><time>2026-05-03T09:18:07.802Z</time></trkpt><trkpt lat="42.0393443" lon="12.1524147"><ele>188.66666666666666</ele><time>2026-05-03T09:18:09.801Z</time></trkpt><trkpt lat="42.0394227" lon="12.1524406"><ele>188.5</ele><time>2026-05-03T09:18:11.821Z</time></trkpt><trkpt lat="42.0394978" lon="12.1524681"><ele>188.33333333333331</ele><time>2026-05-03T09:18:13.806Z</time></trkpt><trkpt lat="42.0395767" lon="12.1524935"><ele>188.16666666666666</ele><time>2026-05-03T09:18:15.806Z</time></trkpt><trkpt lat="42.0396555" lon="12.1525298"><ele>188.0</ele><time>2026-05-03T09:18:17.791Z</time></trkpt><trkpt lat="42.0397335" lon="12.1525588"><ele>188.0</ele><time>2026-05-03T09:18:19.797Z</time></trkpt><trkpt lat="42.0398071" lon="12.1525754"><ele>188.0</ele><time>2026-05-03T09:18:21.81Z</time></trkpt><trkpt lat="42.0398833" lon="12.1525901"><ele>188.0</ele><time>2026-05-03T09:18:23.794Z</time></trkpt><trkpt lat="42.0399596" lon="12.1526047"><ele>188.0</ele><time>2026-05-03T09:18:25.803Z</time></trkpt><trkpt lat="42.0400369" lon="12.1526096"><ele>188.0</ele><time>2026-05-03T09:18:27.794Z</time></trkpt><trkpt lat="42.0401172" lon="12.1526131"><ele>188.0</ele><time>2026-05-03T09:18:29.801Z</time></trkpt><trkpt lat="42.0401992" lon="12.1526139"><ele>188.83333333333331</ele><time>2026-05-03T09:18:31.785Z</time></trkpt><trkpt lat="42.0402822" lon="12.1526015"><ele>189.66666666666666</ele><time>2026-05-03T09:18:33.789Z</time></trkpt><trkpt lat="42.0403629" lon="12.1525841"><ele>190.5</ele><time>2026-05-03T09:18:35.809Z</time></trkpt><trkpt lat="42.0404454" lon="12.1525625"><ele>191.33333333333331</ele><time>2026-05-03T09:18:37.782Z</time></trkpt><trkpt lat="42.0405213" lon="12.1525396"><ele>192.16666666666666</ele><time>2026-05-03T09:18:39.782Z</time></trkpt><trkpt lat="42.0405952" lon="12.1525077"><ele>193.0</ele><time>2026-05-03T09:18:41.78Z</time></trkpt><trkpt lat="42.0406789" lon="12.1524888"><ele>192.99999999999997</ele><time>2026-05-03T09:18:43.789Z</time></trkpt><trkpt lat="42.0407582" lon="12.152461"><ele>193.0</ele><time>2026-05-03T09:18:45.79Z</time></trkpt><trkpt lat="42.0408309" lon="12.1524292"><ele>193.0</ele><time>2026-05-03T09:18:47.787Z</time></trkpt><trkpt lat="42.0409048" lon="12.1523952"><ele>193.0</ele><time>2026-05-03T09:18:49.784Z</time></trkpt><trkpt lat="42.0409825" lon="12.1523465"><ele>192.99999999999997</ele><time>2026-05-03T09:18:51.784Z</time></trkpt><trkpt lat="42.0410595" lon="12.152308"><ele>193.0</ele><time>2026-05-03T09:18:53.785Z</time></trkpt><trkpt lat="42.0411272" lon="12.1522566"><ele>193.99999999999997</ele><time>2026-05-03T09:18:55.804Z</time></trkpt><trkpt lat="42.041188" lon="12.1522107"><ele>195.0</ele><time>2026-05-03T09:18:57.802Z</time></trkpt><trkpt lat="42.0412481" lon="12.1521625"><ele>196.0</ele><time>2026-05-03T09:18:59.795Z</time></trkpt><trkpt lat="42.0413221" lon="12.1521171"><ele>197.0</ele><time>2026-05-03T09:19:01.783Z</time></trkpt><trkpt lat="42.0414047" lon="12.1520831"><ele>197.99999999999997</ele><time>2026-05-03T09:19:03.791Z</time></trkpt><trkpt lat="42.0414862" lon="12.1520726"><ele>199.0</ele><time>2026-05-03T09:19:05.788Z</time></trkpt><trkpt lat="42.0415576" lon="12.1520603"><ele>199.14285714285714</ele><time>2026-05-03T09:19:07.813Z</time></trkpt><trkpt lat="42.0416343" lon="12.1520616"><ele>199.28571428571428</ele><time>2026-05-03T09:19:09.802Z</time></trkpt><trkpt lat="42.0417173" lon="12.152058"><ele>199.42857142857144</ele><time>2026-05-03T09:19:11.79Z</time></trkpt><trkpt lat="42.0417956" lon="12.1520564"><ele>199.57142857142856</ele><time>2026-05-03T09:19:13.789Z</time></trkpt><trkpt lat="42.0418648" lon="12.152053"><ele>199.71428571428572</ele><time>2026-05-03T09:19:15.784Z</time></trkpt><trkpt lat="42.041939" lon="12.1520564"><ele>199.85714285714286</ele><time>2026-05-03T09:19:17.8Z</time></trkpt><trkpt lat="42.0420022" lon="12.152055"><ele>200.0</ele><time>2026-05-03T09:19:19.796Z</time></trkpt><trkpt lat="42.042086" lon="12.1520385"><ele>200.00000000000003</ele><time>2026-05-03T09:19:21.782Z</time></trkpt><trkpt lat="42.0421645" lon="12.1520228"><ele>200.0</ele><time>2026-05-03T09:19:23.789Z</time></trkpt><trkpt lat="42.0422498" lon="12.1520408"><ele>200.0</ele><time>2026-05-03T09:19:25.79Z</time></trkpt><trkpt lat="42.0423299" lon="12.1520481"><ele>200.0</ele><time>2026-05-03T09:19:27.807Z</time></trkpt><trkpt lat="42.0424083" lon="12.1520624"><ele>200.00000000000003</ele><time>2026-05-03T09:19:29.808Z</time></trkpt><trkpt lat="42.0424844" lon="12.1520741"><ele>200.0</ele><time>2026-05-03T09:19:31.786Z</time></trkpt><trkpt lat="42.0425506" lon="12.152094"><ele>199.57142857142858</ele><time>2026-05-03T09:19:33.787Z</time></trkpt><trkpt lat="42.0426156" lon="12.1520934"><ele>199.14285714285714</ele><time>2026-05-03T09:19:35.79Z</time></trkpt><trkpt lat="42.0426773" lon="12.1521188"><ele>198.71428571428572</ele><time>2026-05-03T09:19:37.856Z</time></trkpt><trkpt lat="42.0427452" lon="12.1521412"><ele>198.28571428571428</ele><time>2026-05-03T09:19:39.823Z</time></trkpt><trkpt lat="42.0428223" lon="12.1521497"><ele>197.85714285714286</ele><time>2026-05-03T09:19:41.812Z</time></trkpt><trkpt lat="42.0429038" lon="12.1521683"><ele>197.42857142857144</ele><time>2026-05-03T09:19:44.805Z</time></trkpt><trkpt lat="42.0429799" lon="12.1521703"><ele>197.0</ele><time>2026-05-03T09:19:46.803Z</time></trkpt><trkpt lat="42.0430521" lon="12.1521725"><ele>197.0</ele><time>2026-05-03T09:19:48.783Z</time></trkpt><trkpt lat="42.0431197" lon="12.1521764"><ele>197.0</ele><time>2026-05-03T09:19:50.869Z</time></trkpt><trkpt lat="42.0431938" lon="12.1521802"><ele>197.0</ele><time>2026-05-03T09:19:52.81Z</time></trkpt><trkpt lat="42.0432676" lon="12.1521767"><ele>197.0</ele><time>2026-05-03T09:19:54.808Z</time></trkpt><trkpt lat="42.0433395" lon="12.1521707"><ele>197.0</ele><time>2026-05-03T09:19:56.788Z</time></trkpt><trkpt lat="42.0434107" lon="12.1521664"><ele>197.0</ele><time>2026-05-03T09:19:58.806Z</time></trkpt><trkpt lat="42.0434781" lon="12.1521656"><ele>197.0</ele><time>2026-05-03T09:20:00.797Z</time></trkpt><trkpt lat="42.0435478" lon="12.1521517"><ele>197.14285714285714</ele><time>2026-05-03T09:20:02.787Z</time></trkpt><trkpt lat="42.043622" lon="12.1521413"><ele>197.28571428571428</ele><time>2026-05-03T09:20:04.792Z</time></trkpt><trkpt lat="42.043695" lon="12.1521303"><ele>197.42857142857144</ele><time>2026-05-03T09:20:06.807Z</time></trkpt><trkpt lat="42.0437677" lon="12.1521167"><ele>197.57142857142856</ele><time>2026-05-03T09:20:08.794Z</time></trkpt><trkpt lat="42.0438403" lon="12.1521011"><ele>197.7142857142857</ele><time>2026-05-03T09:20:10.783Z</time></trkpt><trkpt lat="42.0439106" lon="12.1520761"><ele>197.85714285714286</ele><time>2026-05-03T09:20:12.794Z</time></trkpt><trkpt lat="42.0439805" lon="12.1520429"><ele>198.0</ele><time>2026-05-03T09:20:14.792Z</time></trkpt><trkpt lat="42.044039" lon="12.1520097"><ele>198.0</ele><time>2026-05-03T09:20:16.782Z</time></trkpt><trkpt lat="42.0441253" lon="12.1519837"><ele>198.0</ele><time>2026-05-03T09:20:19.804Z</time></trkpt><trkpt lat="42.044213" lon="12.1519436"><ele>198.0</ele><time>2026-05-03T09:20:22.835Z</time></trkpt><trkpt lat="42.0442935" lon="12.1518948"><ele>198.0</ele><time>2026-05-03T09:20:25.794Z</time></trkpt><trkpt lat="42.0443508" lon="12.1518557"><ele>198.0</ele><time>2026-05-03T09:20:27.792Z</time></trkpt><trkpt lat="42.0444401" lon="12.1518198"><ele>198.0</ele><time>2026-05-03T09:20:30.791Z</time></trkpt><trkpt lat="42.0445231" lon="12.1517846"><ele>198.83333333333334</ele><time>2026-05-03T09:20:33.798Z</time></trkpt><trkpt lat="42.0446101" lon="12.1517477"><ele>199.66666666666669</ele><time>2026-05-03T09:20:36.797Z</time></trkpt><trkpt lat="42.0446836" lon="12.1517069"><ele>200.5</ele><time>2026-05-03T09:20:39.796Z</time></trkpt><trkpt lat="42.0447653" lon="12.1516596"><ele>201.33333333333334</ele><time>2026-05-03T09:20:42.786Z</time></trkpt><trkpt lat="42.0448257" lon="12.1516286"><ele>202.16666666666669</ele><time>2026-05-03T09:20:44.871Z</time></trkpt><trkpt lat="42.0448808" lon="12.1515816"><ele>203.0</ele><time>2026-05-03T09:20:46.802Z</time></trkpt><trkpt lat="42.0449369" lon="12.1515401"><ele>203.66666666666669</ele><time>2026-05-03T09:20:48.805Z</time></trkpt><trkpt lat="42.0449952" lon="12.1515007"><ele>204.33333333333334</ele><time>2026-05-03T09:20:50.806Z</time></trkpt><trkpt lat="42.0450784" lon="12.1514536"><ele>205.0</ele><time>2026-05-03T09:20:53.783Z</time></trkpt><trkpt lat="42.0451921" lon="12.1514146"><ele>205.66666666666669</ele><time>2026-05-03T09:20:57.847Z</time></trkpt><trkpt lat="42.0452529" lon="12.1513488"><ele>206.33333333333334</ele><time>2026-05-03T09:21:00.804Z</time></trkpt><trkpt lat="42.0453258" lon="12.1512733"><ele>207.0</ele><time>2026-05-03T09:21:03.791Z</time></trkpt><trkpt lat="42.0453968" lon="12.1512079"><ele>207.0</ele><time>2026-05-03T09:21:06.799Z</time></trkpt><trkpt lat="42.0454725" lon="12.1511544"><ele>207.0</ele><time>2026-05-03T09:21:09.81Z</time></trkpt><trkpt lat="42.0455539" lon="12.1510904"><ele>207.0</ele><time>2026-05-03T09:21:12.809Z</time></trkpt><trkpt lat="42.0456292" lon="12.1510299"><ele>207.0</ele><time>2026-05-03T09:21:15.784Z</time></trkpt><trkpt lat="42.04569" lon="12.1509704"><ele>207.0</ele><time>2026-05-03T09:21:17.802Z</time></trkpt><trkpt lat="42.0457601" lon="12.150926"><ele>207.0</ele><time>2026-05-03T09:21:19.824Z</time></trkpt><trkpt lat="42.0458359" lon="12.1508453"><ele>207.0</ele><time>2026-05-03T09:21:21.799Z</time></trkpt><trkpt lat="42.045923" lon="12.150764"><ele>207.0</ele><time>2026-05-03T09:21:23.803Z</time></trkpt><trkpt lat="42.0460089" lon="12.1506965"><ele>207.0</ele><time>2026-05-03T09:21:25.791Z</time></trkpt><trkpt lat="42.046096" lon="12.1506449"><ele>207.0</ele><time>2026-05-03T09:21:27.805Z</time></trkpt><trkpt lat="42.0461921" lon="12.1505986"><ele>207.0</ele><time>2026-05-03T09:21:29.806Z</time></trkpt><trkpt lat="42.0462875" lon="12.1505769"><ele>205.33333333333334</ele><time>2026-05-03T09:21:31.812Z</time></trkpt><trkpt lat="42.0463868" lon="12.1505578"><ele>203.66666666666669</ele><time>2026-05-03T09:21:33.797Z</time></trkpt><trkpt lat="42.0464886" lon="12.1505455"><ele>202.0</ele><time>2026-05-03T09:21:35.812Z</time></trkpt><trkpt lat="42.0465717" lon="12.1505434"><ele>200.33333333333334</ele><time>2026-05-03T09:21:37.804Z</time></trkpt><trkpt lat="42.0466473" lon="12.150533"><ele>198.66666666666669</ele><time>2026-05-03T09:21:39.8Z</time></trkpt><trkpt lat="42.0467198" lon="12.1505354"><ele>197.0</ele><time>2026-05-03T09:21:41.805Z</time></trkpt><trkpt lat="42.0467894" lon="12.1505454"><ele>197.0</ele><time>2026-05-03T09:21:43.799Z</time></trkpt><trkpt lat="42.0468499" lon="12.1505782"><ele>197.0</ele><time>2026-05-03T09:21:45.783Z</time></trkpt><trkpt lat="42.0469129" lon="12.1506218"><ele>197.0</ele><time>2026-05-03T09:21:47.796Z</time></trkpt><trkpt lat="42.0469764" lon="12.1506695"><ele>197.0</ele><time>2026-05-03T09:21:49.799Z</time></trkpt><trkpt lat="42.0470445" lon="12.1507249"><ele>197.0</ele><time>2026-05-03T09:21:51.8Z</time></trkpt><trkpt lat="42.0471054" lon="12.1507776"><ele>197.0</ele><time>2026-05-03T09:21:53.794Z</time></trkpt><trkpt lat="42.0471595" lon="12.1508439"><ele>197.0</ele><time>2026-05-03T09:21:55.799Z</time></trkpt><trkpt lat="42.0472081" lon="12.15091"><ele>198.66666666666669</ele><time>2026-05-03T09:21:57.801Z</time></trkpt><trkpt lat="42.0472636" lon="12.1509636"><ele>200.33333333333334</ele><time>2026-05-03T09:21:59.799Z</time></trkpt><trkpt lat="42.0473175" lon="12.1510292"><ele>202.0</ele><time>2026-05-03T09:22:02.794Z</time></trkpt><trkpt lat="42.0473738" lon="12.151078"><ele>203.66666666666669</ele><time>2026-05-03T09:22:04.792Z</time></trkpt><trkpt lat="42.0474398" lon="12.1511224"><ele>205.33333333333334</ele><time>2026-05-03T09:22:06.786Z</time></trkpt><trkpt lat="42.0475072" lon="12.1512125"><ele>207.0</ele><time>2026-05-03T09:22:09.786Z</time></trkpt><trkpt lat="42.047575" lon="12.1512986"><ele>207.66666666666666</ele><time>2026-05-03T09:22:12.793Z</time></trkpt><trkpt lat="42.0476482" lon="12.1513708"><ele>208.33333333333331</ele><time>2026-05-03T09:22:15.795Z</time></trkpt><trkpt lat="42.0477149" lon="12.1514025"><ele>209.0</ele><time>2026-05-03T09:22:17.84Z</time></trkpt><trkpt lat="42.0477861" lon="12.1514232"><ele>209.66666666666666</ele><time>2026-05-03T09:22:19.794Z</time></trkpt><trkpt lat="42.0478499" lon="12.1514369"><ele>210.33333333333331</ele><time>2026-05-03T09:22:21.806Z</time></trkpt><trkpt lat="42.0479412" lon="12.1514465"><ele>211.0</ele><time>2026-05-03T09:22:24.797Z</time></trkpt><trkpt lat="42.0480264" lon="12.151448"><ele>210.99999999999997</ele><time>2026-05-03T09:22:27.808Z</time></trkpt><trkpt lat="42.0481249" lon="12.1514376"><ele>211.0</ele><time>2026-05-03T09:22:31.813Z</time></trkpt><trkpt lat="42.0482151" lon="12.1514301"><ele>211.0</ele><time>2026-05-03T09:22:34.785Z</time></trkpt><trkpt lat="42.0482962" lon="12.1514086"><ele>211.0</ele><time>2026-05-03T09:22:37.794Z</time></trkpt><trkpt lat="42.0483792" lon="12.1514079"><ele>210.99999999999997</ele><time>2026-05-03T09:22:40.807Z</time></trkpt><trkpt lat="42.0484654" lon="12.1514253"><ele>211.0</ele><time>2026-05-03T09:22:43.8Z</time></trkpt><trkpt lat="42.0485414" lon="12.1514097"><ele>212.16666666666666</ele><time>2026-05-03T09:22:46.799Z</time></trkpt><trkpt lat="42.0486241" lon="12.1513881"><ele>213.33333333333331</ele><time>2026-05-03T09:22:49.806Z</time></trkpt><trkpt lat="42.0486954" lon="12.1513786"><ele>214.5</ele><time>2026-05-03T09:22:52.805Z</time></trkpt><trkpt lat="42.0487676" lon="12.1513448"><ele>215.66666666666669</ele><time>2026-05-03T09:22:55.793Z</time></trkpt><trkpt lat="42.0488434" lon="12.1512959"><ele>216.83333333333334</ele><time>2026-05-03T09:22:58.79Z</time></trkpt><trkpt lat="42.0489213" lon="12.1512477"><ele>218.0</ele><time>2026-05-03T09:23:01.807Z</time></trkpt><trkpt lat="42.0489926" lon="12.151186"><ele>218.0</ele><time>2026-05-03T09:23:04.803Z</time></trkpt><trkpt lat="42.0490521" lon="12.1511484"><ele>218.0</ele><time>2026-05-03T09:23:07.807Z</time></trkpt><trkpt lat="42.0491151" lon="12.1511043"><ele>218.0</ele><time>2026-05-03T09:23:10.8Z</time></trkpt><trkpt lat="42.0491961" lon="12.1510557"><ele>218.0</ele><time>2026-05-03T09:23:13.81Z</time></trkpt><trkpt lat="42.0492773" lon="12.1510192"><ele>218.0</ele><time>2026-05-03T09:23:16.795Z</time></trkpt><trkpt lat="42.0493377" lon="12.1509877"><ele>218.0</ele><time>2026-05-03T09:23:18.81Z</time></trkpt><trkpt lat="42.0494" lon="12.1509634"><ele>218.0</ele><time>2026-05-03T09:23:20.798Z</time></trkpt><trkpt lat="42.0494628" lon="12.1509421"><ele>217.57142857142858</ele><time>2026-05-03T09:23:22.786Z</time></trkpt><trkpt lat="42.0495325" lon="12.1509097"><ele>217.14285714285717</ele><time>2026-05-03T09:23:24.792Z</time></trkpt><trkpt lat="42.0496021" lon="12.150878"><ele>216.71428571428572</ele><time>2026-05-03T09:23:26.804Z</time></trkpt><trkpt lat="42.0496861" lon="12.1508717"><ele>216.28571428571428</ele><time>2026-05-03T09:23:28.805Z</time></trkpt><trkpt lat="42.04975" lon="12.1508743"><ele>215.85714285714286</ele><time>2026-05-03T09:23:30.806Z</time></trkpt><trkpt lat="42.0498151" lon="12.1508768"><ele>215.42857142857142</ele><time>2026-05-03T09:23:32.806Z</time></trkpt><trkpt lat="42.0498808" lon="12.1508751"><ele>215.0</ele><time>2026-05-03T09:23:34.807Z</time></trkpt><trkpt lat="42.0499464" lon="12.1508707"><ele>215.42857142857142</ele><time>2026-05-03T09:23:36.804Z</time></trkpt><trkpt lat="42.050012" lon="12.1508557"><ele>215.85714285714286</ele><time>2026-05-03T09:23:38.796Z</time></trkpt><trkpt lat="42.0500773" lon="12.1508279"><ele>216.28571428571428</ele><time>2026-05-03T09:23:40.802Z</time></trkpt><trkpt lat="42.0501371" lon="12.150784"><ele>216.71428571428572</ele><time>2026-05-03T09:23:42.793Z</time></trkpt><trkpt lat="42.0501926" lon="12.1507397"><ele>217.14285714285717</ele><time>2026-05-03T09:23:44.8Z</time></trkpt><trkpt lat="42.0502521" lon="12.1506931"><ele>217.57142857142858</ele><time>2026-05-03T09:23:46.788Z</time></trkpt><trkpt lat="42.0503068" lon="12.1506449"><ele>218.0</ele><time>2026-05-03T09:23:48.791Z</time></trkpt><trkpt lat="42.0503782" lon="12.1505829"><ele>218.14285714285714</ele><time>2026-05-03T09:23:51.789Z</time></trkpt><trkpt lat="42.0504331" lon="12.1505373"><ele>218.28571428571428</ele><time>2026-05-03T09:23:53.876Z</time></trkpt><trkpt lat="42.0504926" lon="12.1504757"><ele>218.42857142857144</ele><time>2026-05-03T09:23:56.786Z</time></trkpt><trkpt lat="42.0505514" lon="12.1504174"><ele>218.57142857142856</ele><time>2026-05-03T09:23:59.793Z</time></trkpt><trkpt lat="42.05061" lon="12.150357"><ele>218.7142857142857</ele><time>2026-05-03T09:24:02.794Z</time></trkpt><trkpt lat="42.0506687" lon="12.1502706"><ele>218.85714285714286</ele><time>2026-05-03T09:24:05.791Z</time></trkpt><trkpt lat="42.0507082" lon="12.1502035"><ele>219.0</ele><time>2026-05-03T09:24:07.795Z</time></trkpt><trkpt lat="42.05075" lon="12.1501195"><ele>218.85714285714286</ele><time>2026-05-03T09:24:10.796Z</time></trkpt><trkpt lat="42.0507931" lon="12.1500536"><ele>218.7142857142857</ele><time>2026-05-03T09:24:12.802Z</time></trkpt><trkpt lat="42.0508445" lon="12.1500019"><ele>218.57142857142856</ele><time>2026-05-03T09:24:14.806Z</time></trkpt><trkpt lat="42.0509056" lon="12.1499388"><ele>218.42857142857144</ele><time>2026-05-03T09:24:17.809Z</time></trkpt><trkpt lat="42.0509842" lon="12.1498748"><ele>218.28571428571428</ele><time>2026-05-03T09:24:20.79Z</time></trkpt><trkpt lat="42.0510377" lon="12.1498261"><ele>218.14285714285714</ele><time>2026-05-03T09:24:22.794Z</time></trkpt><trkpt lat="42.0510896" lon="12.1497717"><ele>218.0</ele><time>2026-05-03T09:24:24.793Z</time></trkpt><trkpt lat="42.0511471" lon="12.1497206"><ele>218.0</ele><time>2026-05-03T09:24:26.791Z</time></trkpt><trkpt lat="42.0511965" lon="12.1496589"><ele>218.0</ele><time>2026-05-03T09:24:28.797Z</time></trkpt><trkpt lat="42.0512655" lon="12.1495887"><ele>218.0</ele><time>2026-05-03T09:24:31.817Z</time></trkpt><trkpt lat="42.0513302" lon="12.1495641"><ele>218.0</ele><time>2026-05-03T09:24:33.872Z</time></trkpt><trkpt lat="42.0513926" lon="12.1495321"><ele>218.0</ele><time>2026-05-03T09:24:35.806Z</time></trkpt><trkpt lat="42.0514578" lon="12.1494992"><ele>218.0</ele><time>2026-05-03T09:24:37.806Z</time></trkpt><trkpt lat="42.051544" lon="12.1494742"><ele>218.0</ele><time>2026-05-03T09:24:40.79Z</time></trkpt><trkpt lat="42.0516025" lon="12.1494401"><ele>218.83333333333334</ele><time>2026-05-03T09:24:43.794Z</time></trkpt><trkpt lat="42.0516846" lon="12.1494022"><ele>219.66666666666669</ele><time>2026-05-03T09:24:46.807Z</time></trkpt><trkpt lat="42.0517464" lon="12.1493802"><ele>220.5</ele><time>2026-05-03T09:24:48.807Z</time></trkpt><trkpt lat="42.0518147" lon="12.1493811"><ele>221.33333333333331</ele><time>2026-05-03T09:24:50.8Z</time></trkpt><trkpt lat="42.0518877" lon="12.1493796"><ele>222.16666666666666</ele><time>2026-05-03T09:24:52.794Z</time></trkpt><trkpt lat="42.0519823" lon="12.149396"><ele>223.0</ele><time>2026-05-03T09:24:55.808Z</time></trkpt><trkpt lat="42.0520767" lon="12.149397"><ele>222.99999999999997</ele><time>2026-05-03T09:24:58.809Z</time></trkpt><trkpt lat="42.052142" lon="12.1494008"><ele>223.0</ele><time>2026-05-03T09:25:00.785Z</time></trkpt><trkpt lat="42.0522275" lon="12.1494022"><ele>223.0</ele><time>2026-05-03T09:25:03.787Z</time></trkpt><trkpt lat="42.0523199" lon="12.1494132"><ele>223.0</ele><time>2026-05-03T09:25:06.786Z</time></trkpt><trkpt lat="42.052408" lon="12.1493996"><ele>222.99999999999997</ele><time>2026-05-03T09:25:09.811Z</time></trkpt><trkpt lat="42.0524877" lon="12.1493811"><ele>223.0</ele><time>2026-05-03T09:25:12.804Z</time></trkpt><trkpt lat="42.0525543" lon="12.1493817"><ele>223.66666666666666</ele><time>2026-05-03T09:25:14.796Z</time></trkpt><trkpt lat="42.0526331" lon="12.149374"><ele>224.33333333333331</ele><time>2026-05-03T09:25:17.799Z</time></trkpt><trkpt lat="42.0526972" lon="12.1493834"><ele>225.0</ele><time>2026-05-03T09:25:19.802Z</time></trkpt><trkpt lat="42.0527806" lon="12.14941"><ele>225.66666666666669</ele><time>2026-05-03T09:25:22.809Z</time></trkpt><trkpt lat="42.0528684" lon="12.1494477"><ele>226.33333333333334</ele><time>2026-05-03T09:25:25.799Z</time></trkpt><trkpt lat="42.052927" lon="12.1494872"><ele>227.0</ele><time>2026-05-03T09:25:27.806Z</time></trkpt><trkpt lat="42.0529833" lon="12.1495316"><ele>227.00000000000003</ele><time>2026-05-03T09:25:29.797Z</time></trkpt><trkpt lat="42.0530398" lon="12.149589"><ele>227.0</ele><time>2026-05-03T09:25:31.799Z</time></trkpt><trkpt lat="42.0530988" lon="12.1496291"><ele>227.0</ele><time>2026-05-03T09:25:33.786Z</time></trkpt><trkpt lat="42.0531684" lon="12.1497025"><ele>227.0</ele><time>2026-05-03T09:25:36.794Z</time></trkpt><trkpt lat="42.0532441" lon="12.1497586"><ele>227.00000000000003</ele><time>2026-05-03T09:25:39.799Z</time></trkpt><trkpt lat="42.0533173" lon="12.1498153"><ele>227.0</ele><time>2026-05-03T09:25:42.807Z</time></trkpt><trkpt lat="42.0534004" lon="12.1498592"><ele>227.2857142857143</ele><time>2026-05-03T09:25:45.796Z</time></trkpt><trkpt lat="42.053482" lon="12.1498909"><ele>227.5714285714286</ele><time>2026-05-03T09:25:48.801Z</time></trkpt><trkpt lat="42.0535637" lon="12.1499046"><ele>227.85714285714286</ele><time>2026-05-03T09:25:51.788Z</time></trkpt><trkpt lat="42.0536267" lon="12.149891"><ele>228.14285714285717</ele><time>2026-05-03T09:25:54.806Z</time></trkpt><trkpt lat="42.053694" lon="12.149889"><ele>228.42857142857144</ele><time>2026-05-03T09:25:56.792Z</time></trkpt><trkpt lat="42.0537595" lon="12.149908"><ele>228.71428571428572</ele><time>2026-05-03T09:25:58.792Z</time></trkpt><trkpt lat="42.0538181" lon="12.1498576"><ele>229.0</ele><time>2026-05-03T09:26:26.784Z</time></trkpt><trkpt lat="42.0538804" lon="12.1498104"><ele>229.0</ele><time>2026-05-03T09:26:30.783Z</time></trkpt><trkpt lat="42.0539635" lon="12.1497809"><ele>229.0</ele><time>2026-05-03T09:26:33.785Z</time></trkpt><trkpt lat="42.0540308" lon="12.1497475"><ele>229.0</ele><time>2026-05-03T09:26:35.788Z</time></trkpt><trkpt lat="42.0540929" lon="12.1496999"><ele>229.0</ele><time>2026-05-03T09:26:37.783Z</time></trkpt><trkpt lat="42.0541599" lon="12.1496652"><ele>229.0</ele><time>2026-05-03T09:26:39.786Z</time></trkpt><trkpt lat="42.0542291" lon="12.1496323"><ele>229.0</ele><time>2026-05-03T09:26:41.783Z</time></trkpt><trkpt lat="42.0543008" lon="12.1496069"><ele>229.0</ele><time>2026-05-03T09:26:43.79Z</time></trkpt><trkpt lat="42.0543676" lon="12.1495684"><ele>228.6</ele><time>2026-05-03T09:26:45.782Z</time></trkpt><trkpt lat="42.0544504" lon="12.1495488"><ele>228.2</ele><time>2026-05-03T09:26:47.787Z</time></trkpt><trkpt lat="42.0545405" lon="12.1495244"><ele>227.79999999999998</ele><time>2026-05-03T09:26:49.789Z</time></trkpt><trkpt lat="42.0546245" lon="12.1494923"><ele>227.39999999999998</ele><time>2026-05-03T09:26:51.785Z</time></trkpt><trkpt lat="42.0547171" lon="12.149463"><ele>227.0</ele><time>2026-05-03T09:26:53.781Z</time></trkpt><trkpt lat="42.0548078" lon="12.1494336"><ele>227.00000000000003</ele><time>2026-05-03T09:26:55.781Z</time></trkpt><trkpt lat="42.0548919" lon="12.1494107"><ele>227.0</ele><time>2026-05-03T09:26:57.782Z</time></trkpt><trkpt lat="42.0549769" lon="12.1493985"><ele>227.0</ele><time>2026-05-03T09:26:59.78Z</time></trkpt><trkpt lat="42.0550658" lon="12.1493948"><ele>227.0</ele><time>2026-05-03T09:27:01.782Z</time></trkpt><trkpt lat="42.0551441" lon="12.1494112"><ele>227.00000000000003</ele><time>2026-05-03T09:27:03.784Z</time></trkpt><trkpt lat="42.0552296" lon="12.1494055"><ele>227.0</ele><time>2026-05-03T09:27:05.783Z</time></trkpt><trkpt lat="42.0553127" lon="12.1493928"><ele>226.50000000000003</ele><time>2026-05-03T09:27:07.784Z</time></trkpt><trkpt lat="42.0553905" lon="12.1494172"><ele>226.0</ele><time>2026-05-03T09:27:09.785Z</time></trkpt><trkpt lat="42.055467" lon="12.1494484"><ele>225.5</ele><time>2026-05-03T09:27:11.783Z</time></trkpt><trkpt lat="42.0555421" lon="12.1494821"><ele>225.0</ele><time>2026-05-03T09:27:13.781Z</time></trkpt><trkpt lat="42.0556212" lon="12.1495095"><ele>224.50000000000003</ele><time>2026-05-03T09:27:15.784Z</time></trkpt><trkpt lat="42.0557114" lon="12.1495587"><ele>224.0</ele><time>2026-05-03T09:27:17.783Z</time></trkpt><trkpt lat="42.0558007" lon="12.1495951"><ele>223.50000000000003</ele><time>2026-05-03T09:27:19.783Z</time></trkpt><trkpt lat="42.0558755" lon="12.1496439"><ele>223.0</ele><time>2026-05-03T09:27:21.783Z</time></trkpt><trkpt lat="42.055956" lon="12.1496871"><ele>222.5</ele><time>2026-05-03T09:27:23.786Z</time></trkpt><trkpt lat="42.0560441" lon="12.149708"><ele>222.0</ele><time>2026-05-03T09:27:25.785Z</time></trkpt><trkpt lat="42.0561402" lon="12.1497065"><ele>221.50000000000003</ele><time>2026-05-03T09:27:27.784Z</time></trkpt><trkpt lat="42.0562317" lon="12.1496883"><ele>221.0</ele><time>2026-05-03T09:27:29.782Z</time></trkpt><trkpt lat="42.0563133" lon="12.149651"><ele>221.00000000000003</ele><time>2026-05-03T09:27:31.784Z</time></trkpt><trkpt lat="42.0563932" lon="12.1496113"><ele>221.0</ele><time>2026-05-03T09:27:33.788Z</time></trkpt><trkpt lat="42.0564749" lon="12.1495789"><ele>221.0</ele><time>2026-05-03T09:27:35.783Z</time></trkpt><trkpt lat="42.056559" lon="12.1495458"><ele>221.0</ele><time>2026-05-03T09:27:37.786Z</time></trkpt><trkpt lat="42.0566435" lon="12.1495187"><ele>221.00000000000003</ele><time>2026-05-03T09:27:39.787Z</time></trkpt><trkpt lat="42.056724" lon="12.1495001"><ele>221.0</ele><time>2026-05-03T09:27:41.783Z</time></trkpt><trkpt lat="42.0568041" lon="12.1494863"><ele>221.83333333333334</ele><time>2026-05-03T09:27:43.783Z</time></trkpt><trkpt lat="42.0568858" lon="12.1494689"><ele>222.66666666666669</ele><time>2026-05-03T09:27:45.786Z</time></trkpt><trkpt lat="42.0569671" lon="12.1494483"><ele>223.5</ele><time>2026-05-03T09:27:47.786Z</time></trkpt><trkpt lat="42.0570488" lon="12.1494375"><ele>224.33333333333331</ele><time>2026-05-03T09:27:49.783Z</time></trkpt><trkpt lat="42.0571345" lon="12.1494255"><ele>225.16666666666666</ele><time>2026-05-03T09:27:51.79Z</time></trkpt><trkpt lat="42.0572138" lon="12.1494232"><ele>226.0</ele><time>2026-05-03T09:27:53.784Z</time></trkpt><trkpt lat="42.0572961" lon="12.1494198"><ele>225.99999999999997</ele><time>2026-05-03T09:27:55.782Z</time></trkpt><trkpt lat="42.0573795" lon="12.1494233"><ele>226.0</ele><time>2026-05-03T09:27:57.783Z</time></trkpt><trkpt lat="42.0574538" lon="12.1494303"><ele>226.0</ele><time>2026-05-03T09:27:59.784Z</time></trkpt><trkpt lat="42.057535" lon="12.1494322"><ele>226.0</ele><time>2026-05-03T09:28:01.785Z</time></trkpt><trkpt lat="42.0576182" lon="12.1494283"><ele>225.99999999999997</ele><time>2026-05-03T09:28:03.783Z</time></trkpt><trkpt lat="42.0576999" lon="12.1494299"><ele>226.0</ele><time>2026-05-03T09:28:05.782Z</time></trkpt><trkpt lat="42.0577832" lon="12.1494296"><ele>226.60000000000002</ele><time>2026-05-03T09:28:07.786Z</time></trkpt><trkpt lat="42.0578691" lon="12.1494147"><ele>227.20000000000002</ele><time>2026-05-03T09:28:09.784Z</time></trkpt><trkpt lat="42.0579546" lon="12.1493887"><ele>227.79999999999998</ele><time>2026-05-03T09:28:11.781Z</time></trkpt><trkpt lat="42.0580429" lon="12.1493676"><ele>228.39999999999998</ele><time>2026-05-03T09:28:13.782Z</time></trkpt><trkpt lat="42.05814" lon="12.1493496"><ele>229.0</ele><time>2026-05-03T09:28:15.788Z</time></trkpt><trkpt lat="42.0582299" lon="12.1493133"><ele>229.0</ele><time>2026-05-03T09:28:17.785Z</time></trkpt><trkpt lat="42.0583253" lon="12.1492854"><ele>228.99999999999997</ele><time>2026-05-03T09:28:19.786Z</time></trkpt><trkpt lat="42.0584156" lon="12.1492409"><ele>228.99999999999997</ele><time>2026-05-03T09:28:21.781Z</time></trkpt><trkpt lat="42.0584963" lon="12.1492033"><ele>229.0</ele><time>2026-05-03T09:28:23.782Z</time></trkpt><trkpt lat="42.0585703" lon="12.1491797"><ele>229.0</ele><time>2026-05-03T09:28:25.784Z</time></trkpt><trkpt lat="42.0586671" lon="12.1491507"><ele>229.0</ele><time>2026-05-03T09:28:28.788Z</time></trkpt><trkpt lat="42.0587426" lon="12.1491507"><ele>229.0</ele><time>2026-05-03T09:28:30.779Z</time></trkpt><trkpt lat="42.0588123" lon="12.1491526"><ele>229.0</ele><time>2026-05-03T09:28:32.787Z</time></trkpt><trkpt lat="42.0588823" lon="12.1491448"><ele>229.0</ele><time>2026-05-03T09:28:34.785Z</time></trkpt><trkpt lat="42.0589522" lon="12.1491377"><ele>229.0</ele><time>2026-05-03T09:28:36.786Z</time></trkpt><trkpt lat="42.0590232" lon="12.1491314"><ele>229.0</ele><time>2026-05-03T09:28:38.783Z</time></trkpt><trkpt lat="42.0590964" lon="12.1491306"><ele>229.0</ele><time>2026-05-03T09:28:40.784Z</time></trkpt><trkpt lat="42.0591718" lon="12.1491328"><ele>228.99999999999997</ele><time>2026-05-03T09:28:42.788Z</time></trkpt><trkpt lat="42.0592492" lon="12.1491358"><ele>229.0</ele><time>2026-05-03T09:28:44.781Z</time></trkpt><trkpt lat="42.0593297" lon="12.1491427"><ele>229.0</ele><time>2026-05-03T09:28:46.781Z</time></trkpt><trkpt lat="42.0594076" lon="12.1491486"><ele>229.0</ele><time>2026-05-03T09:28:48.782Z</time></trkpt><trkpt lat="42.0594852" lon="12.1491525"><ele>228.99999999999997</ele><time>2026-05-03T09:28:50.784Z</time></trkpt><trkpt lat="42.0595607" lon="12.1491396"><ele>229.0</ele><time>2026-05-03T09:28:52.781Z</time></trkpt><trkpt lat="42.0596325" lon="12.1491099"><ele>228.99999999999997</ele><time>2026-05-03T09:28:54.787Z</time></trkpt><trkpt lat="42.0596999" lon="12.1490621"><ele>229.0</ele><time>2026-05-03T09:28:56.787Z</time></trkpt><trkpt lat="42.0597621" lon="12.1490023"><ele>229.0</ele><time>2026-05-03T09:28:58.783Z</time></trkpt><trkpt lat="42.0598202" lon="12.1489455"><ele>229.0</ele><time>2026-05-03T09:29:00.785Z</time></trkpt><trkpt lat="42.0598871" lon="12.148898"><ele>228.99999999999997</ele><time>2026-05-03T09:29:02.782Z</time></trkpt><trkpt lat="42.0599504" lon="12.1488459"><ele>229.0</ele><time>2026-05-03T09:29:04.786Z</time></trkpt><trkpt lat="42.0600142" lon="12.1487917"><ele>230.0</ele><time>2026-05-03T09:29:06.782Z</time></trkpt><trkpt lat="42.0600804" lon="12.1487434"><ele>231.0</ele><time>2026-05-03T09:29:08.783Z</time></trkpt><trkpt lat="42.0601442" lon="12.1486947"><ele>232.0</ele><time>2026-05-03T09:29:10.783Z</time></trkpt><trkpt lat="42.0602059" lon="12.1486446"><ele>233.0</ele><time>2026-05-03T09:29:12.781Z</time></trkpt><trkpt lat="42.0602682" lon="12.1485951"><ele>234.0</ele><time>2026-05-03T09:29:14.786Z</time></trkpt><trkpt lat="42.0603292" lon="12.1485471"><ele>235.0</ele><time>2026-05-03T09:29:16.782Z</time></trkpt><trkpt lat="42.06039" lon="12.1485004"><ele>236.0</ele><time>2026-05-03T09:29:18.785Z</time></trkpt><trkpt lat="42.060449" lon="12.1484511"><ele>236.0</ele><time>2026-05-03T09:29:20.783Z</time></trkpt><trkpt lat="42.0605093" lon="12.1484031"><ele>236.0</ele><time>2026-05-03T09:29:22.782Z</time></trkpt><trkpt lat="42.0605714" lon="12.1483616"><ele>236.0</ele><time>2026-05-03T09:29:24.789Z</time></trkpt><trkpt lat="42.0606265" lon="12.1483161"><ele>236.0</ele><time>2026-05-03T09:29:26.784Z</time></trkpt><trkpt lat="42.06068" lon="12.1482713"><ele>236.0</ele><time>2026-05-03T09:29:28.788Z</time></trkpt><trkpt lat="42.060737" lon="12.1482284"><ele>236.0</ele><time>2026-05-03T09:29:30.784Z</time></trkpt><trkpt lat="42.0607924" lon="12.1481867"><ele>236.0</ele><time>2026-05-03T09:29:32.786Z</time></trkpt><trkpt lat="42.0608666" lon="12.1481281"><ele>236.83333333333334</ele><time>2026-05-03T09:29:35.782Z</time></trkpt><trkpt lat="42.0609407" lon="12.1480832"><ele>237.66666666666669</ele><time>2026-05-03T09:29:38.779Z</time></trkpt><trkpt lat="42.0610215" lon="12.1480477"><ele>238.5</ele><time>2026-05-03T09:29:41.781Z</time></trkpt><trkpt lat="42.0610928" lon="12.1480083"><ele>239.33333333333331</ele><time>2026-05-03T09:29:44.782Z</time></trkpt><trkpt lat="42.0611683" lon="12.1479559"><ele>240.16666666666666</ele><time>2026-05-03T09:29:47.782Z</time></trkpt><trkpt lat="42.0612453" lon="12.1479005"><ele>241.0</ele><time>2026-05-03T09:29:50.781Z</time></trkpt><trkpt lat="42.061321" lon="12.1478414"><ele>241.0</ele><time>2026-05-03T09:29:53.782Z</time></trkpt><trkpt lat="42.0613933" lon="12.147783"><ele>241.00000000000003</ele><time>2026-05-03T09:29:56.783Z</time></trkpt><trkpt lat="42.0614648" lon="12.1477369"><ele>241.0</ele><time>2026-05-03T09:29:59.784Z</time></trkpt><trkpt lat="42.0615209" lon="12.1476949"><ele>241.0</ele><time>2026-05-03T09:30:01.783Z</time></trkpt><trkpt lat="42.0615853" lon="12.1476534"><ele>241.00000000000003</ele><time>2026-05-03T09:30:03.786Z</time></trkpt><trkpt lat="42.0616498" lon="12.1476081"><ele>241.0</ele><time>2026-05-03T09:30:05.781Z</time></trkpt><trkpt lat="42.0617143" lon="12.1475682"><ele>241.0</ele><time>2026-05-03T09:30:07.789Z</time></trkpt><trkpt lat="42.0617753" lon="12.1475373"><ele>241.16666666666666</ele><time>2026-05-03T09:30:09.782Z</time></trkpt><trkpt lat="42.0618341" lon="12.1474959"><ele>241.33333333333331</ele><time>2026-05-03T09:30:11.785Z</time></trkpt><trkpt lat="42.0618971" lon="12.1474597"><ele>241.5</ele><time>2026-05-03T09:30:13.782Z</time></trkpt><trkpt lat="42.0619661" lon="12.1474236"><ele>241.66666666666669</ele><time>2026-05-03T09:30:15.781Z</time></trkpt><trkpt lat="42.0620435" lon="12.1473855"><ele>241.83333333333334</ele><time>2026-05-03T09:30:17.781Z</time></trkpt><trkpt lat="42.062118" lon="12.1473454"><ele>242.0</ele><time>2026-05-03T09:30:19.78Z</time></trkpt><trkpt lat="42.062191" lon="12.1473067"><ele>242.0</ele><time>2026-05-03T09:30:21.784Z</time></trkpt><trkpt lat="42.0622643" lon="12.1472751"><ele>241.99999999999997</ele><time>2026-05-03T09:30:23.788Z</time></trkpt><trkpt lat="42.0623326" lon="12.1472299"><ele>242.0</ele><time>2026-05-03T09:30:25.783Z</time></trkpt><trkpt lat="42.0624021" lon="12.1471853"><ele>242.0</ele><time>2026-05-03T09:30:27.786Z</time></trkpt><trkpt lat="42.0624697" lon="12.1471386"><ele>241.99999999999997</ele><time>2026-05-03T09:30:29.782Z</time></trkpt><trkpt lat="42.0625317" lon="12.1470888"><ele>242.0</ele><time>2026-05-03T09:30:31.781Z</time></trkpt><trkpt lat="42.0625904" lon="12.1470484"><ele>242.0</ele><time>2026-05-03T09:30:33.781Z</time></trkpt><trkpt lat="42.0626678" lon="12.1469773"><ele>241.50000000000003</ele><time>2026-05-03T09:30:36.784Z</time></trkpt><trkpt lat="42.0627364" lon="12.1468982"><ele>241.0</ele><time>2026-05-03T09:30:39.783Z</time></trkpt><trkpt lat="42.0627565" lon="12.1467476"><ele>240.5</ele><time>2026-05-03T09:32:20.781Z</time></trkpt><trkpt lat="42.062698" lon="12.1467974"><ele>240.0</ele><time>2026-05-03T09:32:30.782Z</time></trkpt><trkpt lat="42.06267" lon="12.1468904"><ele>239.50000000000003</ele><time>2026-05-03T09:32:32.782Z</time></trkpt><trkpt lat="42.06262" lon="12.1469594"><ele>239.0</ele><time>2026-05-03T09:32:34.789Z</time></trkpt><trkpt lat="42.0625684" lon="12.1470219"><ele>239.00000000000003</ele><time>2026-05-03T09:32:36.788Z</time></trkpt><trkpt lat="42.06251" lon="12.1470765"><ele>239.0</ele><time>2026-05-03T09:32:38.784Z</time></trkpt><trkpt lat="42.0624532" lon="12.1471271"><ele>239.00000000000003</ele><time>2026-05-03T09:32:40.782Z</time></trkpt><trkpt lat="42.0623929" lon="12.1471721"><ele>239.00000000000003</ele><time>2026-05-03T09:32:42.784Z</time></trkpt><trkpt lat="42.0623276" lon="12.1472162"><ele>239.0</ele><time>2026-05-03T09:32:44.781Z</time></trkpt><trkpt lat="42.0622602" lon="12.1472566"><ele>239.00000000000003</ele><time>2026-05-03T09:32:46.784Z</time></trkpt><trkpt lat="42.0621971" lon="12.1472984"><ele>239.00000000000003</ele><time>2026-05-03T09:32:48.783Z</time></trkpt><trkpt lat="42.0621254" lon="12.1473445"><ele>239.50000000000003</ele><time>2026-05-03T09:32:50.784Z</time></trkpt><trkpt lat="42.0620544" lon="12.1473852"><ele>240.0</ele><time>2026-05-03T09:32:52.78Z</time></trkpt><trkpt lat="42.0619837" lon="12.1474257"><ele>240.5</ele><time>2026-05-03T09:32:54.786Z</time></trkpt><trkpt lat="42.0619158" lon="12.1474667"><ele>241.0</ele><time>2026-05-03T09:32:56.782Z</time></trkpt><trkpt lat="42.0618443" lon="12.1475064"><ele>241.50000000000003</ele><time>2026-05-03T09:32:58.783Z</time></trkpt><trkpt lat="42.0617741" lon="12.1475478"><ele>242.0</ele><time>2026-05-03T09:33:00.782Z</time></trkpt><trkpt lat="42.0617051" lon="12.1475884"><ele>242.00000000000003</ele><time>2026-05-03T09:33:02.799Z</time></trkpt><trkpt lat="42.0616366" lon="12.1476259"><ele>242.0</ele><time>2026-05-03T09:33:04.78Z</time></trkpt><trkpt lat="42.0615701" lon="12.1476792"><ele>242.0</ele><time>2026-05-03T09:33:06.79Z</time></trkpt><trkpt lat="42.0615027" lon="12.1477281"><ele>242.0</ele><time>2026-05-03T09:33:08.784Z</time></trkpt><trkpt lat="42.0614392" lon="12.1477718"><ele>242.00000000000003</ele><time>2026-05-03T09:33:10.782Z</time></trkpt><trkpt lat="42.0613673" lon="12.1478203"><ele>242.0</ele><time>2026-05-03T09:33:12.791Z</time></trkpt><trkpt lat="42.0612854" lon="12.1478844"><ele>241.8</ele><time>2026-05-03T09:33:14.78Z</time></trkpt><trkpt lat="42.0611976" lon="12.147952"><ele>241.6</ele><time>2026-05-03T09:33:16.78Z</time></trkpt><trkpt lat="42.061102" lon="12.1480103"><ele>241.40000000000003</ele><time>2026-05-03T09:33:18.783Z</time></trkpt><trkpt lat="42.0610099" lon="12.1480583"><ele>241.20000000000002</ele><time>2026-05-03T09:33:20.794Z</time></trkpt><trkpt lat="42.0609145" lon="12.148105"><ele>241.0</ele><time>2026-05-03T09:33:22.784Z</time></trkpt><trkpt lat="42.0608154" lon="12.148158"><ele>240.0</ele><time>2026-05-03T09:33:24.783Z</time></trkpt><trkpt lat="42.0607164" lon="12.1482376"><ele>239.00000000000003</ele><time>2026-05-03T09:33:26.783Z</time></trkpt><trkpt lat="42.0606114" lon="12.1483212"><ele>238.00000000000003</ele><time>2026-05-03T09:33:28.78Z</time></trkpt><trkpt lat="42.060559" lon="12.1483693"><ele>237.0</ele><time>2026-05-03T09:33:29.785Z</time></trkpt><trkpt lat="42.0604575" lon="12.1484478"><ele>236.0</ele><time>2026-05-03T09:33:31.784Z</time></trkpt><trkpt lat="42.0603576" lon="12.1485308"><ele>236.0</ele><time>2026-05-03T09:33:33.782Z</time></trkpt><trkpt lat="42.0602546" lon="12.1486081"><ele>236.0</ele><time>2026-05-03T09:33:35.781Z</time></trkpt><trkpt lat="42.0601599" lon="12.1486938"><ele>236.0</ele><time>2026-05-03T09:33:37.783Z</time></trkpt><trkpt lat="42.0600612" lon="12.1487802"><ele>236.0</ele><time>2026-05-03T09:33:39.783Z</time></trkpt><trkpt lat="42.0599629" lon="12.1488465"><ele>234.8</ele><time>2026-05-03T09:33:41.781Z</time></trkpt><trkpt lat="42.0598665" lon="12.1489199"><ele>233.60000000000002</ele><time>2026-05-03T09:33:43.782Z</time></trkpt><trkpt lat="42.0597734" lon="12.148983"><ele>232.4</ele><time>2026-05-03T09:33:45.788Z</time></trkpt><trkpt lat="42.0596896" lon="12.1490507"><ele>231.2</ele><time>2026-05-03T09:33:47.781Z</time></trkpt><trkpt lat="42.0595903" lon="12.1491079"><ele>230.0</ele><time>2026-05-03T09:33:49.78Z</time></trkpt><trkpt lat="42.059493" lon="12.1491344"><ele>229.8</ele><time>2026-05-03T09:33:51.787Z</time></trkpt><trkpt lat="42.0594004" lon="12.1491331"><ele>229.6</ele><time>2026-05-03T09:33:53.783Z</time></trkpt><trkpt lat="42.059301" lon="12.1491256"><ele>229.39999999999998</ele><time>2026-05-03T09:33:55.79Z</time></trkpt><trkpt lat="42.0592011" lon="12.1491155"><ele>229.2</ele><time>2026-05-03T09:33:57.782Z</time></trkpt><trkpt lat="42.0591031" lon="12.1491174"><ele>229.0</ele><time>2026-05-03T09:33:59.781Z</time></trkpt><trkpt lat="42.059" lon="12.1491112"><ele>229.0</ele><time>2026-05-03T09:34:01.78Z</time></trkpt><trkpt lat="42.0588974" lon="12.1491215"><ele>228.99999999999997</ele><time>2026-05-03T09:34:03.783Z</time></trkpt><trkpt lat="42.0587953" lon="12.1491309"><ele>228.99999999999997</ele><time>2026-05-03T09:34:05.786Z</time></trkpt><trkpt lat="42.0586955" lon="12.1491395"><ele>229.0</ele><time>2026-05-03T09:34:07.783Z</time></trkpt><trkpt lat="42.0585924" lon="12.1491623"><ele>229.0</ele><time>2026-05-03T09:34:09.784Z</time></trkpt><trkpt lat="42.058493" lon="12.1492075"><ele>229.0</ele><time>2026-05-03T09:34:11.792Z</time></trkpt><trkpt lat="42.0583909" lon="12.1492459"><ele>228.99999999999997</ele><time>2026-05-03T09:34:13.784Z</time></trkpt><trkpt lat="42.0582892" lon="12.1492962"><ele>228.99999999999997</ele><time>2026-05-03T09:34:15.782Z</time></trkpt><trkpt lat="42.0581898" lon="12.1493406"><ele>229.0</ele><time>2026-05-03T09:34:17.783Z</time></trkpt><trkpt lat="42.0580883" lon="12.1493687"><ele>229.0</ele><time>2026-05-03T09:34:19.786Z</time></trkpt><trkpt lat="42.0579864" lon="12.149391"><ele>229.0</ele><time>2026-05-03T09:34:21.786Z</time></trkpt><trkpt lat="42.0578888" lon="12.1494035"><ele>228.99999999999997</ele><time>2026-05-03T09:34:23.781Z</time></trkpt><trkpt lat="42.0577942" lon="12.1494097"><ele>228.99999999999997</ele><time>2026-05-03T09:34:25.781Z</time></trkpt><trkpt lat="42.0577006" lon="12.149407"><ele>229.0</ele><time>2026-05-03T09:34:27.788Z</time></trkpt><trkpt lat="42.0576188" lon="12.1493987"><ele>229.0</ele><time>2026-05-03T09:34:29.792Z</time></trkpt><trkpt lat="42.0575331" lon="12.1493828"><ele>228.99999999999997</ele><time>2026-05-03T09:34:31.784Z</time></trkpt><trkpt lat="42.0574563" lon="12.1493868"><ele>229.0</ele><time>2026-05-03T09:34:33.784Z</time></trkpt><trkpt lat="42.0573718" lon="12.1493854"><ele>229.0</ele><time>2026-05-03T09:34:35.785Z</time></trkpt><trkpt lat="42.0572808" lon="12.1493858"><ele>229.0</ele><time>2026-05-03T09:34:37.785Z</time></trkpt><trkpt lat="42.0571952" lon="12.1493963"><ele>228.99999999999997</ele><time>2026-05-03T09:34:39.783Z</time></trkpt><trkpt lat="42.0571038" lon="12.1494007"><ele>229.0</ele><time>2026-05-03T09:34:41.791Z</time></trkpt><trkpt lat="42.0570065" lon="12.1494221"><ele>228.39999999999998</ele><time>2026-05-03T09:34:43.785Z</time></trkpt><trkpt lat="42.0569131" lon="12.1494579"><ele>227.79999999999998</ele><time>2026-05-03T09:34:45.784Z</time></trkpt><trkpt lat="42.0568113" lon="12.1494643"><ele>227.20000000000002</ele><time>2026-05-03T09:34:47.788Z</time></trkpt><trkpt lat="42.0567087" lon="12.1494872"><ele>226.60000000000002</ele><time>2026-05-03T09:34:49.782Z</time></trkpt><trkpt lat="42.0565971" lon="12.1495175"><ele>226.0</ele><time>2026-05-03T09:34:51.783Z</time></trkpt><trkpt lat="42.0564909" lon="12.1495429"><ele>224.75</ele><time>2026-05-03T09:34:53.783Z</time></trkpt><trkpt lat="42.0563794" lon="12.1495906"><ele>223.5</ele><time>2026-05-03T09:34:55.783Z</time></trkpt><trkpt lat="42.0562718" lon="12.1496396"><ele>222.25</ele><time>2026-05-03T09:34:57.785Z</time></trkpt><trkpt lat="42.0561599" lon="12.149665"><ele>221.0</ele><time>2026-05-03T09:34:59.781Z</time></trkpt><trkpt lat="42.0560461" lon="12.1496689"><ele>221.0</ele><time>2026-05-03T09:35:01.784Z</time></trkpt><trkpt lat="42.0559389" lon="12.1496513"><ele>221.00000000000003</ele><time>2026-05-03T09:35:03.787Z</time></trkpt><trkpt lat="42.0558506" lon="12.1495898"><ele>221.00000000000003</ele><time>2026-05-03T09:35:05.786Z</time></trkpt><trkpt lat="42.0557565" lon="12.1495505"><ele>221.0</ele><time>2026-05-03T09:35:07.787Z</time></trkpt><trkpt lat="42.055665" lon="12.149492"><ele>221.0</ele><time>2026-05-03T09:35:09.78Z</time></trkpt><trkpt lat="42.055572" lon="12.1494551"><ele>221.60000000000002</ele><time>2026-05-03T09:35:11.781Z</time></trkpt><trkpt lat="42.0554804" lon="12.1494201"><ele>222.20000000000002</ele><time>2026-05-03T09:35:13.796Z</time></trkpt><trkpt lat="42.0553771" lon="12.1493916"><ele>222.79999999999998</ele><time>2026-05-03T09:35:15.784Z</time></trkpt><trkpt lat="42.0552682" lon="12.149387"><ele>223.39999999999998</ele><time>2026-05-03T09:35:17.784Z</time></trkpt><trkpt lat="42.0551608" lon="12.1493777"><ele>224.0</ele><time>2026-05-03T09:35:19.784Z</time></trkpt><trkpt lat="42.0550631" lon="12.1493812"><ele>224.0</ele><time>2026-05-03T09:35:21.786Z</time></trkpt><trkpt lat="42.0549699" lon="12.1493927"><ele>223.99999999999997</ele><time>2026-05-03T09:35:23.784Z</time></trkpt><trkpt lat="42.0548703" lon="12.1494102"><ele>223.99999999999997</ele><time>2026-05-03T09:35:25.783Z</time></trkpt><trkpt lat="42.0547705" lon="12.1494382"><ele>224.0</ele><time>2026-05-03T09:35:27.781Z</time></trkpt><trkpt lat="42.0546806" lon="12.149474"><ele>224.0</ele><time>2026-05-03T09:35:29.785Z</time></trkpt><trkpt lat="42.0545901" lon="12.1494988"><ele>224.6</ele><time>2026-05-03T09:35:31.782Z</time></trkpt><trkpt lat="42.0544926" lon="12.1495341"><ele>225.2</ele><time>2026-05-03T09:35:33.782Z</time></trkpt><trkpt lat="42.0543809" lon="12.149558"><ele>225.79999999999998</ele><time>2026-05-03T09:35:35.784Z</time></trkpt><trkpt lat="42.0542818" lon="12.149599"><ele>226.39999999999998</ele><time>2026-05-03T09:35:37.794Z</time></trkpt><trkpt lat="42.0541735" lon="12.1496434"><ele>227.0</ele><time>2026-05-03T09:35:39.784Z</time></trkpt><trkpt lat="42.0540747" lon="12.1496833"><ele>227.39999999999998</ele><time>2026-05-03T09:35:41.781Z</time></trkpt><trkpt lat="42.0539784" lon="12.149724"><ele>227.79999999999998</ele><time>2026-05-03T09:35:43.781Z</time></trkpt><trkpt lat="42.0538803" lon="12.1497833"><ele>228.2</ele><time>2026-05-03T09:35:45.783Z</time></trkpt><trkpt lat="42.0537838" lon="12.149825"><ele>228.6</ele><time>2026-05-03T09:35:47.785Z</time></trkpt><trkpt lat="42.0536795" lon="12.1498455"><ele>229.0</ele><time>2026-05-03T09:35:49.782Z</time></trkpt><trkpt lat="42.0535834" lon="12.1498455"><ele>229.0</ele><time>2026-05-03T09:35:51.783Z</time></trkpt><trkpt lat="42.0534793" lon="12.1498035"><ele>228.99999999999997</ele><time>2026-05-03T09:35:53.79Z</time></trkpt><trkpt lat="42.0533815" lon="12.1497667"><ele>228.99999999999997</ele><time>2026-05-03T09:35:55.782Z</time></trkpt><trkpt lat="42.0532801" lon="12.1496993"><ele>229.0</ele><time>2026-05-03T09:35:57.79Z</time></trkpt><trkpt lat="42.0532188" lon="12.1496105"><ele>229.0</ele><time>2026-05-03T09:35:59.781Z</time></trkpt><trkpt lat="42.0531219" lon="12.149516"><ele>228.6</ele><time>2026-05-03T09:36:01.781Z</time></trkpt><trkpt lat="42.0530292" lon="12.1494115"><ele>228.2</ele><time>2026-05-03T09:36:03.786Z</time></trkpt><trkpt lat="42.052966" lon="12.1493661"><ele>227.79999999999998</ele><time>2026-05-03T09:36:04.787Z</time></trkpt><trkpt lat="42.0528503" lon="12.1493147"><ele>227.39999999999998</ele><time>2026-05-03T09:36:06.783Z</time></trkpt><trkpt lat="42.0527366" lon="12.1492839"><ele>227.0</ele><time>2026-05-03T09:36:08.787Z</time></trkpt><trkpt lat="42.0526421" lon="12.149322"><ele>227.0</ele><time>2026-05-03T09:36:10.788Z</time></trkpt><trkpt lat="42.0525189" lon="12.1493165"><ele>227.0</ele><time>2026-05-03T09:36:12.789Z</time></trkpt><trkpt lat="42.0524491" lon="12.1493123"><ele>227.0</ele><time>2026-05-03T09:36:13.782Z</time></trkpt><trkpt lat="42.0523215" lon="12.1493157"><ele>227.0</ele><time>2026-05-03T09:36:15.784Z</time></trkpt><trkpt lat="42.0522528" lon="12.1493222"><ele>227.0</ele><time>2026-05-03T09:36:16.785Z</time></trkpt><trkpt lat="42.0521864" lon="12.1493234"><ele>226.33333333333334</ele><time>2026-05-03T09:36:17.783Z</time></trkpt><trkpt lat="42.0521189" lon="12.1493153"><ele>225.66666666666669</ele><time>2026-05-03T09:36:18.783Z</time></trkpt><trkpt lat="42.0519992" lon="12.1493222"><ele>225.0</ele><time>2026-05-03T09:36:20.783Z</time></trkpt><trkpt lat="42.0519325" lon="12.1493327"><ele>224.33333333333331</ele><time>2026-05-03T09:36:21.787Z</time></trkpt><trkpt lat="42.0518675" lon="12.1493086"><ele>223.66666666666666</ele><time>2026-05-03T09:36:22.79Z</time></trkpt><trkpt lat="42.0518041" lon="12.1493127"><ele>223.0</ele><time>2026-05-03T09:36:23.786Z</time></trkpt><trkpt lat="42.0517348" lon="12.1493552"><ele>222.99999999999997</ele><time>2026-05-03T09:36:24.786Z</time></trkpt><trkpt lat="42.0516691" lon="12.1493732"><ele>223.0</ele><time>2026-05-03T09:36:25.781Z</time></trkpt><trkpt lat="42.0515931" lon="12.1493962"><ele>223.0</ele><time>2026-05-03T09:36:26.786Z</time></trkpt><trkpt lat="42.0515292" lon="12.1494144"><ele>223.0</ele><time>2026-05-03T09:36:27.786Z</time></trkpt><trkpt lat="42.0514676" lon="12.1494376"><ele>222.99999999999997</ele><time>2026-05-03T09:36:28.781Z</time></trkpt><trkpt lat="42.0514135" lon="12.1494832"><ele>223.0</ele><time>2026-05-03T09:36:29.781Z</time></trkpt><trkpt lat="42.0512981" lon="12.1495662"><ele>222.8</ele><time>2026-05-03T09:36:31.787Z</time></trkpt><trkpt lat="42.0512322" lon="12.1496154"><ele>222.60000000000002</ele><time>2026-05-03T09:36:32.787Z</time></trkpt><trkpt lat="42.0511666" lon="12.1496806"><ele>222.39999999999998</ele><time>2026-05-03T09:36:33.782Z</time></trkpt><trkpt lat="42.0510688" lon="12.1497733"><ele>222.2</ele><time>2026-05-03T09:36:35.783Z</time></trkpt><trkpt lat="42.0510173" lon="12.1498258"><ele>222.0</ele><time>2026-05-03T09:36:36.783Z</time></trkpt><trkpt lat="42.0509172" lon="12.149916"><ele>222.0</ele><time>2026-05-03T09:36:38.784Z</time></trkpt><trkpt lat="42.0508265" lon="12.1500385"><ele>222.0</ele><time>2026-05-03T09:36:40.788Z</time></trkpt><trkpt lat="42.0507813" lon="12.1501011"><ele>222.0</ele><time>2026-05-03T09:36:41.783Z</time></trkpt><trkpt lat="42.0507328" lon="12.1501755"><ele>222.0</ele><time>2026-05-03T09:36:42.783Z</time></trkpt><trkpt lat="42.0506902" lon="12.1502484"><ele>222.0</ele><time>2026-05-03T09:36:43.787Z</time></trkpt><trkpt lat="42.0506428" lon="12.1503177"><ele>222.0</ele><time>2026-05-03T09:36:44.782Z</time></trkpt><trkpt lat="42.0505944" lon="12.1503844"><ele>221.5</ele><time>2026-05-03T09:36:45.786Z</time></trkpt><trkpt lat="42.0505462" lon="12.1504521"><ele>221.0</ele><time>2026-05-03T09:36:46.78Z</time></trkpt><trkpt lat="42.0504432" lon="12.1505351"><ele>220.5</ele><time>2026-05-03T09:36:48.785Z</time></trkpt><trkpt lat="42.0503897" lon="12.1506027"><ele>220.0</ele><time>2026-05-03T09:36:49.781Z</time></trkpt><trkpt lat="42.050334" lon="12.1506507"><ele>219.5</ele><time>2026-05-03T09:36:50.782Z</time></trkpt><trkpt lat="42.0502323" lon="12.1506998"><ele>219.0</ele><time>2026-05-03T09:36:52.786Z</time></trkpt><trkpt lat="42.0501778" lon="12.1507425"><ele>218.83333333333334</ele><time>2026-05-03T09:36:53.78Z</time></trkpt><trkpt lat="42.050119" lon="12.1507872"><ele>218.66666666666669</ele><time>2026-05-03T09:36:54.78Z</time></trkpt><trkpt lat="42.0500617" lon="12.1508247"><ele>218.5</ele><time>2026-05-03T09:36:55.783Z</time></trkpt><trkpt lat="42.0499457" lon="12.150845"><ele>218.33333333333334</ele><time>2026-05-03T09:36:57.784Z</time></trkpt><trkpt lat="42.0498823" lon="12.1508516"><ele>218.16666666666669</ele><time>2026-05-03T09:36:58.784Z</time></trkpt><trkpt lat="42.0497643" lon="12.1508548"><ele>218.0</ele><time>2026-05-03T09:37:00.783Z</time></trkpt><trkpt lat="42.0496408" lon="12.1508818"><ele>217.4</ele><time>2026-05-03T09:37:02.78Z</time></trkpt><trkpt lat="42.0495401" lon="12.1509256"><ele>216.8</ele><time>2026-05-03T09:37:04.78Z</time></trkpt><trkpt lat="42.0494344" lon="12.1509792"><ele>216.2</ele><time>2026-05-03T09:37:06.783Z</time></trkpt><trkpt lat="42.0493329" lon="12.1510071"><ele>215.6</ele><time>2026-05-03T09:37:08.783Z</time></trkpt><trkpt lat="42.0492677" lon="12.1510336"><ele>215.0</ele><time>2026-05-03T09:37:09.783Z</time></trkpt><trkpt lat="42.0492088" lon="12.1510644"><ele>215.6</ele><time>2026-05-03T09:37:10.784Z</time></trkpt><trkpt lat="42.0491201" lon="12.1511161"><ele>216.2</ele><time>2026-05-03T09:37:12.781Z</time></trkpt><trkpt lat="42.0490177" lon="12.1511814"><ele>216.8</ele><time>2026-05-03T09:37:14.788Z</time></trkpt><trkpt lat="42.0489139" lon="12.1512254"><ele>217.4</ele><time>2026-05-03T09:37:16.782Z</time></trkpt><trkpt lat="42.0488317" lon="12.1512654"><ele>218.0</ele><time>2026-05-03T09:37:18.783Z</time></trkpt><trkpt lat="42.0487208" lon="12.1512769"><ele>218.0</ele><time>2026-05-03T09:37:20.782Z</time></trkpt><trkpt lat="42.0486528" lon="12.1512971"><ele>218.0</ele><time>2026-05-03T09:37:21.791Z</time></trkpt><trkpt lat="42.0485322" lon="12.1513147"><ele>218.0</ele><time>2026-05-03T09:37:23.782Z</time></trkpt><trkpt lat="42.0484162" lon="12.1513089"><ele>218.0</ele><time>2026-05-03T09:37:25.789Z</time></trkpt><trkpt lat="42.0483012" lon="12.1513051"><ele>218.0</ele><time>2026-05-03T09:37:27.803Z</time></trkpt><trkpt lat="42.0481868" lon="12.15134"><ele>216.60000000000002</ele><time>2026-05-03T09:37:29.793Z</time></trkpt><trkpt lat="42.0480681" lon="12.1513524"><ele>215.20000000000002</ele><time>2026-05-03T09:37:31.807Z</time></trkpt><trkpt lat="42.0480042" lon="12.1513541"><ele>213.8</ele><time>2026-05-03T09:37:32.805Z</time></trkpt><trkpt lat="42.0478855" lon="12.1513556"><ele>212.4</ele><time>2026-05-03T09:37:34.832Z</time></trkpt><trkpt lat="42.0477609" lon="12.1513354"><ele>211.0</ele><time>2026-05-03T09:37:36.796Z</time></trkpt><trkpt lat="42.0476766" lon="12.1512688"><ele>211.0</ele><time>2026-05-03T09:37:38.805Z</time></trkpt><trkpt lat="42.0475848" lon="12.1511745"><ele>211.0</ele><time>2026-05-03T09:37:40.785Z</time></trkpt><trkpt lat="42.0475019" lon="12.1510765"><ele>211.0</ele><time>2026-05-03T09:37:42.799Z</time></trkpt><trkpt lat="42.0474407" lon="12.1510269"><ele>211.0</ele><time>2026-05-03T09:37:43.806Z</time></trkpt><trkpt lat="42.0473425" lon="12.1509565"><ele>211.0</ele><time>2026-05-03T09:37:45.779Z</time></trkpt><trkpt lat="42.047284" lon="12.1509153"><ele>210.33333333333331</ele><time>2026-05-03T09:37:46.786Z</time></trkpt><trkpt lat="42.0472332" lon="12.150863"><ele>209.66666666666666</ele><time>2026-05-03T09:37:47.801Z</time></trkpt><trkpt lat="42.0471819" lon="12.1508129"><ele>209.0</ele><time>2026-05-03T09:37:48.804Z</time></trkpt><trkpt lat="42.0470753" lon="12.150712"><ele>208.33333333333331</ele><time>2026-05-03T09:37:50.806Z</time></trkpt><trkpt lat="42.0470207" lon="12.150665"><ele>207.66666666666666</ele><time>2026-05-03T09:37:51.804Z</time></trkpt><trkpt lat="42.0469631" lon="12.1506258"><ele>207.0</ele><time>2026-05-03T09:37:52.783Z</time></trkpt><trkpt lat="42.0469038" lon="12.150582"><ele>205.33333333333334</ele><time>2026-05-03T09:37:53.804Z</time></trkpt><trkpt lat="42.0468431" lon="12.1505464"><ele>203.66666666666669</ele><time>2026-05-03T09:37:54.81Z</time></trkpt><trkpt lat="42.0467167" lon="12.1505096"><ele>202.0</ele><time>2026-05-03T09:37:56.858Z</time></trkpt><trkpt lat="42.0466515" lon="12.1505059"><ele>200.33333333333334</ele><time>2026-05-03T09:37:57.801Z</time></trkpt><trkpt lat="42.046588" lon="12.1505132"><ele>198.66666666666669</ele><time>2026-05-03T09:37:58.807Z</time></trkpt><trkpt lat="42.046525" lon="12.1505251"><ele>197.0</ele><time>2026-05-03T09:37:59.784Z</time></trkpt><trkpt lat="42.0464602" lon="12.1505335"><ele>197.0</ele><time>2026-05-03T09:38:00.802Z</time></trkpt><trkpt lat="42.0463344" lon="12.1505441"><ele>197.0</ele><time>2026-05-03T09:38:02.788Z</time></trkpt><trkpt lat="42.0462167" lon="12.1505618"><ele>197.0</ele><time>2026-05-03T09:38:04.802Z</time></trkpt><trkpt lat="42.0461006" lon="12.1505983"><ele>197.0</ele><time>2026-05-03T09:38:06.809Z</time></trkpt><trkpt lat="42.0459969" lon="12.1506501"><ele>198.66666666666669</ele><time>2026-05-03T09:38:08.792Z</time></trkpt><trkpt lat="42.0459201" lon="12.1507255"><ele>200.33333333333334</ele><time>2026-05-03T09:38:10.789Z</time></trkpt><trkpt lat="42.0458637" lon="12.1508215"><ele>202.0</ele><time>2026-05-03T09:38:12.852Z</time></trkpt><trkpt lat="42.0457896" lon="12.1508832"><ele>203.66666666666669</ele><time>2026-05-03T09:38:14.797Z</time></trkpt><trkpt lat="42.0457212" lon="12.1509472"><ele>205.33333333333334</ele><time>2026-05-03T09:38:16.792Z</time></trkpt><trkpt lat="42.0456552" lon="12.1509965"><ele>207.0</ele><time>2026-05-03T09:38:18.794Z</time></trkpt><trkpt lat="42.0455898" lon="12.1510676"><ele>207.0</ele><time>2026-05-03T09:38:20.796Z</time></trkpt><trkpt lat="42.0455011" lon="12.1511367"><ele>207.0</ele><time>2026-05-03T09:38:22.801Z</time></trkpt><trkpt lat="42.0454151" lon="12.1512218"><ele>207.0</ele><time>2026-05-03T09:38:24.785Z</time></trkpt><trkpt lat="42.0453193" lon="12.1512881"><ele>207.0</ele><time>2026-05-03T09:38:26.809Z</time></trkpt><trkpt lat="42.0452433" lon="12.1513495"><ele>207.0</ele><time>2026-05-03T09:38:28.799Z</time></trkpt><trkpt lat="42.0451391" lon="12.1514247"><ele>207.0</ele><time>2026-05-03T09:38:30.791Z</time></trkpt><trkpt lat="42.0450404" lon="12.1514878"><ele>207.0</ele><time>2026-05-03T09:38:32.787Z</time></trkpt><trkpt lat="42.0449327" lon="12.1515644"><ele>207.0</ele><time>2026-05-03T09:38:34.869Z</time></trkpt><trkpt lat="42.0448802" lon="12.1516118"><ele>207.0</ele><time>2026-05-03T09:38:35.791Z</time></trkpt><trkpt lat="42.0448223" lon="12.1516569"><ele>207.0</ele><time>2026-05-03T09:38:36.803Z</time></trkpt><trkpt lat="42.04472" lon="12.1517184"><ele>206.5</ele><time>2026-05-03T09:38:38.806Z</time></trkpt><trkpt lat="42.0445976" lon="12.1517777"><ele>206.0</ele><time>2026-05-03T09:38:40.791Z</time></trkpt><trkpt lat="42.0444812" lon="12.1518256"><ele>205.5</ele><time>2026-05-03T09:38:42.805Z</time></trkpt><trkpt lat="42.044375" lon="12.1518925"><ele>205.0</ele><time>2026-05-03T09:38:44.807Z</time></trkpt><trkpt lat="42.04426" lon="12.1519477"><ele>205.0</ele><time>2026-05-03T09:38:46.803Z</time></trkpt><trkpt lat="42.0441498" lon="12.1520063"><ele>205.0</ele><time>2026-05-03T09:38:48.788Z</time></trkpt><trkpt lat="42.0440306" lon="12.1520575"><ele>205.0</ele><time>2026-05-03T09:38:50.789Z</time></trkpt><trkpt lat="42.0439129" lon="12.152101"><ele>205.0</ele><time>2026-05-03T09:38:52.802Z</time></trkpt><trkpt lat="42.0437924" lon="12.1521356"><ele>203.25</ele><time>2026-05-03T09:38:54.805Z</time></trkpt><trkpt lat="42.0436769" lon="12.1521635"><ele>201.5</ele><time>2026-05-03T09:38:56.801Z</time></trkpt><trkpt lat="42.0435677" lon="12.1521805"><ele>199.75</ele><time>2026-05-03T09:38:58.802Z</time></trkpt><trkpt lat="42.0434519" lon="12.1521759"><ele>198.0</ele><time>2026-05-03T09:39:00.812Z</time></trkpt><trkpt lat="42.0433345" lon="12.1521685"><ele>197.75</ele><time>2026-05-03T09:39:02.799Z</time></trkpt><trkpt lat="42.0432161" lon="12.1521538"><ele>197.5</ele><time>2026-05-03T09:39:04.801Z</time></trkpt><trkpt lat="42.043094" lon="12.1521238"><ele>197.25</ele><time>2026-05-03T09:39:06.8Z</time></trkpt><trkpt lat="42.0429742" lon="12.1521089"><ele>197.0</ele><time>2026-05-03T09:39:08.792Z</time></trkpt><trkpt lat="42.0428651" lon="12.1520972"><ele>197.0</ele><time>2026-05-03T09:39:10.803Z</time></trkpt><trkpt lat="42.042745" lon="12.1521028"><ele>197.0</ele><time>2026-05-03T09:39:12.79Z</time></trkpt><trkpt lat="42.0426803" lon="12.1520693"><ele>197.0</ele><time>2026-05-03T09:39:13.804Z</time></trkpt><trkpt lat="42.042619" lon="12.1520416"><ele>197.0</ele><time>2026-05-03T09:39:14.806Z</time></trkpt><trkpt lat="42.0425609" lon="12.1520036"><ele>197.0</ele><time>2026-05-03T09:39:15.804Z</time></trkpt><trkpt lat="42.0424945" lon="12.1519977"><ele>197.0</ele><time>2026-05-03T09:39:16.806Z</time></trkpt><trkpt lat="42.0424323" lon="12.1519839"><ele>197.0</ele><time>2026-05-03T09:39:17.812Z</time></trkpt><trkpt lat="42.0423176" lon="12.1519565"><ele>197.75</ele><time>2026-05-03T09:39:19.815Z</time></trkpt><trkpt lat="42.0422082" lon="12.1519533"><ele>198.5</ele><time>2026-05-03T09:39:21.803Z</time></trkpt><trkpt lat="42.0420993" lon="12.1520017"><ele>199.25</ele><time>2026-05-03T09:39:23.807Z</time></trkpt><trkpt lat="42.0419952" lon="12.1520365"><ele>200.0</ele><time>2026-05-03T09:39:25.799Z</time></trkpt><trkpt lat="42.0418367" lon="12.1520563"><ele>200.0</ele><time>2026-05-03T09:39:28.799Z</time></trkpt><trkpt lat="42.0417259" lon="12.1520309"><ele>200.0</ele><time>2026-05-03T09:39:30.81Z</time></trkpt><trkpt lat="42.041606" lon="12.1520301"><ele>200.0</ele><time>2026-05-03T09:39:32.799Z</time></trkpt><trkpt lat="42.0414873" lon="12.1520379"><ele>200.0</ele><time>2026-05-03T09:39:34.785Z</time></trkpt><trkpt lat="42.0414264" lon="12.1520776"><ele>200.0</ele><time>2026-05-03T09:39:35.811Z</time></trkpt><trkpt lat="42.0413209" lon="12.152094"><ele>199.8</ele><time>2026-05-03T09:39:37.83Z</time></trkpt><trkpt lat="42.0412166" lon="12.1521634"><ele>199.6</ele><time>2026-05-03T09:39:39.815Z</time></trkpt><trkpt lat="42.0411056" lon="12.1522402"><ele>199.39999999999998</ele><time>2026-05-03T09:39:41.801Z</time></trkpt><trkpt lat="42.0410488" lon="12.1522835"><ele>199.2</ele><time>2026-05-03T09:39:42.81Z</time></trkpt><trkpt lat="42.0409433" lon="12.152372"><ele>199.0</ele><time>2026-05-03T09:39:44.788Z</time></trkpt><trkpt lat="42.0408813" lon="12.1524207"><ele>197.79999999999998</ele><time>2026-05-03T09:39:45.808Z</time></trkpt><trkpt lat="42.040773" lon="12.1524508"><ele>196.6</ele><time>2026-05-03T09:39:47.81Z</time></trkpt><trkpt lat="42.040652" lon="12.152484"><ele>195.4</ele><time>2026-05-03T09:39:49.847Z</time></trkpt><trkpt lat="42.0405346" lon="12.1525267"><ele>194.2</ele><time>2026-05-03T09:39:51.794Z</time></trkpt><trkpt lat="42.04047" lon="12.1525608"><ele>193.0</ele><time>2026-05-03T09:39:52.796Z</time></trkpt><trkpt lat="42.0404068" lon="12.1525855"><ele>192.99999999999997</ele><time>2026-05-03T09:39:53.808Z</time></trkpt><trkpt lat="42.0402872" lon="12.1526179"><ele>193.0</ele><time>2026-05-03T09:39:55.817Z</time></trkpt><trkpt lat="42.040222" lon="12.1526271"><ele>193.0</ele><time>2026-05-03T09:39:56.79Z</time></trkpt><trkpt lat="42.0401524" lon="12.1526347"><ele>193.0</ele><time>2026-05-03T09:39:57.813Z</time></trkpt><trkpt lat="42.0400871" lon="12.1526395"><ele>192.99999999999997</ele><time>2026-05-03T09:39:58.843Z</time></trkpt><trkpt lat="42.0399625" lon="12.1526179"><ele>193.0</ele><time>2026-05-03T09:40:00.836Z</time></trkpt><trkpt lat="42.0398382" lon="12.1525877"><ele>192.0</ele><time>2026-05-03T09:40:02.827Z</time></trkpt><trkpt lat="42.0397686" lon="12.1525717"><ele>191.0</ele><time>2026-05-03T09:40:03.797Z</time></trkpt><trkpt lat="42.0396422" lon="12.1525407"><ele>190.0</ele><time>2026-05-03T09:40:05.814Z</time></trkpt><trkpt lat="42.0395233" lon="12.1524946"><ele>189.0</ele><time>2026-05-03T09:40:07.805Z</time></trkpt><trkpt lat="42.0394626" lon="12.1524656"><ele>188.0</ele><time>2026-05-03T09:40:08.807Z</time></trkpt><trkpt lat="42.0393388" lon="12.1524294"><ele>188.0</ele><time>2026-05-03T09:40:10.813Z</time></trkpt><trkpt lat="42.0392754" lon="12.1524062"><ele>188.0</ele><time>2026-05-03T09:40:11.791Z</time></trkpt><trkpt lat="42.0391523" lon="12.1523697"><ele>188.0</ele><time>2026-05-03T09:40:13.807Z</time></trkpt><trkpt lat="42.0390866" lon="12.1523427"><ele>188.0</ele><time>2026-05-03T09:40:14.811Z</time></trkpt><trkpt lat="42.0390215" lon="12.1523102"><ele>188.0</ele><time>2026-05-03T09:40:15.794Z</time></trkpt><trkpt lat="42.0389648" lon="12.1522694"><ele>188.0</ele><time>2026-05-03T09:40:16.794Z</time></trkpt><trkpt lat="42.0389063" lon="12.1522173"><ele>188.16666666666666</ele><time>2026-05-03T09:40:17.844Z</time></trkpt><trkpt lat="42.0388513" lon="12.1521619"><ele>188.33333333333331</ele><time>2026-05-03T09:40:18.838Z</time></trkpt><trkpt lat="42.038802" lon="12.152102"><ele>188.5</ele><time>2026-05-03T09:40:19.799Z</time></trkpt><trkpt lat="42.0387141" lon="12.1519742"><ele>188.66666666666666</ele><time>2026-05-03T09:40:21.802Z</time></trkpt><trkpt lat="42.0386705" lon="12.1519084"><ele>188.83333333333334</ele><time>2026-05-03T09:40:22.788Z</time></trkpt><trkpt lat="42.0386249" lon="12.1518414"><ele>189.0</ele><time>2026-05-03T09:40:23.789Z</time></trkpt><trkpt lat="42.0385821" lon="12.151776"><ele>189.0</ele><time>2026-05-03T09:40:24.805Z</time></trkpt><trkpt lat="42.0385358" lon="12.1517132"><ele>189.0</ele><time>2026-05-03T09:40:25.799Z</time></trkpt><trkpt lat="42.0384375" lon="12.1516063"><ele>189.0</ele><time>2026-05-03T09:40:27.827Z</time></trkpt><trkpt lat="42.0383376" lon="12.1514996"><ele>189.0</ele><time>2026-05-03T09:40:29.809Z</time></trkpt><trkpt lat="42.0382849" lon="12.1514459"><ele>189.0</ele><time>2026-05-03T09:40:30.805Z</time></trkpt><trkpt lat="42.03823" lon="12.1513965"><ele>189.0</ele><time>2026-05-03T09:40:31.824Z</time></trkpt><trkpt lat="42.0381269" lon="12.1512936"><ele>189.0</ele><time>2026-05-03T09:40:33.815Z</time></trkpt><trkpt lat="42.0380806" lon="12.1512361"><ele>189.0</ele><time>2026-05-03T09:40:34.804Z</time></trkpt><trkpt lat="42.0380319" lon="12.1511782"><ele>189.0</ele><time>2026-05-03T09:40:35.801Z</time></trkpt><trkpt lat="42.0379386" lon="12.1510752"><ele>189.0</ele><time>2026-05-03T09:40:37.803Z</time></trkpt><trkpt lat="42.037851" lon="12.1509851"><ele>189.0</ele><time>2026-05-03T09:40:39.801Z</time></trkpt><trkpt lat="42.0377629" lon="12.1508943"><ele>189.0</ele><time>2026-05-03T09:40:41.798Z</time></trkpt><trkpt lat="42.0376843" lon="12.1507961"><ele>189.0</ele><time>2026-05-03T09:40:43.81Z</time></trkpt><trkpt lat="42.0376099" lon="12.1506902"><ele>189.0</ele><time>2026-05-03T09:40:45.802Z</time></trkpt><trkpt lat="42.0375394" lon="12.1505927"><ele>189.0</ele><time>2026-05-03T09:40:47.806Z</time></trkpt><trkpt lat="42.037459" lon="12.1505008"><ele>189.0</ele><time>2026-05-03T09:40:49.811Z</time></trkpt><trkpt lat="42.037389" lon="12.1504068"><ele>189.0</ele><time>2026-05-03T09:40:51.821Z</time></trkpt><trkpt lat="42.0373277" lon="12.1503121"><ele>189.0</ele><time>2026-05-03T09:40:53.784Z</time></trkpt><trkpt lat="42.0372701" lon="12.1502246"><ele>189.0</ele><time>2026-05-03T09:40:55.789Z</time></trkpt><trkpt lat="42.037215" lon="12.1501426"><ele>189.0</ele><time>2026-05-03T09:40:57.801Z</time></trkpt><trkpt lat="42.0371662" lon="12.150063"><ele>189.0</ele><time>2026-05-03T09:40:59.807Z</time></trkpt><trkpt lat="42.0371097" lon="12.1499883"><ele>189.0</ele><time>2026-05-03T09:41:01.786Z</time></trkpt><trkpt lat="42.0370489" lon="12.1499177"><ele>189.0</ele><time>2026-05-03T09:41:03.791Z</time></trkpt><trkpt lat="42.0369813" lon="12.1498519"><ele>189.0</ele><time>2026-05-03T09:41:05.803Z</time></trkpt><trkpt lat="42.0369234" lon="12.1497665"><ele>189.0</ele><time>2026-05-03T09:41:07.846Z</time></trkpt><trkpt lat="42.0368602" lon="12.1496845"><ele>189.0</ele><time>2026-05-03T09:41:09.797Z</time></trkpt><trkpt lat="42.0368062" lon="12.1495881"><ele>189.0</ele><time>2026-05-03T09:41:11.789Z</time></trkpt><trkpt lat="42.0367414" lon="12.1495105"><ele>189.0</ele><time>2026-05-03T09:41:13.782Z</time></trkpt><trkpt lat="42.0366658" lon="12.1494557"><ele>189.0</ele><time>2026-05-03T09:41:15.803Z</time></trkpt><trkpt lat="42.0365897" lon="12.1494095"><ele>189.0</ele><time>2026-05-03T09:41:17.787Z</time></trkpt><trkpt lat="42.0365123" lon="12.1493682"><ele>189.0</ele><time>2026-05-03T09:41:19.796Z</time></trkpt><trkpt lat="42.0364333" lon="12.1493313"><ele>189.0</ele><time>2026-05-03T09:41:21.814Z</time></trkpt><trkpt lat="42.0363524" lon="12.1492962"><ele>189.0</ele><time>2026-05-03T09:41:23.799Z</time></trkpt><trkpt lat="42.0362764" lon="12.14926"><ele>189.0</ele><time>2026-05-03T09:41:25.783Z</time></trkpt><trkpt lat="42.036206" lon="12.1492247"><ele>189.0</ele><time>2026-05-03T09:41:27.796Z</time></trkpt><trkpt lat="42.0361313" lon="12.1491926"><ele>189.0</ele><time>2026-05-03T09:41:29.816Z</time></trkpt><trkpt lat="42.0360465" lon="12.1491456"><ele>189.0</ele><time>2026-05-03T09:41:31.811Z</time></trkpt><trkpt lat="42.0359629" lon="12.1491049"><ele>189.0</ele><time>2026-05-03T09:41:33.81Z</time></trkpt><trkpt lat="42.0358717" lon="12.1490608"><ele>189.0</ele><time>2026-05-03T09:41:35.799Z</time></trkpt><trkpt lat="42.0357807" lon="12.1490209"><ele>186.75</ele><time>2026-05-03T09:41:37.801Z</time></trkpt><trkpt lat="42.035683" lon="12.1489884"><ele>184.5</ele><time>2026-05-03T09:41:39.789Z</time></trkpt><trkpt lat="42.0355846" lon="12.1489624"><ele>182.25</ele><time>2026-05-03T09:41:41.801Z</time></trkpt><trkpt lat="42.0354334" lon="12.1489498"><ele>180.0</ele><time>2026-05-03T09:41:44.827Z</time></trkpt><trkpt lat="42.0353305" lon="12.1489387"><ele>180.0</ele><time>2026-05-03T09:41:46.793Z</time></trkpt><trkpt lat="42.0352302" lon="12.1489239"><ele>180.0</ele><time>2026-05-03T09:41:48.782Z</time></trkpt><trkpt lat="42.035133" lon="12.1489125"><ele>180.0</ele><time>2026-05-03T09:41:50.784Z</time></trkpt><trkpt lat="42.0350249" lon="12.1489047"><ele>180.0</ele><time>2026-05-03T09:41:52.806Z</time></trkpt><trkpt lat="42.0349132" lon="12.1489007"><ele>180.0</ele><time>2026-05-03T09:41:54.788Z</time></trkpt><trkpt lat="42.0347911" lon="12.1488924"><ele>179.83333333333334</ele><time>2026-05-03T09:41:56.785Z</time></trkpt><trkpt lat="42.0346711" lon="12.1488621"><ele>179.66666666666666</ele><time>2026-05-03T09:41:58.786Z</time></trkpt><trkpt lat="42.0346104" lon="12.148839"><ele>179.5</ele><time>2026-05-03T09:41:59.803Z</time></trkpt><trkpt lat="42.0345463" lon="12.1488138"><ele>179.33333333333331</ele><time>2026-05-03T09:42:00.818Z</time></trkpt><trkpt lat="42.0344764" lon="12.1487885"><ele>179.16666666666666</ele><time>2026-05-03T09:42:01.783Z</time></trkpt><trkpt lat="42.0344095" lon="12.1487582"><ele>179.0</ele><time>2026-05-03T09:42:02.784Z</time></trkpt><trkpt lat="42.0343412" lon="12.1487295"><ele>179.00000000000003</ele><time>2026-05-03T09:42:03.811Z</time></trkpt><trkpt lat="42.0342749" lon="12.1487109"><ele>179.0</ele><time>2026-05-03T09:42:04.847Z</time></trkpt><trkpt lat="42.0342057" lon="12.1486917"><ele>179.0</ele><time>2026-05-03T09:42:05.812Z</time></trkpt><trkpt lat="42.034137" lon="12.1486737"><ele>179.0</ele><time>2026-05-03T09:42:06.794Z</time></trkpt><trkpt lat="42.0340726" lon="12.1486628"><ele>179.0</ele><time>2026-05-03T09:42:07.806Z</time></trkpt><trkpt lat="42.0340044" lon="12.1486615"><ele>179.00000000000003</ele><time>2026-05-03T09:42:08.814Z</time></trkpt><trkpt lat="42.0339364" lon="12.1486496"><ele>179.0</ele><time>2026-05-03T09:42:09.787Z</time></trkpt><trkpt lat="42.0338677" lon="12.1486493"><ele>178.39999999999998</ele><time>2026-05-03T09:42:10.811Z</time></trkpt><trkpt lat="42.0338023" lon="12.1486417"><ele>177.8</ele><time>2026-05-03T09:42:11.812Z</time></trkpt><trkpt lat="42.033677" lon="12.1486336"><ele>177.2</ele><time>2026-05-03T09:42:13.846Z</time></trkpt><trkpt lat="42.0335531" lon="12.1486285"><ele>176.60000000000002</ele><time>2026-05-03T09:42:15.807Z</time></trkpt><trkpt lat="42.033429" lon="12.148616"><ele>176.0</ele><time>2026-05-03T09:42:17.793Z</time></trkpt><trkpt lat="42.033366" lon="12.1486138"><ele>175.83333333333331</ele><time>2026-05-03T09:42:18.801Z</time></trkpt><trkpt lat="42.0333023" lon="12.1486076"><ele>175.66666666666666</ele><time>2026-05-03T09:42:19.813Z</time></trkpt><trkpt lat="42.0332381" lon="12.1485982"><ele>175.5</ele><time>2026-05-03T09:42:20.805Z</time></trkpt><trkpt lat="42.0331732" lon="12.148597"><ele>175.33333333333334</ele><time>2026-05-03T09:42:21.804Z</time></trkpt><trkpt lat="42.0331073" lon="12.1485938"><ele>175.16666666666669</ele><time>2026-05-03T09:42:22.817Z</time></trkpt><trkpt lat="42.0329932" lon="12.1485889"><ele>175.0</ele><time>2026-05-03T09:42:24.826Z</time></trkpt><trkpt lat="42.0328828" lon="12.1485811"><ele>175.0</ele><time>2026-05-03T09:42:26.794Z</time></trkpt><trkpt lat="42.0327996" lon="12.14857"><ele>175.0</ele><time>2026-05-03T09:42:28.812Z</time></trkpt><trkpt lat="42.0327342" lon="12.1485472"><ele>175.0</ele><time>2026-05-03T09:42:30.786Z</time></trkpt><trkpt lat="42.032648" lon="12.1485264"><ele>175.0</ele><time>2026-05-03T09:42:33.785Z</time></trkpt><trkpt lat="42.0325737" lon="12.14849"><ele>175.0</ele><time>2026-05-03T09:42:36.792Z</time></trkpt><trkpt lat="42.0324602" lon="12.1484346"><ele>175.0</ele><time>2026-05-03T09:42:40.809Z</time></trkpt><trkpt lat="42.0323937" lon="12.1483994"><ele>174.5</ele><time>2026-05-03T09:42:42.791Z</time></trkpt><trkpt lat="42.0323221" lon="12.148374"><ele>174.0</ele><time>2026-05-03T09:42:44.8Z</time></trkpt><trkpt lat="42.0322468" lon="12.1483407"><ele>173.5</ele><time>2026-05-03T09:42:46.781Z</time></trkpt><trkpt lat="42.0321518" lon="12.1483131"><ele>173.0</ele><time>2026-05-03T09:42:48.787Z</time></trkpt><trkpt lat="42.0320615" lon="12.1482731"><ele>172.5</ele><time>2026-05-03T09:42:50.813Z</time></trkpt><trkpt lat="42.0319685" lon="12.1482412"><ele>172.0</ele><time>2026-05-03T09:42:52.806Z</time></trkpt><trkpt lat="42.0318622" lon="12.1482061"><ele>171.2</ele><time>2026-05-03T09:42:54.793Z</time></trkpt><trkpt lat="42.0317568" lon="12.148173"><ele>170.39999999999998</ele><time>2026-05-03T09:42:56.793Z</time></trkpt><trkpt lat="42.0316668" lon="12.148153"><ele>169.60000000000002</ele><time>2026-05-03T09:42:58.805Z</time></trkpt><trkpt lat="42.0315811" lon="12.1481437"><ele>168.8</ele><time>2026-05-03T09:43:00.794Z</time></trkpt><trkpt lat="42.0314969" lon="12.1481643"><ele>168.0</ele><time>2026-05-03T09:43:02.792Z</time></trkpt><trkpt lat="42.031408" lon="12.1482061"><ele>168.0</ele><time>2026-05-03T09:43:04.813Z</time></trkpt><trkpt lat="42.0313146" lon="12.1482684"><ele>168.0</ele><time>2026-05-03T09:43:06.812Z</time></trkpt><trkpt lat="42.0312306" lon="12.1483398"><ele>168.0</ele><time>2026-05-03T09:43:08.784Z</time></trkpt><trkpt lat="42.0311124" lon="12.1484082"><ele>168.0</ele><time>2026-05-03T09:43:10.798Z</time></trkpt><trkpt lat="42.0309963" lon="12.1484615"><ele>168.0</ele><time>2026-05-03T09:43:12.786Z</time></trkpt><trkpt lat="42.0309332" lon="12.1484819"><ele>168.0</ele><time>2026-05-03T09:43:13.806Z</time></trkpt><trkpt lat="42.0308041" lon="12.1485115"><ele>168.0</ele><time>2026-05-03T09:43:15.811Z</time></trkpt><trkpt lat="42.0307392" lon="12.1485242"><ele>168.0</ele><time>2026-05-03T09:43:16.797Z</time></trkpt><trkpt lat="42.0306204" lon="12.1485445"><ele>168.0</ele><time>2026-05-03T09:43:18.835Z</time></trkpt><trkpt lat="42.0305063" lon="12.1485436"><ele>167.0</ele><time>2026-05-03T09:43:20.8Z</time></trkpt><trkpt lat="42.0304004" lon="12.1485515"><ele>166.0</ele><time>2026-05-03T09:43:22.793Z</time></trkpt><trkpt lat="42.0302981" lon="12.1485481"><ele>165.0</ele><time>2026-05-03T09:43:24.787Z</time></trkpt><trkpt lat="42.0302043" lon="12.1485355"><ele>164.0</ele><time>2026-05-03T09:43:26.813Z</time></trkpt><trkpt lat="42.0301132" lon="12.1485178"><ele>163.0</ele><time>2026-05-03T09:43:28.806Z</time></trkpt><trkpt lat="42.0300269" lon="12.1484997"><ele>162.4</ele><time>2026-05-03T09:43:30.813Z</time></trkpt><trkpt lat="42.0299463" lon="12.1484659"><ele>161.8</ele><time>2026-05-03T09:43:32.795Z</time></trkpt><trkpt lat="42.0298533" lon="12.1484206"><ele>161.2</ele><time>2026-05-03T09:43:34.806Z</time></trkpt><trkpt lat="42.0297637" lon="12.1483722"><ele>160.6</ele><time>2026-05-03T09:43:36.824Z</time></trkpt><trkpt lat="42.0296722" lon="12.148327"><ele>160.0</ele><time>2026-05-03T09:43:38.792Z</time></trkpt><trkpt lat="42.0295806" lon="12.1482836"><ele>160.0</ele><time>2026-05-03T09:43:40.799Z</time></trkpt><trkpt lat="42.0294859" lon="12.1482362"><ele>160.0</ele><time>2026-05-03T09:43:42.803Z</time></trkpt><trkpt lat="42.0293794" lon="12.1481889"><ele>160.0</ele><time>2026-05-03T09:43:44.788Z</time></trkpt><trkpt lat="42.0292658" lon="12.1481302"><ele>160.0</ele><time>2026-05-03T09:43:46.816Z</time></trkpt><trkpt lat="42.0292025" lon="12.1481055"><ele>160.0</ele><time>2026-05-03T09:43:47.815Z</time></trkpt><trkpt lat="42.0291407" lon="12.1480764"><ele>159.16666666666669</ele><time>2026-05-03T09:43:48.808Z</time></trkpt><trkpt lat="42.029018" lon="12.1480226"><ele>158.33333333333334</ele><time>2026-05-03T09:43:50.815Z</time></trkpt><trkpt lat="42.0289549" lon="12.1480006"><ele>157.5</ele><time>2026-05-03T09:43:51.836Z</time></trkpt><trkpt lat="42.0288881" lon="12.1479779"><ele>156.66666666666666</ele><time>2026-05-03T09:43:52.803Z</time></trkpt><trkpt lat="42.0288187" lon="12.1479536"><ele>155.83333333333331</ele><time>2026-05-03T09:43:53.804Z</time></trkpt><trkpt lat="42.0287479" lon="12.1479308"><ele>155.0</ele><time>2026-05-03T09:43:54.8Z</time></trkpt><trkpt lat="42.0286758" lon="12.1479094"><ele>155.0</ele><time>2026-05-03T09:43:55.796Z</time></trkpt><trkpt lat="42.0286034" lon="12.1478891"><ele>155.0</ele><time>2026-05-03T09:43:56.814Z</time></trkpt><trkpt lat="42.0285253" lon="12.1478664"><ele>155.0</ele><time>2026-05-03T09:43:57.817Z</time></trkpt><trkpt lat="42.0284505" lon="12.1478502"><ele>155.0</ele><time>2026-05-03T09:43:58.799Z</time></trkpt><trkpt lat="42.0283698" lon="12.1478314"><ele>155.0</ele><time>2026-05-03T09:43:59.802Z</time></trkpt><trkpt lat="42.0282935" lon="12.1478051"><ele>155.0</ele><time>2026-05-03T09:44:00.808Z</time></trkpt><trkpt lat="42.0282214" lon="12.1477787"><ele>154.42857142857144</ele><time>2026-05-03T09:44:01.828Z</time></trkpt><trkpt lat="42.0281517" lon="12.1477535"><ele>153.85714285714286</ele><time>2026-05-03T09:44:02.803Z</time></trkpt><trkpt lat="42.0280828" lon="12.1477317"><ele>153.28571428571428</ele><time>2026-05-03T09:44:03.82Z</time></trkpt><trkpt lat="42.0280098" lon="12.1477062"><ele>152.71428571428572</ele><time>2026-05-03T09:44:04.799Z</time></trkpt><trkpt lat="42.0279374" lon="12.1476901"><ele>152.14285714285714</ele><time>2026-05-03T09:44:05.798Z</time></trkpt><trkpt lat="42.0278687" lon="12.1476869"><ele>151.57142857142858</ele><time>2026-05-03T09:44:06.811Z</time></trkpt><trkpt lat="42.0278019" lon="12.1476697"><ele>151.0</ele><time>2026-05-03T09:44:07.831Z</time></trkpt><trkpt lat="42.0277325" lon="12.1476568"><ele>151.0</ele><time>2026-05-03T09:44:08.804Z</time></trkpt><trkpt lat="42.0276687" lon="12.1476407"><ele>151.0</ele><time>2026-05-03T09:44:09.798Z</time></trkpt><trkpt lat="42.0275955" lon="12.147615"><ele>151.0</ele><time>2026-05-03T09:44:10.804Z</time></trkpt><trkpt lat="42.027528" lon="12.147579"><ele>151.0</ele><time>2026-05-03T09:44:11.81Z</time></trkpt><trkpt lat="42.0274559" lon="12.1475369"><ele>151.0</ele><time>2026-05-03T09:44:12.804Z</time></trkpt><trkpt lat="42.0273862" lon="12.147489"><ele>151.0</ele><time>2026-05-03T09:44:13.794Z</time></trkpt><trkpt lat="42.0273154" lon="12.1474276"><ele>149.66666666666669</ele><time>2026-05-03T09:44:14.839Z</time></trkpt><trkpt lat="42.0272423" lon="12.1473717"><ele>148.33333333333334</ele><time>2026-05-03T09:44:15.822Z</time></trkpt><trkpt lat="42.0271622" lon="12.1473183"><ele>147.0</ele><time>2026-05-03T09:44:16.786Z</time></trkpt><trkpt lat="42.027089" lon="12.1472712"><ele>145.66666666666666</ele><time>2026-05-03T09:44:17.808Z</time></trkpt><trkpt lat="42.027021" lon="12.1472327"><ele>144.33333333333331</ele><time>2026-05-03T09:44:18.808Z</time></trkpt><trkpt lat="42.0269449" lon="12.1471955"><ele>143.0</ele><time>2026-05-03T09:44:19.804Z</time></trkpt><trkpt lat="42.0268745" lon="12.1471595"><ele>143.0</ele><time>2026-05-03T09:44:20.803Z</time></trkpt><trkpt lat="42.0268007" lon="12.1471153"><ele>143.0</ele><time>2026-05-03T09:44:21.785Z</time></trkpt><trkpt lat="42.0267248" lon="12.147079"><ele>143.0</ele><time>2026-05-03T09:44:22.8Z</time></trkpt><trkpt lat="42.0266552" lon="12.1470421"><ele>143.0</ele><time>2026-05-03T09:44:23.789Z</time></trkpt><trkpt lat="42.0265822" lon="12.1470059"><ele>143.0</ele><time>2026-05-03T09:44:24.815Z</time></trkpt><trkpt lat="42.0265122" lon="12.1469831"><ele>143.0</ele><time>2026-05-03T09:44:25.8Z</time></trkpt><trkpt lat="42.026437" lon="12.1469651"><ele>141.83333333333331</ele><time>2026-05-03T09:44:26.786Z</time></trkpt><trkpt lat="42.0263605" lon="12.1469442"><ele>140.66666666666666</ele><time>2026-05-03T09:44:27.795Z</time></trkpt><trkpt lat="42.0262825" lon="12.1469356"><ele>139.5</ele><time>2026-05-03T09:44:28.8Z</time></trkpt><trkpt lat="42.0262046" lon="12.1469478"><ele>138.33333333333334</ele><time>2026-05-03T09:44:29.821Z</time></trkpt><trkpt lat="42.0261286" lon="12.1469748"><ele>137.16666666666669</ele><time>2026-05-03T09:44:30.803Z</time></trkpt><trkpt lat="42.0260492" lon="12.146995"><ele>136.0</ele><time>2026-05-03T09:44:31.781Z</time></trkpt><trkpt lat="42.0259684" lon="12.1470112"><ele>136.0</ele><time>2026-05-03T09:44:32.813Z</time></trkpt><trkpt lat="42.0258801" lon="12.147027"><ele>136.0</ele><time>2026-05-03T09:44:33.781Z</time></trkpt><trkpt lat="42.0257951" lon="12.147048"><ele>136.0</ele><time>2026-05-03T09:44:34.813Z</time></trkpt><trkpt lat="42.0257172" lon="12.147069"><ele>136.0</ele><time>2026-05-03T09:44:35.801Z</time></trkpt><trkpt lat="42.0256335" lon="12.1470918"><ele>136.0</ele><time>2026-05-03T09:44:36.846Z</time></trkpt><trkpt lat="42.0255524" lon="12.147109"><ele>136.0</ele><time>2026-05-03T09:44:37.832Z</time></trkpt><trkpt lat="42.0254768" lon="12.1471205"><ele>135.85714285714283</ele><time>2026-05-03T09:44:38.82Z</time></trkpt><trkpt lat="42.025404" lon="12.1471483"><ele>135.71428571428572</ele><time>2026-05-03T09:44:39.799Z</time></trkpt><trkpt lat="42.0253326" lon="12.1471761"><ele>135.57142857142856</ele><time>2026-05-03T09:44:40.811Z</time></trkpt><trkpt lat="42.0252642" lon="12.1472073"><ele>135.42857142857142</ele><time>2026-05-03T09:44:41.815Z</time></trkpt><trkpt lat="42.0252004" lon="12.1472412"><ele>135.28571428571428</ele><time>2026-05-03T09:44:42.795Z</time></trkpt><trkpt lat="42.0251365" lon="12.1472741"><ele>135.14285714285714</ele><time>2026-05-03T09:44:43.807Z</time></trkpt><trkpt lat="42.0250776" lon="12.1473077"><ele>135.0</ele><time>2026-05-03T09:44:44.796Z</time></trkpt><trkpt lat="42.0249756" lon="12.1473623"><ele>135.5</ele><time>2026-05-03T09:44:46.805Z</time></trkpt><trkpt lat="42.024885" lon="12.147411"><ele>136.0</ele><time>2026-05-03T09:44:48.8Z</time></trkpt><trkpt lat="42.0247983" lon="12.1474322"><ele>136.5</ele><time>2026-05-03T09:44:50.791Z</time></trkpt><trkpt lat="42.0247235" lon="12.1474512"><ele>137.0</ele><time>2026-05-03T09:44:52.791Z</time></trkpt><trkpt lat="42.0246476" lon="12.1474546"><ele>137.5</ele><time>2026-05-03T09:44:54.796Z</time></trkpt><trkpt lat="42.0245686" lon="12.1474658"><ele>138.0</ele><time>2026-05-03T09:44:56.785Z</time></trkpt><trkpt lat="42.0244958" lon="12.1474816"><ele>138.0</ele><time>2026-05-03T09:44:58.796Z</time></trkpt><trkpt lat="42.0244299" lon="12.1474817"><ele>138.0</ele><time>2026-05-03T09:45:00.806Z</time></trkpt><trkpt lat="42.0243597" lon="12.1474935"><ele>138.0</ele><time>2026-05-03T09:45:02.871Z</time></trkpt><trkpt lat="42.0242931" lon="12.1474879"><ele>138.0</ele><time>2026-05-03T09:45:04.791Z</time></trkpt><trkpt lat="42.0242179" lon="12.1474893"><ele>138.0</ele><time>2026-05-03T09:45:06.799Z</time></trkpt><trkpt lat="42.0241398" lon="12.1474964"><ele>138.0</ele><time>2026-05-03T09:45:08.78Z</time></trkpt><trkpt lat="42.0240581" lon="12.1475053"><ele>138.0</ele><time>2026-05-03T09:45:10.788Z</time></trkpt><trkpt lat="42.0239752" lon="12.1475186"><ele>137.6</ele><time>2026-05-03T09:45:12.792Z</time></trkpt><trkpt lat="42.0238859" lon="12.1475225"><ele>137.20000000000002</ele><time>2026-05-03T09:45:14.781Z</time></trkpt><trkpt lat="42.0237897" lon="12.1475413"><ele>136.8</ele><time>2026-05-03T09:45:16.792Z</time></trkpt><trkpt lat="42.0236942" lon="12.1475646"><ele>136.4</ele><time>2026-05-03T09:45:18.79Z</time></trkpt><trkpt lat="42.0235906" lon="12.1475839"><ele>136.0</ele><time>2026-05-03T09:45:20.792Z</time></trkpt><trkpt lat="42.0234931" lon="12.1475971"><ele>136.0</ele><time>2026-05-03T09:45:22.8Z</time></trkpt><trkpt lat="42.0233905" lon="12.1476188"><ele>136.0</ele><time>2026-05-03T09:45:24.783Z</time></trkpt><trkpt lat="42.0232992" lon="12.1476366"><ele>136.0</ele><time>2026-05-03T09:45:26.789Z</time></trkpt><trkpt lat="42.0232139" lon="12.147649"><ele>136.0</ele><time>2026-05-03T09:45:28.813Z</time></trkpt><trkpt lat="42.023121" lon="12.1476666"><ele>136.0</ele><time>2026-05-03T09:45:30.787Z</time></trkpt><trkpt lat="42.0230291" lon="12.147689"><ele>137.0</ele><time>2026-05-03T09:45:32.782Z</time></trkpt><trkpt lat="42.0229396" lon="12.1477022"><ele>138.0</ele><time>2026-05-03T09:45:34.796Z</time></trkpt><trkpt lat="42.0228545" lon="12.1477265"><ele>139.0</ele><time>2026-05-03T09:45:36.79Z</time></trkpt><trkpt lat="42.0227714" lon="12.1477661"><ele>140.0</ele><time>2026-05-03T09:45:38.792Z</time></trkpt><trkpt lat="42.0226994" lon="12.1478351"><ele>141.0</ele><time>2026-05-03T09:45:40.794Z</time></trkpt><trkpt lat="42.0226419" lon="12.1479214"><ele>142.0</ele><time>2026-05-03T09:45:42.783Z</time></trkpt><trkpt lat="42.0226023" lon="12.1480214"><ele>142.0</ele><time>2026-05-03T09:45:44.783Z</time></trkpt><trkpt lat="42.0225624" lon="12.1481209"><ele>142.0</ele><time>2026-05-03T09:45:46.782Z</time></trkpt><trkpt lat="42.022518" lon="12.1482171"><ele>142.0</ele><time>2026-05-03T09:45:48.787Z</time></trkpt><trkpt lat="42.0224772" lon="12.1483096"><ele>142.0</ele><time>2026-05-03T09:45:50.786Z</time></trkpt><trkpt lat="42.0224398" lon="12.148399"><ele>142.0</ele><time>2026-05-03T09:45:52.787Z</time></trkpt><trkpt lat="42.0224052" lon="12.1484784"><ele>142.0</ele><time>2026-05-03T09:45:54.791Z</time></trkpt><trkpt lat="42.0223596" lon="12.1485819"><ele>142.14285714285714</ele><time>2026-05-03T09:45:57.788Z</time></trkpt><trkpt lat="42.0223223" lon="12.1486728"><ele>142.28571428571428</ele><time>2026-05-03T09:46:00.808Z</time></trkpt><trkpt lat="42.0222883" lon="12.1487556"><ele>142.42857142857142</ele><time>2026-05-03T09:46:03.818Z</time></trkpt><trkpt lat="42.0222475" lon="12.1488452"><ele>142.57142857142856</ele><time>2026-05-03T09:46:07.789Z</time></trkpt><trkpt lat="42.0222131" lon="12.1489164"><ele>142.71428571428572</ele><time>2026-05-03T09:46:11.794Z</time></trkpt><trkpt lat="42.022151" lon="12.1489348"><ele>142.85714285714283</ele><time>2026-05-03T09:46:14.815Z</time></trkpt><trkpt lat="42.0220899" lon="12.1488514"><ele>143.0</ele><time>2026-05-03T09:46:17.812Z</time></trkpt><trkpt lat="42.0220427" lon="12.1487875"><ele>143.0</ele><time>2026-05-03T09:46:19.791Z</time></trkpt><trkpt lat="42.0219931" lon="12.1487179"><ele>143.0</ele><time>2026-05-03T09:46:21.788Z</time></trkpt><trkpt lat="42.021939" lon="12.1486463"><ele>143.0</ele><time>2026-05-03T09:46:23.814Z</time></trkpt><trkpt lat="42.021887" lon="12.1485718"><ele>143.0</ele><time>2026-05-03T09:46:25.795Z</time></trkpt><trkpt lat="42.0218345" lon="12.1484905"><ele>143.0</ele><time>2026-05-03T09:46:27.813Z</time></trkpt><trkpt lat="42.0217832" lon="12.1484141"><ele>143.0</ele><time>2026-05-03T09:46:29.792Z</time></trkpt><trkpt lat="42.021732" lon="12.1483351"><ele>143.0</ele><time>2026-05-03T09:46:31.809Z</time></trkpt><trkpt lat="42.0216817" lon="12.1482528"><ele>143.0</ele><time>2026-05-03T09:46:33.788Z</time></trkpt><trkpt lat="42.0216295" lon="12.1481727"><ele>143.0</ele><time>2026-05-03T09:46:35.787Z</time></trkpt><trkpt lat="42.0215789" lon="12.1480918"><ele>143.0</ele><time>2026-05-03T09:46:37.785Z</time></trkpt><trkpt lat="42.0215252" lon="12.1480053"><ele>143.0</ele><time>2026-05-03T09:46:39.809Z</time></trkpt><trkpt lat="42.0214732" lon="12.1479179"><ele>143.0</ele><time>2026-05-03T09:46:41.803Z</time></trkpt><trkpt lat="42.0214196" lon="12.1478304"><ele>143.5</ele><time>2026-05-03T09:46:43.791Z</time></trkpt><trkpt lat="42.0213643" lon="12.1477431"><ele>144.0</ele><time>2026-05-03T09:46:45.8Z</time></trkpt><trkpt lat="42.0213099" lon="12.1476602"><ele>144.5</ele><time>2026-05-03T09:46:47.784Z</time></trkpt><trkpt lat="42.0212534" lon="12.1475687"><ele>145.0</ele><time>2026-05-03T09:46:49.793Z</time></trkpt><trkpt lat="42.0211981" lon="12.1474813"><ele>145.5</ele><time>2026-05-03T09:46:52.805Z</time></trkpt><trkpt lat="42.0211357" lon="12.1473904"><ele>146.0</ele><time>2026-05-03T09:46:53.785Z</time></trkpt><trkpt lat="42.021073" lon="12.147292"><ele>146.0</ele><time>2026-05-03T09:46:55.794Z</time></trkpt><trkpt lat="42.0210129" lon="12.1471995"><ele>146.0</ele><time>2026-05-03T09:46:57.8Z</time></trkpt><trkpt lat="42.0209538" lon="12.1471013"><ele>146.0</ele><time>2026-05-03T09:46:59.804Z</time></trkpt><trkpt lat="42.020898" lon="12.1470047"><ele>146.0</ele><time>2026-05-03T09:47:01.801Z</time></trkpt><trkpt lat="42.020848" lon="12.1469105"><ele>146.0</ele><time>2026-05-03T09:47:03.789Z</time></trkpt><trkpt lat="42.0208001" lon="12.1468099"><ele>145.8</ele><time>2026-05-03T09:47:05.799Z</time></trkpt><trkpt lat="42.0207508" lon="12.1467125"><ele>145.6</ele><time>2026-05-03T09:47:07.798Z</time></trkpt><trkpt lat="42.0207013" lon="12.146615"><ele>145.4</ele><time>2026-05-03T09:47:09.791Z</time></trkpt><trkpt lat="42.020653" lon="12.1465073"><ele>145.2</ele><time>2026-05-03T09:47:11.785Z</time></trkpt><trkpt lat="42.0206097" lon="12.1463979"><ele>145.0</ele><time>2026-05-03T09:47:13.796Z</time></trkpt><trkpt lat="42.0205621" lon="12.1462866"><ele>145.0</ele><time>2026-05-03T09:47:15.785Z</time></trkpt><trkpt lat="42.0205218" lon="12.1461664"><ele>145.0</ele><time>2026-05-03T09:47:17.784Z</time></trkpt><trkpt lat="42.0204622" lon="12.1459871"><ele>145.0</ele><time>2026-05-03T09:47:20.786Z</time></trkpt><trkpt lat="42.0204224" lon="12.1458722"><ele>145.0</ele><time>2026-05-03T09:47:22.801Z</time></trkpt><trkpt lat="42.0203864" lon="12.1457571"><ele>145.0</ele><time>2026-05-03T09:47:24.793Z</time></trkpt><trkpt lat="42.0203521" lon="12.1456223"><ele>146.0</ele><time>2026-05-03T09:47:26.812Z</time></trkpt><trkpt lat="42.0203215" lon="12.1455014"><ele>147.0</ele><time>2026-05-03T09:47:28.806Z</time></trkpt><trkpt lat="42.0202878" lon="12.1453854"><ele>148.0</ele><time>2026-05-03T09:47:30.798Z</time></trkpt><trkpt lat="42.0202578" lon="12.1452671"><ele>149.0</ele><time>2026-05-03T09:47:32.8Z</time></trkpt><trkpt lat="42.0202257" lon="12.1451523"><ele>150.0</ele><time>2026-05-03T09:47:34.799Z</time></trkpt><trkpt lat="42.0201984" lon="12.14504"><ele>150.0</ele><time>2026-05-03T09:47:36.833Z</time></trkpt><trkpt lat="42.0201655" lon="12.1449188"><ele>150.0</ele><time>2026-05-03T09:47:38.799Z</time></trkpt><trkpt lat="42.0201339" lon="12.1447913"><ele>150.0</ele><time>2026-05-03T09:47:40.804Z</time></trkpt><trkpt lat="42.020102" lon="12.144663"><ele>150.0</ele><time>2026-05-03T09:47:42.813Z</time></trkpt><trkpt lat="42.0200724" lon="12.1445499"><ele>150.0</ele><time>2026-05-03T09:47:44.804Z</time></trkpt><trkpt lat="42.0200367" lon="12.1444364"><ele>150.2</ele><time>2026-05-03T09:47:46.793Z</time></trkpt><trkpt lat="42.0200048" lon="12.1443104"><ele>150.4</ele><time>2026-05-03T09:47:48.808Z</time></trkpt><trkpt lat="42.0199667" lon="12.1441789"><ele>150.6</ele><time>2026-05-03T09:47:50.784Z</time></trkpt><trkpt lat="42.0199349" lon="12.1440554"><ele>150.8</ele><time>2026-05-03T09:47:52.816Z</time></trkpt><trkpt lat="42.0198947" lon="12.1439169"><ele>151.0</ele><time>2026-05-03T09:47:54.802Z</time></trkpt><trkpt lat="42.0198572" lon="12.143777"><ele>150.25</ele><time>2026-05-03T09:47:56.798Z</time></trkpt><trkpt lat="42.0198233" lon="12.1436287"><ele>149.5</ele><time>2026-05-03T09:47:58.785Z</time></trkpt><trkpt lat="42.0197773" lon="12.1434754"><ele>148.75</ele><time>2026-05-03T09:48:00.817Z</time></trkpt><trkpt lat="42.0197388" lon="12.143332"><ele>148.0</ele><time>2026-05-03T09:48:02.78Z</time></trkpt><trkpt lat="42.0196993" lon="12.1431842"><ele>147.5</ele><time>2026-05-03T09:48:04.782Z</time></trkpt><trkpt lat="42.0196548" lon="12.143036"><ele>147.0</ele><time>2026-05-03T09:48:06.798Z</time></trkpt><trkpt lat="42.0196129" lon="12.1428812"><ele>146.5</ele><time>2026-05-03T09:48:08.797Z</time></trkpt><trkpt lat="42.0195875" lon="12.1428031"><ele>146.0</ele><time>2026-05-03T09:48:09.788Z</time></trkpt><trkpt lat="42.0195624" lon="12.1427172"><ele>145.5</ele><time>2026-05-03T09:48:10.78Z</time></trkpt><trkpt lat="42.0195408" lon="12.1426342"><ele>145.0</ele><time>2026-05-03T09:48:11.782Z</time></trkpt><trkpt lat="42.0195133" lon="12.1425506"><ele>145.0</ele><time>2026-05-03T09:48:12.785Z</time></trkpt><trkpt lat="42.0194877" lon="12.1424674"><ele>145.0</ele><time>2026-05-03T09:48:13.786Z</time></trkpt><trkpt lat="42.0194616" lon="12.1423837"><ele>145.0</ele><time>2026-05-03T09:48:14.781Z</time></trkpt><trkpt lat="42.0194324" lon="12.1423005"><ele>145.0</ele><time>2026-05-03T09:48:15.778Z</time></trkpt><trkpt lat="42.0194024" lon="12.1422189"><ele>145.0</ele><time>2026-05-03T09:48:16.782Z</time></trkpt><trkpt lat="42.0193711" lon="12.1421353"><ele>145.0</ele><time>2026-05-03T09:48:17.784Z</time></trkpt><trkpt lat="42.0193456" lon="12.1420541"><ele>145.0</ele><time>2026-05-03T09:48:18.778Z</time></trkpt><trkpt lat="42.0193184" lon="12.1419759"><ele>144.57142857142858</ele><time>2026-05-03T09:48:19.783Z</time></trkpt><trkpt lat="42.0192852" lon="12.141899"><ele>144.14285714285717</ele><time>2026-05-03T09:48:20.778Z</time></trkpt><trkpt lat="42.0192566" lon="12.1418179"><ele>143.71428571428572</ele><time>2026-05-03T09:48:21.78Z</time></trkpt><trkpt lat="42.0192286" lon="12.1417345"><ele>143.28571428571428</ele><time>2026-05-03T09:48:22.782Z</time></trkpt><trkpt lat="42.0191975" lon="12.1416526"><ele>142.85714285714283</ele><time>2026-05-03T09:48:23.787Z</time></trkpt><trkpt lat="42.0191664" lon="12.1415698"><ele>142.42857142857142</ele><time>2026-05-03T09:48:24.781Z</time></trkpt><trkpt lat="42.0191357" lon="12.1414879"><ele>142.0</ele><time>2026-05-03T09:48:25.779Z</time></trkpt><trkpt lat="42.0191032" lon="12.1414138"><ele>141.42857142857142</ele><time>2026-05-03T09:48:26.78Z</time></trkpt><trkpt lat="42.0190738" lon="12.1413345"><ele>140.85714285714283</ele><time>2026-05-03T09:48:27.78Z</time></trkpt><trkpt lat="42.0190377" lon="12.1412542"><ele>140.28571428571428</ele><time>2026-05-03T09:48:28.778Z</time></trkpt><trkpt lat="42.019004" lon="12.1411763"><ele>139.71428571428572</ele><time>2026-05-03T09:48:29.785Z</time></trkpt><trkpt lat="42.0189699" lon="12.1410938"><ele>139.14285714285717</ele><time>2026-05-03T09:48:30.78Z</time></trkpt><trkpt lat="42.0189338" lon="12.1410102"><ele>138.57142857142858</ele><time>2026-05-03T09:48:31.781Z</time></trkpt><trkpt lat="42.018901" lon="12.1409263"><ele>138.0</ele><time>2026-05-03T09:48:32.778Z</time></trkpt><trkpt lat="42.0188656" lon="12.1408435"><ele>138.0</ele><time>2026-05-03T09:48:33.782Z</time></trkpt><trkpt lat="42.0188317" lon="12.140761"><ele>138.0</ele><time>2026-05-03T09:48:34.884Z</time></trkpt><trkpt lat="42.0187683" lon="12.1406031"><ele>138.0</ele><time>2026-05-03T09:48:36.78Z</time></trkpt><trkpt lat="42.0187326" lon="12.1405223"><ele>138.0</ele><time>2026-05-03T09:48:37.778Z</time></trkpt><trkpt lat="42.0186979" lon="12.1404477"><ele>138.0</ele><time>2026-05-03T09:48:38.78Z</time></trkpt><trkpt lat="42.0186643" lon="12.1403724"><ele>138.0</ele><time>2026-05-03T09:48:39.778Z</time></trkpt><trkpt lat="42.0186285" lon="12.1402996"><ele>138.33333333333334</ele><time>2026-05-03T09:48:40.778Z</time></trkpt><trkpt lat="42.018594" lon="12.1402233"><ele>138.66666666666666</ele><time>2026-05-03T09:48:41.779Z</time></trkpt><trkpt lat="42.0185588" lon="12.1401498"><ele>139.0</ele><time>2026-05-03T09:48:42.779Z</time></trkpt><trkpt lat="42.0185207" lon="12.1400788"><ele>139.33333333333331</ele><time>2026-05-03T09:48:43.782Z</time></trkpt><trkpt lat="42.0184536" lon="12.1399523"><ele>139.66666666666666</ele><time>2026-05-03T09:48:45.781Z</time></trkpt><trkpt lat="42.0183841" lon="12.1398274"><ele>140.0</ele><time>2026-05-03T09:48:47.781Z</time></trkpt><trkpt lat="42.0183165" lon="12.1397001"><ele>140.6</ele><time>2026-05-03T09:48:49.784Z</time></trkpt><trkpt lat="42.0182531" lon="12.1395802"><ele>141.2</ele><time>2026-05-03T09:48:51.782Z</time></trkpt><trkpt lat="42.0181899" lon="12.1394705"><ele>141.8</ele><time>2026-05-03T09:48:53.779Z</time></trkpt><trkpt lat="42.0181284" lon="12.1393625"><ele>142.4</ele><time>2026-05-03T09:48:55.781Z</time></trkpt><trkpt lat="42.0180682" lon="12.1392483"><ele>143.0</ele><time>2026-05-03T09:48:57.779Z</time></trkpt><trkpt lat="42.0180091" lon="12.1391301"><ele>143.6</ele><time>2026-05-03T09:48:59.786Z</time></trkpt><trkpt lat="42.0179484" lon="12.1390122"><ele>144.20000000000002</ele><time>2026-05-03T09:49:01.779Z</time></trkpt><trkpt lat="42.0178974" lon="12.1388862"><ele>144.8</ele><time>2026-05-03T09:49:03.784Z</time></trkpt><trkpt lat="42.0178464" lon="12.1387699"><ele>145.4</ele><time>2026-05-03T09:49:05.78Z</time></trkpt><trkpt lat="42.0177943" lon="12.1386406"><ele>146.0</ele><time>2026-05-03T09:49:07.784Z</time></trkpt><trkpt lat="42.0177439" lon="12.1385102"><ele>146.0</ele><time>2026-05-03T09:49:09.78Z</time></trkpt><trkpt lat="42.0176921" lon="12.138378"><ele>146.0</ele><time>2026-05-03T09:49:11.787Z</time></trkpt><trkpt lat="42.017649" lon="12.1382409"><ele>146.0</ele><time>2026-05-03T09:49:13.78Z</time></trkpt><trkpt lat="42.0175964" lon="12.1380987"><ele>146.0</ele><time>2026-05-03T09:49:15.78Z</time></trkpt><trkpt lat="42.0175659" lon="12.1379609"><ele>146.0</ele><time>2026-05-03T09:49:17.783Z</time></trkpt><trkpt lat="42.0175279" lon="12.1378035"><ele>145.57142857142856</ele><time>2026-05-03T09:49:19.78Z</time></trkpt><trkpt lat="42.0175108" lon="12.1377198"><ele>145.14285714285714</ele><time>2026-05-03T09:49:20.779Z</time></trkpt><trkpt lat="42.0174922" lon="12.1376299"><ele>144.71428571428572</ele><time>2026-05-03T09:49:21.787Z</time></trkpt><trkpt lat="42.0174766" lon="12.1375378"><ele>144.28571428571428</ele><time>2026-05-03T09:49:22.782Z</time></trkpt><trkpt lat="42.0174593" lon="12.137439"><ele>143.85714285714286</ele><time>2026-05-03T09:49:23.779Z</time></trkpt><trkpt lat="42.0174461" lon="12.1373539"><ele>143.42857142857142</ele><time>2026-05-03T09:49:24.779Z</time></trkpt><trkpt lat="42.0174257" lon="12.1372609"><ele>143.0</ele><time>2026-05-03T09:49:25.778Z</time></trkpt><trkpt lat="42.0174034" lon="12.1371633"><ele>142.0</ele><time>2026-05-03T09:49:26.779Z</time></trkpt><trkpt lat="42.0173864" lon="12.1370702"><ele>141.0</ele><time>2026-05-03T09:49:27.784Z</time></trkpt><trkpt lat="42.0173642" lon="12.1369683"><ele>140.0</ele><time>2026-05-03T09:49:28.78Z</time></trkpt><trkpt lat="42.0173462" lon="12.1368666"><ele>139.0</ele><time>2026-05-03T09:49:29.781Z</time></trkpt><trkpt lat="42.0173297" lon="12.1367743"><ele>138.0</ele><time>2026-05-03T09:49:30.784Z</time></trkpt><trkpt lat="42.0173063" lon="12.1366744"><ele>137.0</ele><time>2026-05-03T09:49:31.78Z</time></trkpt><trkpt lat="42.0172823" lon="12.1365751"><ele>136.16666666666666</ele><time>2026-05-03T09:49:32.782Z</time></trkpt><trkpt lat="42.0172644" lon="12.1364715"><ele>135.33333333333331</ele><time>2026-05-03T09:49:33.78Z</time></trkpt><trkpt lat="42.0172419" lon="12.1363707"><ele>134.5</ele><time>2026-05-03T09:49:34.781Z</time></trkpt><trkpt lat="42.0172228" lon="12.1362663"><ele>133.66666666666666</ele><time>2026-05-03T09:49:35.783Z</time></trkpt><trkpt lat="42.0171994" lon="12.136162"><ele>132.83333333333334</ele><time>2026-05-03T09:49:36.779Z</time></trkpt><trkpt lat="42.0171795" lon="12.1360591"><ele>132.0</ele><time>2026-05-03T09:49:37.784Z</time></trkpt><trkpt lat="42.017155" lon="12.1359533"><ele>132.0</ele><time>2026-05-03T09:49:38.781Z</time></trkpt><trkpt lat="42.0171334" lon="12.1358405"><ele>132.0</ele><time>2026-05-03T09:49:39.781Z</time></trkpt><trkpt lat="42.0171074" lon="12.1357291"><ele>132.0</ele><time>2026-05-03T09:49:40.78Z</time></trkpt><trkpt lat="42.0170865" lon="12.1356209"><ele>132.0</ele><time>2026-05-03T09:49:41.78Z</time></trkpt><trkpt lat="42.0170607" lon="12.135509"><ele>132.0</ele><time>2026-05-03T09:49:42.78Z</time></trkpt><trkpt lat="42.0170515" lon="12.1354129"><ele>132.0</ele><time>2026-05-03T09:49:43.784Z</time></trkpt><trkpt lat="42.0170283" lon="12.1353136"><ele>132.0</ele><time>2026-05-03T09:49:44.782Z</time></trkpt><trkpt lat="42.0170044" lon="12.1352107"><ele>132.0</ele><time>2026-05-03T09:49:45.78Z</time></trkpt><trkpt lat="42.0169822" lon="12.1351105"><ele>132.0</ele><time>2026-05-03T09:49:46.781Z</time></trkpt><trkpt lat="42.016958" lon="12.135009"><ele>132.0</ele><time>2026-05-03T09:49:47.779Z</time></trkpt><trkpt lat="42.0169353" lon="12.1349098"><ele>132.0</ele><time>2026-05-03T09:49:48.781Z</time></trkpt><trkpt lat="42.0169099" lon="12.1348101"><ele>132.0</ele><time>2026-05-03T09:49:49.779Z</time></trkpt><trkpt lat="42.0168839" lon="12.1347113"><ele>131.66666666666666</ele><time>2026-05-03T09:49:50.781Z</time></trkpt><trkpt lat="42.0168584" lon="12.1346145"><ele>131.33333333333334</ele><time>2026-05-03T09:49:51.781Z</time></trkpt><trkpt lat="42.0168295" lon="12.134518"><ele>131.0</ele><time>2026-05-03T09:49:52.78Z</time></trkpt><trkpt lat="42.0167984" lon="12.1344218"><ele>130.66666666666669</ele><time>2026-05-03T09:49:53.78Z</time></trkpt><trkpt lat="42.0167672" lon="12.1343267"><ele>130.33333333333334</ele><time>2026-05-03T09:49:54.78Z</time></trkpt><trkpt lat="42.0167329" lon="12.1342322"><ele>130.0</ele><time>2026-05-03T09:49:55.782Z</time></trkpt><trkpt lat="42.0166918" lon="12.1341391"><ele>129.33333333333334</ele><time>2026-05-03T09:49:56.779Z</time></trkpt><trkpt lat="42.0166526" lon="12.13405"><ele>128.66666666666669</ele><time>2026-05-03T09:49:57.784Z</time></trkpt><trkpt lat="42.0166066" lon="12.1339627"><ele>128.0</ele><time>2026-05-03T09:49:58.781Z</time></trkpt><trkpt lat="42.0165592" lon="12.1338786"><ele>127.33333333333334</ele><time>2026-05-03T09:49:59.782Z</time></trkpt><trkpt lat="42.016514" lon="12.1337947"><ele>126.66666666666667</ele><time>2026-05-03T09:50:00.785Z</time></trkpt><trkpt lat="42.0164674" lon="12.1337127"><ele>126.0</ele><time>2026-05-03T09:50:01.78Z</time></trkpt><trkpt lat="42.01642" lon="12.1336383"><ele>126.0</ele><time>2026-05-03T09:50:02.778Z</time></trkpt><trkpt lat="42.0163714" lon="12.1335629"><ele>126.0</ele><time>2026-05-03T09:50:03.781Z</time></trkpt><trkpt lat="42.0163212" lon="12.1334921"><ele>126.0</ele><time>2026-05-03T09:50:04.78Z</time></trkpt><trkpt lat="42.0162724" lon="12.1334179"><ele>126.0</ele><time>2026-05-03T09:50:05.785Z</time></trkpt><trkpt lat="42.0162239" lon="12.1333486"><ele>126.0</ele><time>2026-05-03T09:50:06.781Z</time></trkpt><trkpt lat="42.0161251" lon="12.1332156"><ele>126.0</ele><time>2026-05-03T09:50:08.781Z</time></trkpt><trkpt lat="42.0160733" lon="12.1331548"><ele>125.83333333333333</ele><time>2026-05-03T09:50:09.785Z</time></trkpt><trkpt lat="42.0160229" lon="12.1330934"><ele>125.66666666666666</ele><time>2026-05-03T09:50:10.782Z</time></trkpt><trkpt lat="42.0159721" lon="12.1330288"><ele>125.5</ele><time>2026-05-03T09:50:11.786Z</time></trkpt><trkpt lat="42.0159196" lon="12.1329666"><ele>125.33333333333333</ele><time>2026-05-03T09:50:12.787Z</time></trkpt><trkpt lat="42.0158678" lon="12.1329001"><ele>125.16666666666666</ele><time>2026-05-03T09:50:13.783Z</time></trkpt><trkpt lat="42.0158167" lon="12.1328292"><ele>125.0</ele><time>2026-05-03T09:50:14.783Z</time></trkpt><trkpt lat="42.0157337" lon="12.1326999"><ele>125.16666666666666</ele><time>2026-05-03T09:50:16.786Z</time></trkpt><trkpt lat="42.0156802" lon="12.1326356"><ele>125.33333333333333</ele><time>2026-05-03T09:50:17.783Z</time></trkpt><trkpt lat="42.0156348" lon="12.1325705"><ele>125.5</ele><time>2026-05-03T09:50:18.782Z</time></trkpt><trkpt lat="42.0155432" lon="12.1324487"><ele>125.66666666666666</ele><time>2026-05-03T09:50:20.783Z</time></trkpt><trkpt lat="42.0154955" lon="12.1323832"><ele>125.83333333333333</ele><time>2026-05-03T09:50:21.78Z</time></trkpt><trkpt lat="42.0154494" lon="12.132319"><ele>126.0</ele><time>2026-05-03T09:50:22.786Z</time></trkpt><trkpt lat="42.0153967" lon="12.1322539"><ele>126.0</ele><time>2026-05-03T09:50:23.779Z</time></trkpt><trkpt lat="42.015341" lon="12.1321907"><ele>126.0</ele><time>2026-05-03T09:50:24.79Z</time></trkpt><trkpt lat="42.0152866" lon="12.1321292"><ele>126.0</ele><time>2026-05-03T09:50:25.782Z</time></trkpt><trkpt lat="42.0152325" lon="12.1320668"><ele>126.0</ele><time>2026-05-03T09:50:26.784Z</time></trkpt><trkpt lat="42.0151809" lon="12.1320053"><ele>126.0</ele><time>2026-05-03T09:50:27.778Z</time></trkpt><trkpt lat="42.015128" lon="12.1319439"><ele>126.0</ele><time>2026-05-03T09:50:28.784Z</time></trkpt><trkpt lat="42.0150755" lon="12.131877"><ele>126.0</ele><time>2026-05-03T09:50:29.786Z</time></trkpt><trkpt lat="42.0150212" lon="12.1318114"><ele>125.71428571428572</ele><time>2026-05-03T09:50:30.782Z</time></trkpt><trkpt lat="42.0149729" lon="12.1317511"><ele>125.42857142857143</ele><time>2026-05-03T09:50:31.783Z</time></trkpt><trkpt lat="42.0149203" lon="12.1316842"><ele>125.14285714285714</ele><time>2026-05-03T09:50:32.781Z</time></trkpt><trkpt lat="42.0148702" lon="12.1316166"><ele>124.85714285714286</ele><time>2026-05-03T09:50:33.781Z</time></trkpt><trkpt lat="42.0148158" lon="12.1315496"><ele>124.57142857142858</ele><time>2026-05-03T09:50:34.784Z</time></trkpt><trkpt lat="42.0147627" lon="12.1314824"><ele>124.28571428571429</ele><time>2026-05-03T09:50:35.78Z</time></trkpt><trkpt lat="42.014707" lon="12.1314184"><ele>124.0</ele><time>2026-05-03T09:50:36.781Z</time></trkpt><trkpt lat="42.0146538" lon="12.1313484"><ele>124.0</ele><time>2026-05-03T09:50:37.78Z</time></trkpt><trkpt lat="42.014601" lon="12.131281"><ele>124.00000000000001</ele><time>2026-05-03T09:50:38.779Z</time></trkpt><trkpt lat="42.0145496" lon="12.1312112"><ele>124.0</ele><time>2026-05-03T09:50:39.784Z</time></trkpt><trkpt lat="42.0144933" lon="12.1311467"><ele>124.0</ele><time>2026-05-03T09:50:40.785Z</time></trkpt><trkpt lat="42.0144394" lon="12.1310792"><ele>124.00000000000001</ele><time>2026-05-03T09:50:41.782Z</time></trkpt><trkpt lat="42.0143853" lon="12.1310108"><ele>124.0</ele><time>2026-05-03T09:50:42.783Z</time></trkpt><trkpt lat="42.0143331" lon="12.1309453"><ele>124.0</ele><time>2026-05-03T09:50:43.781Z</time></trkpt><trkpt lat="42.0142807" lon="12.1308731"><ele>124.0</ele><time>2026-05-03T09:50:44.781Z</time></trkpt><trkpt lat="42.0142282" lon="12.1308014"><ele>124.00000000000001</ele><time>2026-05-03T09:50:45.78Z</time></trkpt><trkpt lat="42.014174" lon="12.1307378"><ele>124.0</ele><time>2026-05-03T09:50:46.782Z</time></trkpt><trkpt lat="42.0141202" lon="12.1306691"><ele>124.0</ele><time>2026-05-03T09:50:47.783Z</time></trkpt><trkpt lat="42.0140661" lon="12.1306005"><ele>124.00000000000001</ele><time>2026-05-03T09:50:48.786Z</time></trkpt><trkpt lat="42.0140138" lon="12.1305338"><ele>124.0</ele><time>2026-05-03T09:50:49.78Z</time></trkpt><trkpt lat="42.0139619" lon="12.1304742"><ele>124.0</ele><time>2026-05-03T09:50:50.781Z</time></trkpt><trkpt lat="42.0139038" lon="12.1304158"><ele>123.28571428571429</ele><time>2026-05-03T09:50:51.788Z</time></trkpt><trkpt lat="42.0138461" lon="12.1303529"><ele>122.57142857142858</ele><time>2026-05-03T09:50:52.779Z</time></trkpt><trkpt lat="42.0137872" lon="12.1302971"><ele>121.85714285714286</ele><time>2026-05-03T09:50:53.783Z</time></trkpt><trkpt lat="42.0137267" lon="12.1302436"><ele>121.14285714285714</ele><time>2026-05-03T09:50:54.784Z</time></trkpt><trkpt lat="42.0136604" lon="12.1301908"><ele>120.42857142857143</ele><time>2026-05-03T09:50:55.781Z</time></trkpt><trkpt lat="42.013594" lon="12.1301405"><ele>119.71428571428572</ele><time>2026-05-03T09:50:56.789Z</time></trkpt><trkpt lat="42.0135321" lon="12.1300919"><ele>119.0</ele><time>2026-05-03T09:50:57.784Z</time></trkpt><trkpt lat="42.0134723" lon="12.1300436"><ele>118.99999999999999</ele><time>2026-05-03T09:50:58.782Z</time></trkpt><trkpt lat="42.0134062" lon="12.1299938"><ele>119.0</ele><time>2026-05-03T09:50:59.784Z</time></trkpt><trkpt lat="42.0133375" lon="12.1299492"><ele>119.0</ele><time>2026-05-03T09:51:00.788Z</time></trkpt><trkpt lat="42.0132682" lon="12.1299105"><ele>119.0</ele><time>2026-05-03T09:51:01.784Z</time></trkpt><trkpt lat="42.013197" lon="12.1298635"><ele>118.99999999999999</ele><time>2026-05-03T09:51:02.785Z</time></trkpt><trkpt lat="42.0131323" lon="12.1298207"><ele>119.0</ele><time>2026-05-03T09:51:03.783Z</time></trkpt><trkpt lat="42.0130638" lon="12.1297739"><ele>119.16666666666666</ele><time>2026-05-03T09:51:04.787Z</time></trkpt><trkpt lat="42.0129934" lon="12.1297274"><ele>119.33333333333333</ele><time>2026-05-03T09:51:05.783Z</time></trkpt><trkpt lat="42.0129266" lon="12.1296821"><ele>119.5</ele><time>2026-05-03T09:51:06.782Z</time></trkpt><trkpt lat="42.0128573" lon="12.1296338"><ele>119.66666666666666</ele><time>2026-05-03T09:51:07.783Z</time></trkpt><trkpt lat="42.0127882" lon="12.1295872"><ele>119.83333333333333</ele><time>2026-05-03T09:51:08.781Z</time></trkpt><trkpt lat="42.0127162" lon="12.1295411"><ele>120.0</ele><time>2026-05-03T09:51:09.78Z</time></trkpt><trkpt lat="42.0126464" lon="12.1294955"><ele>120.0</ele><time>2026-05-03T09:51:10.782Z</time></trkpt><trkpt lat="42.0125742" lon="12.1294547"><ele>120.0</ele><time>2026-05-03T09:51:11.779Z</time></trkpt><trkpt lat="42.012507" lon="12.1294071"><ele>120.0</ele><time>2026-05-03T09:51:12.783Z</time></trkpt><trkpt lat="42.0124347" lon="12.1293616"><ele>120.0</ele><time>2026-05-03T09:51:13.783Z</time></trkpt><trkpt lat="42.0123651" lon="12.129314"><ele>120.0</ele><time>2026-05-03T09:51:14.784Z</time></trkpt><trkpt lat="42.0122974" lon="12.1292666"><ele>120.0</ele><time>2026-05-03T09:51:15.782Z</time></trkpt><trkpt lat="42.0122315" lon="12.1292171"><ele>120.16666666666667</ele><time>2026-05-03T09:51:16.782Z</time></trkpt><trkpt lat="42.0121638" lon="12.129181"><ele>120.33333333333334</ele><time>2026-05-03T09:51:17.781Z</time></trkpt><trkpt lat="42.0120949" lon="12.1291338"><ele>120.5</ele><time>2026-05-03T09:51:18.78Z</time></trkpt><trkpt lat="42.0120279" lon="12.1290878"><ele>120.66666666666667</ele><time>2026-05-03T09:51:19.779Z</time></trkpt><trkpt lat="42.0119573" lon="12.1290436"><ele>120.83333333333334</ele><time>2026-05-03T09:51:20.78Z</time></trkpt><trkpt lat="42.0118872" lon="12.1290046"><ele>121.0</ele><time>2026-05-03T09:51:21.778Z</time></trkpt><trkpt lat="42.011814" lon="12.1289524"><ele>121.0</ele><time>2026-05-03T09:51:22.778Z</time></trkpt><trkpt lat="42.0117506" lon="12.1289072"><ele>120.99999999999999</ele><time>2026-05-03T09:51:23.783Z</time></trkpt><trkpt lat="42.0116787" lon="12.1288639"><ele>121.0</ele><time>2026-05-03T09:51:24.78Z</time></trkpt><trkpt lat="42.0116104" lon="12.1288244"><ele>121.0</ele><time>2026-05-03T09:51:25.779Z</time></trkpt><trkpt lat="42.0115416" lon="12.1287767"><ele>120.99999999999999</ele><time>2026-05-03T09:51:26.781Z</time></trkpt><trkpt lat="42.0114772" lon="12.1287327"><ele>121.0</ele><time>2026-05-03T09:51:27.777Z</time></trkpt><trkpt lat="42.0114091" lon="12.1286911"><ele>121.0</ele><time>2026-05-03T09:51:28.78Z</time></trkpt><trkpt lat="42.011347" lon="12.1286386"><ele>119.66666666666667</ele><time>2026-05-03T09:51:29.782Z</time></trkpt><trkpt lat="42.0112811" lon="12.1285879"><ele>118.33333333333334</ele><time>2026-05-03T09:51:30.781Z</time></trkpt><trkpt lat="42.0112118" lon="12.1285436"><ele>117.0</ele><time>2026-05-03T09:51:31.788Z</time></trkpt><trkpt lat="42.0111473" lon="12.1284915"><ele>115.66666666666666</ele><time>2026-05-03T09:51:32.778Z</time></trkpt><trkpt lat="42.0110847" lon="12.1284346"><ele>114.33333333333333</ele><time>2026-05-03T09:51:33.782Z</time></trkpt><trkpt lat="42.0110187" lon="12.1283777"><ele>113.0</ele><time>2026-05-03T09:51:34.781Z</time></trkpt><trkpt lat="42.0109546" lon="12.1283227"><ele>112.99999999999999</ele><time>2026-05-03T09:51:35.776Z</time></trkpt><trkpt lat="42.0108931" lon="12.1282663"><ele>113.0</ele><time>2026-05-03T09:51:36.779Z</time></trkpt><trkpt lat="42.0108293" lon="12.1282034"><ele>113.0</ele><time>2026-05-03T09:51:37.778Z</time></trkpt><trkpt lat="42.0107706" lon="12.1281377"><ele>113.0</ele><time>2026-05-03T09:51:38.78Z</time></trkpt><trkpt lat="42.0107099" lon="12.1280746"><ele>112.99999999999999</ele><time>2026-05-03T09:51:39.781Z</time></trkpt><trkpt lat="42.0106534" lon="12.1280081"><ele>113.0</ele><time>2026-05-03T09:51:40.781Z</time></trkpt><trkpt lat="42.0105981" lon="12.1279395"><ele>112.57142857142857</ele><time>2026-05-03T09:51:41.781Z</time></trkpt><trkpt lat="42.0105444" lon="12.127869"><ele>112.14285714285714</ele><time>2026-05-03T09:51:42.778Z</time></trkpt><trkpt lat="42.0104945" lon="12.127799"><ele>111.71428571428571</ele><time>2026-05-03T09:51:43.78Z</time></trkpt><trkpt lat="42.0104393" lon="12.1277349"><ele>111.28571428571428</ele><time>2026-05-03T09:51:44.78Z</time></trkpt><trkpt lat="42.0103856" lon="12.1276685"><ele>110.85714285714286</ele><time>2026-05-03T09:51:45.779Z</time></trkpt><trkpt lat="42.0103301" lon="12.1276018"><ele>110.42857142857142</ele><time>2026-05-03T09:51:46.781Z</time></trkpt><trkpt lat="42.0102754" lon="12.1275348"><ele>110.0</ele><time>2026-05-03T09:51:47.781Z</time></trkpt><trkpt lat="42.0102181" lon="12.1274769"><ele>109.99999999999999</ele><time>2026-05-03T09:51:48.781Z</time></trkpt><trkpt lat="42.0101629" lon="12.1274052"><ele>110.0</ele><time>2026-05-03T09:51:49.782Z</time></trkpt><trkpt lat="42.0101027" lon="12.1273401"><ele>110.0</ele><time>2026-05-03T09:51:50.782Z</time></trkpt><trkpt lat="42.0100425" lon="12.1272772"><ele>110.0</ele><time>2026-05-03T09:51:51.78Z</time></trkpt><trkpt lat="42.0099814" lon="12.1272201"><ele>109.99999999999999</ele><time>2026-05-03T09:51:52.78Z</time></trkpt><trkpt lat="42.0099179" lon="12.1271589"><ele>110.0</ele><time>2026-05-03T09:51:53.781Z</time></trkpt><trkpt lat="42.0098536" lon="12.1271042"><ele>109.83333333333333</ele><time>2026-05-03T09:51:54.782Z</time></trkpt><trkpt lat="42.0097923" lon="12.1270453"><ele>109.66666666666666</ele><time>2026-05-03T09:51:55.786Z</time></trkpt><trkpt lat="42.0097306" lon="12.1269883"><ele>109.5</ele><time>2026-05-03T09:51:56.78Z</time></trkpt><trkpt lat="42.009674" lon="12.1269307"><ele>109.33333333333334</ele><time>2026-05-03T09:51:57.782Z</time></trkpt><trkpt lat="42.0096064" lon="12.1268759"><ele>109.16666666666667</ele><time>2026-05-03T09:51:58.781Z</time></trkpt><trkpt lat="42.009542" lon="12.1268235"><ele>109.0</ele><time>2026-05-03T09:51:59.781Z</time></trkpt><trkpt lat="42.0094769" lon="12.1267671"><ele>109.00000000000001</ele><time>2026-05-03T09:52:00.783Z</time></trkpt><trkpt lat="42.0094125" lon="12.1267128"><ele>109.0</ele><time>2026-05-03T09:52:01.782Z</time></trkpt><trkpt lat="42.0093473" lon="12.1266634"><ele>109.0</ele><time>2026-05-03T09:52:02.779Z</time></trkpt><trkpt lat="42.0092819" lon="12.1266095"><ele>109.0</ele><time>2026-05-03T09:52:03.784Z</time></trkpt><trkpt lat="42.009219" lon="12.1265526"><ele>109.00000000000001</ele><time>2026-05-03T09:52:04.777Z</time></trkpt><trkpt lat="42.0091535" lon="12.1264988"><ele>109.0</ele><time>2026-05-03T09:52:05.787Z</time></trkpt><trkpt lat="42.0090919" lon="12.1264425"><ele>108.57142857142857</ele><time>2026-05-03T09:52:06.78Z</time></trkpt><trkpt lat="42.0090293" lon="12.1263876"><ele>108.14285714285714</ele><time>2026-05-03T09:52:07.782Z</time></trkpt><trkpt lat="42.0089698" lon="12.1263337"><ele>107.71428571428572</ele><time>2026-05-03T09:52:08.778Z</time></trkpt><trkpt lat="42.0089048" lon="12.1262809"><ele>107.28571428571428</ele><time>2026-05-03T09:52:09.788Z</time></trkpt><trkpt lat="42.0088433" lon="12.1262295"><ele>106.85714285714285</ele><time>2026-05-03T09:52:10.779Z</time></trkpt><trkpt lat="42.0087813" lon="12.1261733"><ele>106.42857142857143</ele><time>2026-05-03T09:52:11.787Z</time></trkpt><trkpt lat="42.0087176" lon="12.1261218"><ele>106.0</ele><time>2026-05-03T09:52:12.779Z</time></trkpt><trkpt lat="42.0086532" lon="12.1260655"><ele>106.00000000000001</ele><time>2026-05-03T09:52:13.777Z</time></trkpt><trkpt lat="42.0085912" lon="12.1260111"><ele>106.0</ele><time>2026-05-03T09:52:14.779Z</time></trkpt><trkpt lat="42.0085254" lon="12.1259529"><ele>106.0</ele><time>2026-05-03T09:52:15.778Z</time></trkpt><trkpt lat="42.0084603" lon="12.1258982"><ele>106.0</ele><time>2026-05-03T09:52:16.778Z</time></trkpt><trkpt lat="42.0083939" lon="12.1258443"><ele>106.00000000000001</ele><time>2026-05-03T09:52:17.778Z</time></trkpt><trkpt lat="42.0083268" lon="12.1257932"><ele>106.0</ele><time>2026-05-03T09:52:18.78Z</time></trkpt><trkpt lat="42.008259" lon="12.1257391"><ele>106.16666666666667</ele><time>2026-05-03T09:52:19.779Z</time></trkpt><trkpt lat="42.0081935" lon="12.125687"><ele>106.33333333333334</ele><time>2026-05-03T09:52:20.781Z</time></trkpt><trkpt lat="42.0081237" lon="12.1256283"><ele>106.5</ele><time>2026-05-03T09:52:21.781Z</time></trkpt><trkpt lat="42.0080561" lon="12.1255796"><ele>106.66666666666666</ele><time>2026-05-03T09:52:22.783Z</time></trkpt><trkpt lat="42.0079892" lon="12.1255207"><ele>106.83333333333333</ele><time>2026-05-03T09:52:23.779Z</time></trkpt><trkpt lat="42.0079193" lon="12.1254633"><ele>107.0</ele><time>2026-05-03T09:52:24.78Z</time></trkpt><trkpt lat="42.0078513" lon="12.1254114"><ele>106.99999999999999</ele><time>2026-05-03T09:52:25.782Z</time></trkpt><trkpt lat="42.0077837" lon="12.1253554"><ele>107.0</ele><time>2026-05-03T09:52:26.78Z</time></trkpt><trkpt lat="42.0077111" lon="12.1253007"><ele>107.0</ele><time>2026-05-03T09:52:27.782Z</time></trkpt><trkpt lat="42.0076406" lon="12.1252463"><ele>107.0</ele><time>2026-05-03T09:52:28.779Z</time></trkpt><trkpt lat="42.0075789" lon="12.1251938"><ele>106.99999999999999</ele><time>2026-05-03T09:52:29.78Z</time></trkpt><trkpt lat="42.0075154" lon="12.1251409"><ele>107.0</ele><time>2026-05-03T09:52:30.78Z</time></trkpt><trkpt lat="42.0074478" lon="12.1250845"><ele>106.85714285714286</ele><time>2026-05-03T09:52:31.781Z</time></trkpt><trkpt lat="42.0073859" lon="12.1250328"><ele>106.71428571428572</ele><time>2026-05-03T09:52:32.778Z</time></trkpt><trkpt lat="42.0073209" lon="12.1249768"><ele>106.57142857142858</ele><time>2026-05-03T09:52:33.778Z</time></trkpt><trkpt lat="42.0072586" lon="12.1249208"><ele>106.42857142857143</ele><time>2026-05-03T09:52:34.779Z</time></trkpt><trkpt lat="42.007198" lon="12.12487"><ele>106.28571428571428</ele><time>2026-05-03T09:52:35.782Z</time></trkpt><trkpt lat="42.0071325" lon="12.1248187"><ele>106.14285714285715</ele><time>2026-05-03T09:52:36.78Z</time></trkpt><trkpt lat="42.0070672" lon="12.1247679"><ele>106.0</ele><time>2026-05-03T09:52:37.784Z</time></trkpt><trkpt lat="42.0070075" lon="12.1247249"><ele>106.0</ele><time>2026-05-03T09:52:38.79Z</time></trkpt><trkpt lat="42.0069454" lon="12.1246771"><ele>106.0</ele><time>2026-05-03T09:52:39.779Z</time></trkpt><trkpt lat="42.0068837" lon="12.1246288"><ele>106.0</ele><time>2026-05-03T09:52:40.781Z</time></trkpt><trkpt lat="42.0068211" lon="12.1245824"><ele>106.0</ele><time>2026-05-03T09:52:41.78Z</time></trkpt><trkpt lat="42.0067557" lon="12.1245338"><ele>106.0</ele><time>2026-05-03T09:52:42.781Z</time></trkpt><trkpt lat="42.0066916" lon="12.1244939"><ele>106.0</ele><time>2026-05-03T09:52:43.781Z</time></trkpt><trkpt lat="42.0066237" lon="12.1244494"><ele>106.0</ele><time>2026-05-03T09:52:44.779Z</time></trkpt><trkpt lat="42.0065559" lon="12.1244045"><ele>104.66666666666667</ele><time>2026-05-03T09:52:45.785Z</time></trkpt><trkpt lat="42.0064866" lon="12.1243615"><ele>103.33333333333334</ele><time>2026-05-03T09:52:46.779Z</time></trkpt><trkpt lat="42.0064202" lon="12.1243177"><ele>102.0</ele><time>2026-05-03T09:52:47.785Z</time></trkpt><trkpt lat="42.0063498" lon="12.1242721"><ele>100.66666666666666</ele><time>2026-05-03T09:52:48.779Z</time></trkpt><trkpt lat="42.0062778" lon="12.1242246"><ele>99.33333333333333</ele><time>2026-05-03T09:52:49.785Z</time></trkpt><trkpt lat="42.0062116" lon="12.1241841"><ele>98.0</ele><time>2026-05-03T09:52:50.782Z</time></trkpt><trkpt lat="42.006142" lon="12.1241368"><ele>97.99999999999999</ele><time>2026-05-03T09:52:51.782Z</time></trkpt><trkpt lat="42.0060729" lon="12.1240886"><ele>98.0</ele><time>2026-05-03T09:52:52.782Z</time></trkpt><trkpt lat="42.0060025" lon="12.1240445"><ele>98.0</ele><time>2026-05-03T09:52:53.782Z</time></trkpt><trkpt lat="42.005935" lon="12.1240025"><ele>98.0</ele><time>2026-05-03T09:52:54.783Z</time></trkpt><trkpt lat="42.0058681" lon="12.1239571"><ele>97.99999999999999</ele><time>2026-05-03T09:52:55.783Z</time></trkpt><trkpt lat="42.0057993" lon="12.1239116"><ele>98.0</ele><time>2026-05-03T09:52:56.783Z</time></trkpt><trkpt lat="42.0057356" lon="12.1238697"><ele>97.28571428571429</ele><time>2026-05-03T09:52:57.781Z</time></trkpt><trkpt lat="42.0056688" lon="12.1238266"><ele>96.57142857142857</ele><time>2026-05-03T09:52:58.787Z</time></trkpt><trkpt lat="42.0056005" lon="12.1237892"><ele>95.85714285714286</ele><time>2026-05-03T09:52:59.786Z</time></trkpt><trkpt lat="42.0055378" lon="12.1237498"><ele>95.14285714285714</ele><time>2026-05-03T09:53:00.785Z</time></trkpt><trkpt lat="42.0054719" lon="12.1237085"><ele>94.42857142857143</ele><time>2026-05-03T09:53:01.78Z</time></trkpt><trkpt lat="42.0054059" lon="12.1236608"><ele>93.71428571428572</ele><time>2026-05-03T09:53:02.777Z</time></trkpt><trkpt lat="42.0053407" lon="12.1236187"><ele>93.0</ele><time>2026-05-03T09:53:03.784Z</time></trkpt><trkpt lat="42.0052749" lon="12.1235742"><ele>93.00000000000001</ele><time>2026-05-03T09:53:04.779Z</time></trkpt><trkpt lat="42.0052109" lon="12.1235281"><ele>93.0</ele><time>2026-05-03T09:53:05.777Z</time></trkpt><trkpt lat="42.0051458" lon="12.1234837"><ele>93.0</ele><time>2026-05-03T09:53:06.78Z</time></trkpt><trkpt lat="42.0050818" lon="12.1234379"><ele>93.0</ele><time>2026-05-03T09:53:07.783Z</time></trkpt><trkpt lat="42.0050182" lon="12.1233921"><ele>93.0</ele><time>2026-05-03T09:53:08.781Z</time></trkpt><trkpt lat="42.004954" lon="12.1233425"><ele>93.00000000000001</ele><time>2026-05-03T09:53:09.78Z</time></trkpt><trkpt lat="42.0048923" lon="12.1232851"><ele>93.0</ele><time>2026-05-03T09:53:10.779Z</time></trkpt><trkpt lat="42.0048357" lon="12.1232221"><ele>93.83333333333333</ele><time>2026-05-03T09:53:11.78Z</time></trkpt><trkpt lat="42.0047782" lon="12.1231548"><ele>94.66666666666666</ele><time>2026-05-03T09:53:12.778Z</time></trkpt><trkpt lat="42.0047247" lon="12.1230797"><ele>95.5</ele><time>2026-05-03T09:53:13.787Z</time></trkpt><trkpt lat="42.004675" lon="12.1230048"><ele>96.33333333333333</ele><time>2026-05-03T09:53:14.779Z</time></trkpt><trkpt lat="42.0046294" lon="12.1229183"><ele>97.16666666666666</ele><time>2026-05-03T09:53:15.777Z</time></trkpt><trkpt lat="42.0045906" lon="12.1228264"><ele>98.0</ele><time>2026-05-03T09:53:16.781Z</time></trkpt><trkpt lat="42.0045541" lon="12.1227338"><ele>97.99999999999999</ele><time>2026-05-03T09:53:17.779Z</time></trkpt><trkpt lat="42.004523" lon="12.1226367"><ele>98.0</ele><time>2026-05-03T09:53:18.782Z</time></trkpt><trkpt lat="42.0044889" lon="12.1225427"><ele>98.0</ele><time>2026-05-03T09:53:19.78Z</time></trkpt><trkpt lat="42.0044531" lon="12.1224533"><ele>98.0</ele><time>2026-05-03T09:53:20.78Z</time></trkpt><trkpt lat="42.0044119" lon="12.1223701"><ele>97.99999999999999</ele><time>2026-05-03T09:53:21.779Z</time></trkpt><trkpt lat="42.0043671" lon="12.1222921"><ele>98.0</ele><time>2026-05-03T09:53:22.778Z</time></trkpt><trkpt lat="42.0043127" lon="12.1222168"><ele>95.71428571428571</ele><time>2026-05-03T09:53:23.78Z</time></trkpt><trkpt lat="42.0042601" lon="12.1221489"><ele>93.42857142857143</ele><time>2026-05-03T09:53:24.779Z</time></trkpt><trkpt lat="42.0042025" lon="12.1220843"><ele>91.14285714285714</ele><time>2026-05-03T09:53:25.78Z</time></trkpt><trkpt lat="42.0041422" lon="12.1220269"><ele>88.85714285714286</ele><time>2026-05-03T09:53:26.778Z</time></trkpt><trkpt lat="42.004082" lon="12.1219817"><ele>86.57142857142857</ele><time>2026-05-03T09:53:27.778Z</time></trkpt><trkpt lat="42.0040161" lon="12.1219471"><ele>84.28571428571428</ele><time>2026-05-03T09:53:28.78Z</time></trkpt><trkpt lat="42.0039432" lon="12.1219103"><ele>82.0</ele><time>2026-05-03T09:53:29.78Z</time></trkpt><trkpt lat="42.0038749" lon="12.1218898"><ele>81.71428571428571</ele><time>2026-05-03T09:53:30.782Z</time></trkpt><trkpt lat="42.0038024" lon="12.1218783"><ele>81.42857142857143</ele><time>2026-05-03T09:53:31.779Z</time></trkpt><trkpt lat="42.0037295" lon="12.1218651"><ele>81.14285714285714</ele><time>2026-05-03T09:53:32.781Z</time></trkpt><trkpt lat="42.0036574" lon="12.1218599"><ele>80.85714285714286</ele><time>2026-05-03T09:53:33.781Z</time></trkpt><trkpt lat="42.0035814" lon="12.1218701"><ele>80.57142857142857</ele><time>2026-05-03T09:53:34.782Z</time></trkpt><trkpt lat="42.003505" lon="12.1218876"><ele>80.28571428571428</ele><time>2026-05-03T09:53:35.779Z</time></trkpt><trkpt lat="42.0034332" lon="12.1218953"><ele>80.0</ele><time>2026-05-03T09:53:36.781Z</time></trkpt><trkpt lat="42.0033526" lon="12.121909"><ele>80.33333333333334</ele><time>2026-05-03T09:53:37.781Z</time></trkpt><trkpt lat="42.0032776" lon="12.1219217"><ele>80.66666666666667</ele><time>2026-05-03T09:53:38.78Z</time></trkpt><trkpt lat="42.0031975" lon="12.1219334"><ele>81.0</ele><time>2026-05-03T09:53:39.778Z</time></trkpt><trkpt lat="42.0031172" lon="12.1219371"><ele>81.33333333333333</ele><time>2026-05-03T09:53:40.782Z</time></trkpt><trkpt lat="42.0030346" lon="12.1219463"><ele>81.66666666666666</ele><time>2026-05-03T09:53:41.784Z</time></trkpt><trkpt lat="42.0029532" lon="12.1219525"><ele>82.0</ele><time>2026-05-03T09:53:42.777Z</time></trkpt><trkpt lat="42.002871" lon="12.1219526"><ele>82.0</ele><time>2026-05-03T09:53:43.783Z</time></trkpt><trkpt lat="42.0027853" lon="12.1219449"><ele>82.0</ele><time>2026-05-03T09:53:44.779Z</time></trkpt><trkpt lat="42.0026971" lon="12.1219285"><ele>82.0</ele><time>2026-05-03T09:53:45.782Z</time></trkpt><trkpt lat="42.0026122" lon="12.1219036"><ele>82.0</ele><time>2026-05-03T09:53:46.781Z</time></trkpt><trkpt lat="42.0025264" lon="12.1218711"><ele>82.0</ele><time>2026-05-03T09:53:47.786Z</time></trkpt><trkpt lat="42.0024435" lon="12.1218365"><ele>82.0</ele><time>2026-05-03T09:53:48.78Z</time></trkpt><trkpt lat="42.0023646" lon="12.1217759"><ele>80.19999999999999</ele><time>2026-05-03T09:53:49.783Z</time></trkpt><trkpt lat="42.0022846" lon="12.1217121"><ele>78.39999999999999</ele><time>2026-05-03T09:53:50.783Z</time></trkpt><trkpt lat="42.0022014" lon="12.1216509"><ele>76.6</ele><time>2026-05-03T09:53:51.784Z</time></trkpt><trkpt lat="42.0021237" lon="12.1215805"><ele>74.8</ele><time>2026-05-03T09:53:52.78Z</time></trkpt><trkpt lat="42.0020494" lon="12.121501"><ele>73.0</ele><time>2026-05-03T09:53:53.784Z</time></trkpt><trkpt lat="42.0019815" lon="12.1214172"><ele>73.0</ele><time>2026-05-03T09:53:54.784Z</time></trkpt><trkpt lat="42.0019141" lon="12.1213332"><ele>73.0</ele><time>2026-05-03T09:53:55.784Z</time></trkpt><trkpt lat="42.0018423" lon="12.1212455"><ele>73.0</ele><time>2026-05-03T09:53:56.778Z</time></trkpt><trkpt lat="42.0017734" lon="12.12116"><ele>73.0</ele><time>2026-05-03T09:53:57.778Z</time></trkpt><trkpt lat="42.0017047" lon="12.1210797"><ele>73.0</ele><time>2026-05-03T09:53:58.777Z</time></trkpt><trkpt lat="42.0016335" lon="12.1209988"><ele>74.66666666666666</ele><time>2026-05-03T09:53:59.781Z</time></trkpt><trkpt lat="42.0015666" lon="12.1209219"><ele>76.33333333333333</ele><time>2026-05-03T09:54:00.782Z</time></trkpt><trkpt lat="42.0014945" lon="12.1208518"><ele>78.0</ele><time>2026-05-03T09:54:01.779Z</time></trkpt><trkpt lat="42.0014198" lon="12.1207868"><ele>79.66666666666667</ele><time>2026-05-03T09:54:02.785Z</time></trkpt><trkpt lat="42.0013437" lon="12.1207322"><ele>81.33333333333334</ele><time>2026-05-03T09:54:03.778Z</time></trkpt><trkpt lat="42.0012626" lon="12.1206816"><ele>83.0</ele><time>2026-05-03T09:54:04.779Z</time></trkpt><trkpt lat="42.0011815" lon="12.1206368"><ele>80.0</ele><time>2026-05-03T09:54:05.777Z</time></trkpt><trkpt lat="42.001095" lon="12.1205921"><ele>77.0</ele><time>2026-05-03T09:54:06.78Z</time></trkpt><trkpt lat="42.0010046" lon="12.1205521"><ele>74.0</ele><time>2026-05-03T09:54:07.78Z</time></trkpt><trkpt lat="42.0009128" lon="12.1205103"><ele>71.0</ele><time>2026-05-03T09:54:08.78Z</time></trkpt><trkpt lat="42.0008178" lon="12.1204687"><ele>68.0</ele><time>2026-05-03T09:54:09.781Z</time></trkpt><trkpt lat="42.0007229" lon="12.1204278"><ele>68.0</ele><time>2026-05-03T09:54:10.779Z</time></trkpt><trkpt lat="42.0006362" lon="12.1203842"><ele>68.0</ele><time>2026-05-03T09:54:11.78Z</time></trkpt><trkpt lat="42.0005488" lon="12.1203381"><ele>68.0</ele><time>2026-05-03T09:54:12.78Z</time></trkpt><trkpt lat="42.0004609" lon="12.1202934"><ele>68.0</ele><time>2026-05-03T09:54:13.778Z</time></trkpt><trkpt lat="42.0003828" lon="12.1202384"><ele>68.0</ele><time>2026-05-03T09:54:14.783Z</time></trkpt><trkpt lat="42.0003039" lon="12.1201838"><ele>68.0</ele><time>2026-05-03T09:54:15.778Z</time></trkpt><trkpt lat="42.0002286" lon="12.1201287"><ele>68.0</ele><time>2026-05-03T09:54:16.78Z</time></trkpt><trkpt lat="42.0001536" lon="12.1200677"><ele>68.0</ele><time>2026-05-03T09:54:17.781Z</time></trkpt><trkpt lat="42.0000822" lon="12.1200017"><ele>68.0</ele><time>2026-05-03T09:54:18.779Z</time></trkpt><trkpt lat="42.0000133" lon="12.1199314"><ele>68.0</ele><time>2026-05-03T09:54:19.778Z</time></trkpt><trkpt lat="41.9999507" lon="12.1198576"><ele>68.0</ele><time>2026-05-03T09:54:20.779Z</time></trkpt><trkpt lat="41.9998862" lon="12.1197844"><ele>65.33333333333334</ele><time>2026-05-03T09:54:21.781Z</time></trkpt><trkpt lat="41.9998245" lon="12.1197175"><ele>62.66666666666667</ele><time>2026-05-03T09:54:22.784Z</time></trkpt><trkpt lat="41.9997578" lon="12.1196419"><ele>60.0</ele><time>2026-05-03T09:54:23.779Z</time></trkpt><trkpt lat="41.9996938" lon="12.1195699"><ele>57.33333333333333</ele><time>2026-05-03T09:54:24.783Z</time></trkpt><trkpt lat="41.9996296" lon="12.1194994"><ele>54.666666666666664</ele><time>2026-05-03T09:54:25.779Z</time></trkpt><trkpt lat="41.9995655" lon="12.119427"><ele>52.0</ele><time>2026-05-03T09:54:26.779Z</time></trkpt><trkpt lat="41.9994993" lon="12.1193532"><ele>51.99999999999999</ele><time>2026-05-03T09:54:27.781Z</time></trkpt><trkpt lat="41.9994315" lon="12.1192876"><ele>52.0</ele><time>2026-05-03T09:54:28.78Z</time></trkpt><trkpt lat="41.9993664" lon="12.1192128"><ele>52.0</ele><time>2026-05-03T09:54:29.784Z</time></trkpt><trkpt lat="41.9992977" lon="12.1191377"><ele>52.0</ele><time>2026-05-03T09:54:30.778Z</time></trkpt><trkpt lat="41.9992314" lon="12.1190638"><ele>51.99999999999999</ele><time>2026-05-03T09:54:31.78Z</time></trkpt><trkpt lat="41.9991616" lon="12.1189947"><ele>52.0</ele><time>2026-05-03T09:54:32.781Z</time></trkpt><trkpt lat="41.9990959" lon="12.118921"><ele>51.49999999999999</ele><time>2026-05-03T09:54:33.782Z</time></trkpt><trkpt lat="41.9990349" lon="12.1188456"><ele>51.0</ele><time>2026-05-03T09:54:34.778Z</time></trkpt><trkpt lat="41.9989714" lon="12.1187776"><ele>50.5</ele><time>2026-05-03T09:54:35.777Z</time></trkpt><trkpt lat="41.9989072" lon="12.1187067"><ele>50.0</ele><time>2026-05-03T09:54:36.778Z</time></trkpt><trkpt lat="41.9988417" lon="12.1186365"><ele>49.49999999999999</ele><time>2026-05-03T09:54:37.779Z</time></trkpt><trkpt lat="41.9987794" lon="12.1185658"><ele>49.0</ele><time>2026-05-03T09:54:38.781Z</time></trkpt><trkpt lat="41.9987138" lon="12.1184997"><ele>48.99999999999999</ele><time>2026-05-03T09:54:39.785Z</time></trkpt><trkpt lat="41.9986492" lon="12.1184348"><ele>49.0</ele><time>2026-05-03T09:54:40.781Z</time></trkpt><trkpt lat="41.9985857" lon="12.1183762"><ele>49.0</ele><time>2026-05-03T09:54:41.783Z</time></trkpt><trkpt lat="41.9985216" lon="12.1183154"><ele>49.0</ele><time>2026-05-03T09:54:42.785Z</time></trkpt><trkpt lat="41.9984581" lon="12.1182602"><ele>48.99999999999999</ele><time>2026-05-03T09:54:43.784Z</time></trkpt><trkpt lat="41.9983895" lon="12.1182116"><ele>49.0</ele><time>2026-05-03T09:54:44.783Z</time></trkpt><trkpt lat="41.9983225" lon="12.1181719"><ele>48.857142857142854</ele><time>2026-05-03T09:54:45.782Z</time></trkpt><trkpt lat="41.9982548" lon="12.1181289"><ele>48.714285714285715</ele><time>2026-05-03T09:54:46.781Z</time></trkpt><trkpt lat="41.9981917" lon="12.1180835"><ele>48.57142857142857</ele><time>2026-05-03T09:54:47.781Z</time></trkpt><trkpt lat="41.9981275" lon="12.1180336"><ele>48.42857142857143</ele><time>2026-05-03T09:54:48.786Z</time></trkpt><trkpt lat="41.9980718" lon="12.117978"><ele>48.285714285714285</ele><time>2026-05-03T09:54:49.781Z</time></trkpt><trkpt lat="41.9980156" lon="12.1179125"><ele>48.14285714285714</ele><time>2026-05-03T09:54:50.786Z</time></trkpt><trkpt lat="41.9979621" lon="12.1178431"><ele>48.0</ele><time>2026-05-03T09:54:51.778Z</time></trkpt><trkpt lat="41.9979112" lon="12.1177694"><ele>47.99999999999999</ele><time>2026-05-03T09:54:52.784Z</time></trkpt><trkpt lat="41.9978669" lon="12.1177007"><ele>48.0</ele><time>2026-05-03T09:54:53.779Z</time></trkpt><trkpt lat="41.997818" lon="12.1176278"><ele>48.0</ele><time>2026-05-03T09:54:54.781Z</time></trkpt><trkpt lat="41.9977732" lon="12.1175529"><ele>48.0</ele><time>2026-05-03T09:54:55.783Z</time></trkpt><trkpt lat="41.9977275" lon="12.1174808"><ele>48.0</ele><time>2026-05-03T09:54:56.785Z</time></trkpt><trkpt lat="41.9976848" lon="12.1174089"><ele>47.99999999999999</ele><time>2026-05-03T09:54:57.779Z</time></trkpt><trkpt lat="41.9976368" lon="12.1173449"><ele>48.0</ele><time>2026-05-03T09:54:58.783Z</time></trkpt><trkpt lat="41.9975894" lon="12.1172849"><ele>47.99999999999999</ele><time>2026-05-03T09:54:59.778Z</time></trkpt><trkpt lat="41.9975363" lon="12.1172216"><ele>48.0</ele><time>2026-05-03T09:55:00.779Z</time></trkpt><trkpt lat="41.9974803" lon="12.1171586"><ele>48.0</ele><time>2026-05-03T09:55:01.779Z</time></trkpt><trkpt lat="41.9974255" lon="12.1170951"><ele>48.0</ele><time>2026-05-03T09:55:02.779Z</time></trkpt><trkpt lat="41.997374" lon="12.1170284"><ele>48.0</ele><time>2026-05-03T09:55:03.78Z</time></trkpt><trkpt lat="41.9973221" lon="12.1169675"><ele>47.99999999999999</ele><time>2026-05-03T09:55:04.779Z</time></trkpt><trkpt lat="41.9972684" lon="12.1169058"><ele>48.0</ele><time>2026-05-03T09:55:05.779Z</time></trkpt><trkpt lat="41.9972168" lon="12.1168443"><ele>47.99999999999999</ele><time>2026-05-03T09:55:06.78Z</time></trkpt><trkpt lat="41.9971651" lon="12.1167797"><ele>48.0</ele><time>2026-05-03T09:55:07.778Z</time></trkpt><trkpt lat="41.997113" lon="12.1167143"><ele>48.0</ele><time>2026-05-03T09:55:08.783Z</time></trkpt><trkpt lat="41.9970551" lon="12.1166482"><ele>48.0</ele><time>2026-05-03T09:55:09.779Z</time></trkpt><trkpt lat="41.9970029" lon="12.1165864"><ele>48.0</ele><time>2026-05-03T09:55:10.779Z</time></trkpt><trkpt lat="41.9969497" lon="12.1165227"><ele>47.99999999999999</ele><time>2026-05-03T09:55:11.779Z</time></trkpt><trkpt lat="41.9968965" lon="12.1164613"><ele>48.0</ele><time>2026-05-03T09:55:12.781Z</time></trkpt><trkpt lat="41.9968444" lon="12.1164013"><ele>48.285714285714285</ele><time>2026-05-03T09:55:13.779Z</time></trkpt><trkpt lat="41.9967936" lon="12.1163379"><ele>48.57142857142857</ele><time>2026-05-03T09:55:14.778Z</time></trkpt><trkpt lat="41.9967387" lon="12.1162728"><ele>48.85714285714286</ele><time>2026-05-03T09:55:15.778Z</time></trkpt><trkpt lat="41.9966854" lon="12.1162062"><ele>49.14285714285714</ele><time>2026-05-03T09:55:16.782Z</time></trkpt><trkpt lat="41.996634" lon="12.116145"><ele>49.42857142857143</ele><time>2026-05-03T09:55:17.782Z</time></trkpt><trkpt lat="41.99658" lon="12.1160805"><ele>49.714285714285715</ele><time>2026-05-03T09:55:18.779Z</time></trkpt><trkpt lat="41.9965252" lon="12.1160145"><ele>50.0</ele><time>2026-05-03T09:55:19.781Z</time></trkpt><trkpt lat="41.9964704" lon="12.1159518"><ele>50.00000000000001</ele><time>2026-05-03T09:55:20.78Z</time></trkpt><trkpt lat="41.9964165" lon="12.115889"><ele>50.0</ele><time>2026-05-03T09:55:21.779Z</time></trkpt><trkpt lat="41.9963625" lon="12.1158274"><ele>50.0</ele><time>2026-05-03T09:55:22.779Z</time></trkpt><trkpt lat="41.9963059" lon="12.1157633"><ele>50.0</ele><time>2026-05-03T09:55:23.783Z</time></trkpt><trkpt lat="41.9962485" lon="12.1156969"><ele>50.0</ele><time>2026-05-03T09:55:24.78Z</time></trkpt><trkpt lat="41.9961916" lon="12.1156314"><ele>50.00000000000001</ele><time>2026-05-03T09:55:25.778Z</time></trkpt><trkpt lat="41.9961325" lon="12.1155626"><ele>50.0</ele><time>2026-05-03T09:55:26.781Z</time></trkpt><trkpt lat="41.9960748" lon="12.1154944"><ele>49.16666666666667</ele><time>2026-05-03T09:55:27.783Z</time></trkpt><trkpt lat="41.9960105" lon="12.1154236"><ele>48.333333333333336</ele><time>2026-05-03T09:55:28.779Z</time></trkpt><trkpt lat="41.9959493" lon="12.1153575"><ele>47.5</ele><time>2026-05-03T09:55:29.782Z</time></trkpt><trkpt lat="41.995886" lon="12.1152904"><ele>46.66666666666667</ele><time>2026-05-03T09:55:30.78Z</time></trkpt><trkpt lat="41.9958206" lon="12.1152196"><ele>45.833333333333336</ele><time>2026-05-03T09:55:31.782Z</time></trkpt><trkpt lat="41.995759" lon="12.1151478"><ele>45.0</ele><time>2026-05-03T09:55:32.784Z</time></trkpt><trkpt lat="41.9957" lon="12.115078"><ele>45.0</ele><time>2026-05-03T09:55:33.78Z</time></trkpt><trkpt lat="41.995638" lon="12.1150075"><ele>45.0</ele><time>2026-05-03T09:55:34.778Z</time></trkpt><trkpt lat="41.9955746" lon="12.1149433"><ele>45.0</ele><time>2026-05-03T09:55:35.783Z</time></trkpt><trkpt lat="41.9955113" lon="12.114875"><ele>45.0</ele><time>2026-05-03T09:55:36.783Z</time></trkpt><trkpt lat="41.9954495" lon="12.1148063"><ele>45.0</ele><time>2026-05-03T09:55:37.78Z</time></trkpt><trkpt lat="41.9953852" lon="12.1147356"><ele>45.0</ele><time>2026-05-03T09:55:38.78Z</time></trkpt><trkpt lat="41.9953186" lon="12.1146669"><ele>44.833333333333336</ele><time>2026-05-03T09:55:39.783Z</time></trkpt><trkpt lat="41.9952556" lon="12.1145968"><ele>44.666666666666664</ele><time>2026-05-03T09:55:40.786Z</time></trkpt><trkpt lat="41.9951895" lon="12.1145336"><ele>44.5</ele><time>2026-05-03T09:55:41.781Z</time></trkpt><trkpt lat="41.9951255" lon="12.1144663"><ele>44.33333333333333</ele><time>2026-05-03T09:55:42.781Z</time></trkpt><trkpt lat="41.9950622" lon="12.1144"><ele>44.166666666666664</ele><time>2026-05-03T09:55:43.781Z</time></trkpt><trkpt lat="41.9949959" lon="12.1143326"><ele>44.0</ele><time>2026-05-03T09:55:44.782Z</time></trkpt><trkpt lat="41.9949344" lon="12.1142672"><ele>44.0</ele><time>2026-05-03T09:55:45.778Z</time></trkpt><trkpt lat="41.9948736" lon="12.1142109"><ele>44.0</ele><time>2026-05-03T09:55:46.785Z</time></trkpt><trkpt lat="41.9948114" lon="12.1141469"><ele>44.0</ele><time>2026-05-03T09:55:47.783Z</time></trkpt><trkpt lat="41.9947485" lon="12.1140822"><ele>44.0</ele><time>2026-05-03T09:55:48.777Z</time></trkpt><trkpt lat="41.9946856" lon="12.1140181"><ele>44.0</ele><time>2026-05-03T09:55:49.779Z</time></trkpt><trkpt lat="41.9946316" lon="12.1139593"><ele>44.0</ele><time>2026-05-03T09:55:50.778Z</time></trkpt><trkpt lat="41.9945746" lon="12.1138928"><ele>42.85714285714286</ele><time>2026-05-03T09:55:51.781Z</time></trkpt><trkpt lat="41.9945172" lon="12.1138338"><ele>41.714285714285715</ele><time>2026-05-03T09:55:52.782Z</time></trkpt><trkpt lat="41.9944575" lon="12.1137725"><ele>40.57142857142857</ele><time>2026-05-03T09:55:53.779Z</time></trkpt><trkpt lat="41.9944033" lon="12.1137124"><ele>39.42857142857143</ele><time>2026-05-03T09:55:54.78Z</time></trkpt><trkpt lat="41.9943463" lon="12.1136527"><ele>38.285714285714285</ele><time>2026-05-03T09:55:55.78Z</time></trkpt><trkpt lat="41.9942892" lon="12.1135893"><ele>37.142857142857146</ele><time>2026-05-03T09:55:56.781Z</time></trkpt><trkpt lat="41.9942322" lon="12.1135242"><ele>36.0</ele><time>2026-05-03T09:55:57.779Z</time></trkpt><trkpt lat="41.994174" lon="12.1134626"><ele>36.00000000000001</ele><time>2026-05-03T09:55:58.778Z</time></trkpt><trkpt lat="41.9941164" lon="12.1134023"><ele>36.0</ele><time>2026-05-03T09:55:59.779Z</time></trkpt><trkpt lat="41.9940635" lon="12.1133426"><ele>36.0</ele><time>2026-05-03T09:56:00.782Z</time></trkpt><trkpt lat="41.9940091" lon="12.1132867"><ele>36.0</ele><time>2026-05-03T09:56:01.781Z</time></trkpt><trkpt lat="41.9939514" lon="12.1132248"><ele>36.0</ele><time>2026-05-03T09:56:02.778Z</time></trkpt><trkpt lat="41.9938946" lon="12.1131646"><ele>36.00000000000001</ele><time>2026-05-03T09:56:03.778Z</time></trkpt><trkpt lat="41.9938408" lon="12.1131053"><ele>36.0</ele><time>2026-05-03T09:56:04.776Z</time></trkpt><trkpt lat="41.9937838" lon="12.1130442"><ele>36.00000000000001</ele><time>2026-05-03T09:56:05.779Z</time></trkpt><trkpt lat="41.9937236" lon="12.1129872"><ele>36.0</ele><time>2026-05-03T09:56:06.78Z</time></trkpt><trkpt lat="41.993665" lon="12.1129288"><ele>36.0</ele><time>2026-05-03T09:56:07.779Z</time></trkpt><trkpt lat="41.993605" lon="12.1128648"><ele>36.0</ele><time>2026-05-03T09:56:08.778Z</time></trkpt><trkpt lat="41.9935479" lon="12.1128013"><ele>36.0</ele><time>2026-05-03T09:56:09.777Z</time></trkpt><trkpt lat="41.9934901" lon="12.1127397"><ele>36.00000000000001</ele><time>2026-05-03T09:56:10.779Z</time></trkpt><trkpt lat="41.9934345" lon="12.1126767"><ele>36.0</ele><time>2026-05-03T09:56:11.786Z</time></trkpt><trkpt lat="41.9933741" lon="12.1126106"><ele>35.714285714285715</ele><time>2026-05-03T09:56:12.779Z</time></trkpt><trkpt lat="41.9933156" lon="12.1125556"><ele>35.42857142857143</ele><time>2026-05-03T09:56:13.779Z</time></trkpt><trkpt lat="41.993258" lon="12.1124964"><ele>35.14285714285714</ele><time>2026-05-03T09:56:14.783Z</time></trkpt><trkpt lat="41.9932002" lon="12.1124364"><ele>34.85714285714286</ele><time>2026-05-03T09:56:15.777Z</time></trkpt><trkpt lat="41.9931454" lon="12.112378"><ele>34.57142857142857</ele><time>2026-05-03T09:56:16.783Z</time></trkpt><trkpt lat="41.9930845" lon="12.1123175"><ele>34.285714285714285</ele><time>2026-05-03T09:56:17.776Z</time></trkpt><trkpt lat="41.9930256" lon="12.1122556"><ele>34.0</ele><time>2026-05-03T09:56:18.777Z</time></trkpt><trkpt lat="41.9929676" lon="12.1121906"><ele>33.99999999999999</ele><time>2026-05-03T09:56:19.776Z</time></trkpt><trkpt lat="41.9929072" lon="12.1121304"><ele>34.0</ele><time>2026-05-03T09:56:20.781Z</time></trkpt><trkpt lat="41.9928483" lon="12.1120684"><ele>34.0</ele><time>2026-05-03T09:56:21.779Z</time></trkpt><trkpt lat="41.9927908" lon="12.1120092"><ele>34.0</ele><time>2026-05-03T09:56:22.779Z</time></trkpt><trkpt lat="41.9927328" lon="12.111948"><ele>34.0</ele><time>2026-05-03T09:56:23.779Z</time></trkpt><trkpt lat="41.9926728" lon="12.1118869"><ele>33.99999999999999</ele><time>2026-05-03T09:56:24.784Z</time></trkpt><trkpt lat="41.9926168" lon="12.1118214"><ele>34.0</ele><time>2026-05-03T09:56:25.777Z</time></trkpt><trkpt lat="41.992559" lon="12.111758"><ele>34.0</ele><time>2026-05-03T09:56:26.78Z</time></trkpt><trkpt lat="41.9924972" lon="12.1116928"><ele>34.0</ele><time>2026-05-03T09:56:27.779Z</time></trkpt><trkpt lat="41.9924328" lon="12.1116244"><ele>34.0</ele><time>2026-05-03T09:56:28.781Z</time></trkpt><trkpt lat="41.9923683" lon="12.1115567"><ele>34.0</ele><time>2026-05-03T09:56:29.78Z</time></trkpt><trkpt lat="41.9923029" lon="12.1114905"><ele>34.0</ele><time>2026-05-03T09:56:30.784Z</time></trkpt><trkpt lat="41.9922377" lon="12.1114224"><ele>34.0</ele><time>2026-05-03T09:56:31.784Z</time></trkpt><trkpt lat="41.9921724" lon="12.1113485"><ele>34.0</ele><time>2026-05-03T09:56:32.784Z</time></trkpt><trkpt lat="41.9921076" lon="12.1112801"><ele>34.0</ele><time>2026-05-03T09:56:33.78Z</time></trkpt><trkpt lat="41.9920425" lon="12.1112117"><ele>34.0</ele><time>2026-05-03T09:56:34.781Z</time></trkpt><trkpt lat="41.9919801" lon="12.1111417"><ele>34.0</ele><time>2026-05-03T09:56:35.786Z</time></trkpt><trkpt lat="41.9919173" lon="12.1110762"><ele>34.0</ele><time>2026-05-03T09:56:36.779Z</time></trkpt><trkpt lat="41.9918555" lon="12.1110151"><ele>34.0</ele><time>2026-05-03T09:56:37.78Z</time></trkpt><trkpt lat="41.9917943" lon="12.1109506"><ele>34.0</ele><time>2026-05-03T09:56:38.778Z</time></trkpt><trkpt lat="41.9917342" lon="12.1108837"><ele>34.0</ele><time>2026-05-03T09:56:39.777Z</time></trkpt><trkpt lat="41.9916752" lon="12.1108268"><ele>34.0</ele><time>2026-05-03T09:56:40.785Z</time></trkpt><trkpt lat="41.9916117" lon="12.1107686"><ele>34.0</ele><time>2026-05-03T09:56:41.782Z</time></trkpt><trkpt lat="41.9915509" lon="12.1107164"><ele>34.0</ele><time>2026-05-03T09:56:42.778Z</time></trkpt><trkpt lat="41.9914825" lon="12.110657"><ele>34.0</ele><time>2026-05-03T09:56:43.78Z</time></trkpt><trkpt lat="41.9914157" lon="12.1106042"><ele>33.5</ele><time>2026-05-03T09:56:44.782Z</time></trkpt><trkpt lat="41.9913473" lon="12.1105512"><ele>33.0</ele><time>2026-05-03T09:56:45.777Z</time></trkpt><trkpt lat="41.9912787" lon="12.1104985"><ele>32.5</ele><time>2026-05-03T09:56:46.779Z</time></trkpt><trkpt lat="41.9912068" lon="12.110444"><ele>32.0</ele><time>2026-05-03T09:56:47.779Z</time></trkpt><trkpt lat="41.9911323" lon="12.110389"><ele>31.500000000000004</ele><time>2026-05-03T09:56:48.777Z</time></trkpt><trkpt lat="41.9910603" lon="12.1103313"><ele>31.0</ele><time>2026-05-03T09:56:49.779Z</time></trkpt><trkpt lat="41.9909849" lon="12.110274"><ele>31.000000000000004</ele><time>2026-05-03T09:56:50.779Z</time></trkpt><trkpt lat="41.990912" lon="12.1102166"><ele>31.0</ele><time>2026-05-03T09:56:51.779Z</time></trkpt><trkpt lat="41.9908384" lon="12.1101561"><ele>31.0</ele><time>2026-05-03T09:56:52.778Z</time></trkpt><trkpt lat="41.9907672" lon="12.1101003"><ele>31.0</ele><time>2026-05-03T09:56:53.78Z</time></trkpt><trkpt lat="41.9906979" lon="12.1100519"><ele>31.000000000000004</ele><time>2026-05-03T09:56:54.78Z</time></trkpt><trkpt lat="41.9906284" lon="12.1099843"><ele>31.0</ele><time>2026-05-03T09:56:55.779Z</time></trkpt><trkpt lat="41.9905538" lon="12.1099289"><ele>30.833333333333336</ele><time>2026-05-03T09:56:56.78Z</time></trkpt><trkpt lat="41.9904801" lon="12.1098696"><ele>30.666666666666668</ele><time>2026-05-03T09:56:57.778Z</time></trkpt><trkpt lat="41.9904049" lon="12.1098135"><ele>30.5</ele><time>2026-05-03T09:56:58.778Z</time></trkpt><trkpt lat="41.9903307" lon="12.1097612"><ele>30.333333333333336</ele><time>2026-05-03T09:56:59.781Z</time></trkpt><trkpt lat="41.9902567" lon="12.1097101"><ele>30.166666666666668</ele><time>2026-05-03T09:57:00.779Z</time></trkpt><trkpt lat="41.9901854" lon="12.1096561"><ele>30.0</ele><time>2026-05-03T09:57:01.781Z</time></trkpt><trkpt lat="41.9901155" lon="12.1096017"><ele>30.0</ele><time>2026-05-03T09:57:02.777Z</time></trkpt><trkpt lat="41.9900472" lon="12.1095504"><ele>30.0</ele><time>2026-05-03T09:57:03.779Z</time></trkpt><trkpt lat="41.9899782" lon="12.1095024"><ele>30.0</ele><time>2026-05-03T09:57:04.779Z</time></trkpt><trkpt lat="41.9899111" lon="12.1094475"><ele>30.0</ele><time>2026-05-03T09:57:05.778Z</time></trkpt><trkpt lat="41.9898422" lon="12.109397"><ele>30.0</ele><time>2026-05-03T09:57:06.778Z</time></trkpt><trkpt lat="41.9897747" lon="12.1093473"><ele>30.0</ele><time>2026-05-03T09:57:07.779Z</time></trkpt><trkpt lat="41.9897088" lon="12.1093041"><ele>30.0</ele><time>2026-05-03T09:57:08.779Z</time></trkpt><trkpt lat="41.9896501" lon="12.1092511"><ele>30.0</ele><time>2026-05-03T09:57:09.783Z</time></trkpt><trkpt lat="41.9895837" lon="12.109201"><ele>30.0</ele><time>2026-05-03T09:57:10.782Z</time></trkpt><trkpt lat="41.9895212" lon="12.1091506"><ele>30.0</ele><time>2026-05-03T09:57:11.779Z</time></trkpt><trkpt lat="41.9894592" lon="12.1091027"><ele>30.0</ele><time>2026-05-03T09:57:12.779Z</time></trkpt><trkpt lat="41.9893979" lon="12.1090553"><ele>30.0</ele><time>2026-05-03T09:57:13.782Z</time></trkpt><trkpt lat="41.9893321" lon="12.1090053"><ele>30.0</ele><time>2026-05-03T09:57:14.779Z</time></trkpt><trkpt lat="41.9892715" lon="12.1089503"><ele>29.857142857142858</ele><time>2026-05-03T09:57:15.782Z</time></trkpt><trkpt lat="41.9892076" lon="12.1089049"><ele>29.714285714285715</ele><time>2026-05-03T09:57:16.778Z</time></trkpt><trkpt lat="41.9891455" lon="12.1088597"><ele>29.571428571428573</ele><time>2026-05-03T09:57:17.778Z</time></trkpt><trkpt lat="41.9890807" lon="12.108812"><ele>29.42857142857143</ele><time>2026-05-03T09:57:18.776Z</time></trkpt><trkpt lat="41.9890185" lon="12.1087645"><ele>29.285714285714285</ele><time>2026-05-03T09:57:19.785Z</time></trkpt><trkpt lat="41.988956" lon="12.1087172"><ele>29.142857142857146</ele><time>2026-05-03T09:57:20.779Z</time></trkpt><trkpt lat="41.9888918" lon="12.1086642"><ele>29.000000000000004</ele><time>2026-05-03T09:57:21.779Z</time></trkpt><trkpt lat="41.9888295" lon="12.1086062"><ele>29.000000000000004</ele><time>2026-05-03T09:57:22.778Z</time></trkpt><trkpt lat="41.9887702" lon="12.1085539"><ele>29.0</ele><time>2026-05-03T09:57:23.778Z</time></trkpt><trkpt lat="41.9887269" lon="12.1084771"><ele>29.000000000000004</ele><time>2026-05-03T09:57:24.784Z</time></trkpt><trkpt lat="41.9886775" lon="12.1084057"><ele>29.000000000000004</ele><time>2026-05-03T09:57:25.781Z</time></trkpt><trkpt lat="41.9886331" lon="12.1083318"><ele>29.0</ele><time>2026-05-03T09:57:26.779Z</time></trkpt><trkpt lat="41.98859" lon="12.1082494"><ele>29.000000000000004</ele><time>2026-05-03T09:57:27.782Z</time></trkpt><trkpt lat="41.9885533" lon="12.1081676"><ele>29.000000000000004</ele><time>2026-05-03T09:57:28.79Z</time></trkpt><trkpt lat="41.9885201" lon="12.1080857"><ele>29.000000000000004</ele><time>2026-05-03T09:57:29.779Z</time></trkpt><trkpt lat="41.9884912" lon="12.1079993"><ele>29.0</ele><time>2026-05-03T09:57:30.78Z</time></trkpt><trkpt lat="41.9884627" lon="12.1079152"><ele>29.000000000000004</ele><time>2026-05-03T09:57:31.783Z</time></trkpt><trkpt lat="41.9884435" lon="12.1078295"><ele>29.000000000000004</ele><time>2026-05-03T09:57:32.779Z</time></trkpt><trkpt lat="41.988428" lon="12.1077416"><ele>29.0</ele><time>2026-05-03T09:57:33.779Z</time></trkpt><trkpt lat="41.9884172" lon="12.1076508"><ele>29.000000000000004</ele><time>2026-05-03T09:57:34.782Z</time></trkpt><trkpt lat="41.9884073" lon="12.1075634"><ele>29.000000000000004</ele><time>2026-05-03T09:57:35.778Z</time></trkpt><trkpt lat="41.9884034" lon="12.107396"><ele>28.999999999999996</ele><time>2026-05-03T09:57:37.777Z</time></trkpt><trkpt lat="41.9884039" lon="12.1073106"><ele>29.0</ele><time>2026-05-03T09:57:38.779Z</time></trkpt><trkpt lat="41.9884082" lon="12.1072226"><ele>29.0</ele><time>2026-05-03T09:57:39.78Z</time></trkpt><trkpt lat="41.9884187" lon="12.1071386"><ele>29.0</ele><time>2026-05-03T09:57:40.777Z</time></trkpt><trkpt lat="41.988437" lon="12.1069724"><ele>28.999999999999996</ele><time>2026-05-03T09:57:42.778Z</time></trkpt><trkpt lat="41.9884745" lon="12.1068113"><ele>29.0</ele><time>2026-05-03T09:57:44.777Z</time></trkpt><trkpt lat="41.9885078" lon="12.1066464"><ele>29.0</ele><time>2026-05-03T09:57:46.78Z</time></trkpt><trkpt lat="41.9885296" lon="12.1065656"><ele>29.0</ele><time>2026-05-03T09:57:47.782Z</time></trkpt><trkpt lat="41.9885536" lon="12.1064823"><ele>29.0</ele><time>2026-05-03T09:57:48.778Z</time></trkpt><trkpt lat="41.9886108" lon="12.1063415"><ele>29.0</ele><time>2026-05-03T09:57:50.785Z</time></trkpt><trkpt lat="41.9886511" lon="12.1061814"><ele>29.0</ele><time>2026-05-03T09:57:52.778Z</time></trkpt><trkpt lat="41.9886871" lon="12.1060294"><ele>28.999999999999996</ele><time>2026-05-03T09:57:54.778Z</time></trkpt><trkpt lat="41.9887021" lon="12.1059437"><ele>29.0</ele><time>2026-05-03T09:57:55.78Z</time></trkpt><trkpt lat="41.9887184" lon="12.1058614"><ele>29.0</ele><time>2026-05-03T09:57:56.781Z</time></trkpt><trkpt lat="41.9887347" lon="12.1057781"><ele>29.0</ele><time>2026-05-03T09:57:57.779Z</time></trkpt><trkpt lat="41.9887699" lon="12.1056227"><ele>28.999999999999996</ele><time>2026-05-03T09:57:59.782Z</time></trkpt><trkpt lat="41.9888096" lon="12.1054712"><ele>29.0</ele><time>2026-05-03T09:58:01.78Z</time></trkpt><trkpt lat="41.9888406" lon="12.1053093"><ele>29.0</ele><time>2026-05-03T09:58:03.78Z</time></trkpt><trkpt lat="41.9888664" lon="12.1051512"><ele>29.0</ele><time>2026-05-03T09:58:05.781Z</time></trkpt><trkpt lat="41.9888824" lon="12.1049932"><ele>29.0</ele><time>2026-05-03T09:58:07.778Z</time></trkpt><trkpt lat="41.9888999" lon="12.1048513"><ele>29.0</ele><time>2026-05-03T09:58:09.781Z</time></trkpt><trkpt lat="41.9888846" lon="12.1047044"><ele>29.166666666666664</ele><time>2026-05-03T09:58:11.778Z</time></trkpt><trkpt lat="41.9888575" lon="12.1045575"><ele>29.333333333333332</ele><time>2026-05-03T09:58:13.778Z</time></trkpt><trkpt lat="41.9888109" lon="12.1044051"><ele>29.5</ele><time>2026-05-03T09:58:15.781Z</time></trkpt><trkpt lat="41.9887762" lon="12.1043328"><ele>29.666666666666664</ele><time>2026-05-03T09:58:16.784Z</time></trkpt><trkpt lat="41.9887348" lon="12.1042663"><ele>29.833333333333332</ele><time>2026-05-03T09:58:17.784Z</time></trkpt><trkpt lat="41.9886807" lon="12.1042013"><ele>30.0</ele><time>2026-05-03T09:58:18.778Z</time></trkpt><trkpt lat="41.9886288" lon="12.1041363"><ele>30.0</ele><time>2026-05-03T09:58:19.784Z</time></trkpt><trkpt lat="41.9885749" lon="12.1040824"><ele>30.0</ele><time>2026-05-03T09:58:20.784Z</time></trkpt><trkpt lat="41.98852" lon="12.104029"><ele>30.0</ele><time>2026-05-03T09:58:21.779Z</time></trkpt><trkpt lat="41.9884679" lon="12.1039751"><ele>30.0</ele><time>2026-05-03T09:58:22.777Z</time></trkpt><trkpt lat="41.9884139" lon="12.1039267"><ele>30.0</ele><time>2026-05-03T09:58:23.778Z</time></trkpt><trkpt lat="41.9883092" lon="12.1038375"><ele>30.0</ele><time>2026-05-03T09:58:25.785Z</time></trkpt><trkpt lat="41.9882029" lon="12.1037533"><ele>29.25</ele><time>2026-05-03T09:58:27.782Z</time></trkpt><trkpt lat="41.988097" lon="12.103673"><ele>28.5</ele><time>2026-05-03T09:58:29.779Z</time></trkpt><trkpt lat="41.9879964" lon="12.1035914"><ele>27.75</ele><time>2026-05-03T09:58:31.779Z</time></trkpt><trkpt lat="41.9878969" lon="12.1035136"><ele>27.0</ele><time>2026-05-03T09:58:33.778Z</time></trkpt><trkpt lat="41.9878024" lon="12.1034336"><ele>27.0</ele><time>2026-05-03T09:58:35.777Z</time></trkpt><trkpt lat="41.9877161" lon="12.1033441"><ele>27.000000000000004</ele><time>2026-05-03T09:58:37.779Z</time></trkpt><trkpt lat="41.9876284" lon="12.1032542"><ele>27.000000000000004</ele><time>2026-05-03T09:58:39.781Z</time></trkpt><trkpt lat="41.9875514" lon="12.103163"><ele>27.0</ele><time>2026-05-03T09:58:41.786Z</time></trkpt><trkpt lat="41.9874746" lon="12.1030586"><ele>27.0</ele><time>2026-05-03T09:58:43.777Z</time></trkpt><trkpt lat="41.9874039" lon="12.1029502"><ele>27.0</ele><time>2026-05-03T09:58:45.777Z</time></trkpt><trkpt lat="41.9873415" lon="12.1028374"><ele>27.000000000000004</ele><time>2026-05-03T09:58:47.778Z</time></trkpt><trkpt lat="41.9872695" lon="12.1027154"><ele>27.000000000000004</ele><time>2026-05-03T09:58:49.782Z</time></trkpt><trkpt lat="41.987209" lon="12.102604"><ele>27.0</ele><time>2026-05-03T09:58:51.783Z</time></trkpt><trkpt lat="41.9871454" lon="12.1024816"><ele>27.0</ele><time>2026-05-03T09:58:53.777Z</time></trkpt><trkpt lat="41.987087" lon="12.1023606"><ele>27.200000000000003</ele><time>2026-05-03T09:58:55.779Z</time></trkpt><trkpt lat="41.9870245" lon="12.1022452"><ele>27.400000000000002</ele><time>2026-05-03T09:58:57.778Z</time></trkpt><trkpt lat="41.9869664" lon="12.1021251"><ele>27.599999999999998</ele><time>2026-05-03T09:58:59.78Z</time></trkpt><trkpt lat="41.9869123" lon="12.1020021"><ele>27.799999999999997</ele><time>2026-05-03T09:59:01.781Z</time></trkpt><trkpt lat="41.9868625" lon="12.1018729"><ele>28.0</ele><time>2026-05-03T09:59:03.779Z</time></trkpt><trkpt lat="41.9868088" lon="12.1017515"><ele>28.0</ele><time>2026-05-03T09:59:05.779Z</time></trkpt><trkpt lat="41.9867663" lon="12.101622"><ele>27.999999999999996</ele><time>2026-05-03T09:59:07.787Z</time></trkpt><trkpt lat="41.9867203" lon="12.1014957"><ele>27.999999999999996</ele><time>2026-05-03T09:59:09.782Z</time></trkpt><trkpt lat="41.9866793" lon="12.1013712"><ele>28.0</ele><time>2026-05-03T09:59:11.78Z</time></trkpt><trkpt lat="41.9866326" lon="12.1012431"><ele>28.0</ele><time>2026-05-03T09:59:13.783Z</time></trkpt><trkpt lat="41.9865824" lon="12.1011111"><ele>27.599999999999998</ele><time>2026-05-03T09:59:15.783Z</time></trkpt><trkpt lat="41.9865362" lon="12.1009793"><ele>27.199999999999996</ele><time>2026-05-03T09:59:17.781Z</time></trkpt><trkpt lat="41.9864899" lon="12.1008519"><ele>26.8</ele><time>2026-05-03T09:59:19.776Z</time></trkpt><trkpt lat="41.9864432" lon="12.1007209"><ele>26.4</ele><time>2026-05-03T09:59:21.785Z</time></trkpt><trkpt lat="41.9864005" lon="12.1005854"><ele>26.0</ele><time>2026-05-03T09:59:23.78Z</time></trkpt><trkpt lat="41.9863642" lon="12.1004419"><ele>25.8</ele><time>2026-05-03T09:59:25.779Z</time></trkpt><trkpt lat="41.9863312" lon="12.1003013"><ele>25.6</ele><time>2026-05-03T09:59:27.777Z</time></trkpt><trkpt lat="41.9862997" lon="12.1001579"><ele>25.4</ele><time>2026-05-03T09:59:29.778Z</time></trkpt><trkpt lat="41.9862708" lon="12.1000105"><ele>25.2</ele><time>2026-05-03T09:59:31.781Z</time></trkpt><trkpt lat="41.9862457" lon="12.0998607"><ele>25.0</ele><time>2026-05-03T09:59:33.78Z</time></trkpt><trkpt lat="41.9862197" lon="12.0997045"><ele>24.75</ele><time>2026-05-03T09:59:35.779Z</time></trkpt><trkpt lat="41.9861935" lon="12.0995463"><ele>24.5</ele><time>2026-05-03T09:59:37.778Z</time></trkpt><trkpt lat="41.9861745" lon="12.0993935"><ele>24.25</ele><time>2026-05-03T09:59:39.781Z</time></trkpt><trkpt lat="41.98615" lon="12.0992372"><ele>24.0</ele><time>2026-05-03T09:59:41.778Z</time></trkpt><trkpt lat="41.9861293" lon="12.0990884"><ele>24.5</ele><time>2026-05-03T09:59:43.778Z</time></trkpt><trkpt lat="41.9860984" lon="12.0989374"><ele>25.0</ele><time>2026-05-03T09:59:45.778Z</time></trkpt><trkpt lat="41.9860827" lon="12.098788"><ele>25.5</ele><time>2026-05-03T09:59:47.782Z</time></trkpt><trkpt lat="41.9860652" lon="12.0986392"><ele>26.0</ele><time>2026-05-03T09:59:49.781Z</time></trkpt><trkpt lat="41.9860415" lon="12.0984883"><ele>26.0</ele><time>2026-05-03T09:59:51.782Z</time></trkpt><trkpt lat="41.9860212" lon="12.0983455"><ele>26.0</ele><time>2026-05-03T09:59:53.78Z</time></trkpt><trkpt lat="41.9860024" lon="12.0981968"><ele>26.0</ele><time>2026-05-03T09:59:55.78Z</time></trkpt><trkpt lat="41.9859746" lon="12.0980439"><ele>26.0</ele><time>2026-05-03T09:59:57.784Z</time></trkpt><trkpt lat="41.9859511" lon="12.097896"><ele>26.0</ele><time>2026-05-03T09:59:59.784Z</time></trkpt><trkpt lat="41.9859341" lon="12.0977469"><ele>26.0</ele><time>2026-05-03T10:00:01.779Z</time></trkpt><trkpt lat="41.9859128" lon="12.097603"><ele>26.0</ele><time>2026-05-03T10:00:03.787Z</time></trkpt><trkpt lat="41.9858873" lon="12.0974595"><ele>26.0</ele><time>2026-05-03T10:00:05.779Z</time></trkpt><trkpt lat="41.9858684" lon="12.097322"><ele>26.0</ele><time>2026-05-03T10:00:07.776Z</time></trkpt><trkpt lat="41.985847" lon="12.0971836"><ele>25.8</ele><time>2026-05-03T10:00:09.785Z</time></trkpt><trkpt lat="41.9858237" lon="12.0970348"><ele>25.6</ele><time>2026-05-03T10:00:11.78Z</time></trkpt><trkpt lat="41.9858013" lon="12.0968873"><ele>25.4</ele><time>2026-05-03T10:00:13.782Z</time></trkpt><trkpt lat="41.9857788" lon="12.0967445"><ele>25.2</ele><time>2026-05-03T10:00:15.783Z</time></trkpt><trkpt lat="41.985763" lon="12.0966058"><ele>25.0</ele><time>2026-05-03T10:00:17.781Z</time></trkpt><trkpt lat="41.9857415" lon="12.0964693"><ele>25.000000000000004</ele><time>2026-05-03T10:00:19.778Z</time></trkpt><trkpt lat="41.9857485" lon="12.0963445"><ele>25.0</ele><time>2026-05-03T10:00:21.778Z</time></trkpt><trkpt lat="41.9858138" lon="12.0962669"><ele>25.0</ele><time>2026-05-03T10:00:23.778Z</time></trkpt><trkpt lat="41.9858855" lon="12.0961918"><ele>25.0</ele><time>2026-05-03T10:00:25.778Z</time></trkpt><trkpt lat="41.9859183" lon="12.0960753"><ele>25.000000000000004</ele><time>2026-05-03T10:00:27.783Z</time></trkpt><trkpt lat="41.9859369" lon="12.0959658"><ele>25.0</ele><time>2026-05-03T10:00:29.778Z</time></trkpt><trkpt lat="41.9859701" lon="12.0958662"><ele>25.166666666666668</ele><time>2026-05-03T10:00:31.778Z</time></trkpt><trkpt lat="41.985998" lon="12.0957606"><ele>25.333333333333336</ele><time>2026-05-03T10:00:33.779Z</time></trkpt><trkpt lat="41.986035" lon="12.0956498"><ele>25.5</ele><time>2026-05-03T10:00:35.78Z</time></trkpt><trkpt lat="41.9860702" lon="12.095541"><ele>25.666666666666664</ele><time>2026-05-03T10:00:37.78Z</time></trkpt><trkpt lat="41.9861043" lon="12.0954271"><ele>25.833333333333332</ele><time>2026-05-03T10:00:39.784Z</time></trkpt><trkpt lat="41.9861347" lon="12.0953119"><ele>26.0</ele><time>2026-05-03T10:00:41.778Z</time></trkpt><trkpt lat="41.9861684" lon="12.0951985"><ele>26.0</ele><time>2026-05-03T10:00:43.777Z</time></trkpt><trkpt lat="41.9862055" lon="12.0950762"><ele>26.0</ele><time>2026-05-03T10:00:45.778Z</time></trkpt><trkpt lat="41.9862433" lon="12.0949582"><ele>26.0</ele><time>2026-05-03T10:00:47.778Z</time></trkpt><trkpt lat="41.9862745" lon="12.0948394"><ele>26.0</ele><time>2026-05-03T10:00:49.78Z</time></trkpt><trkpt lat="41.9862979" lon="12.0947068"><ele>26.0</ele><time>2026-05-03T10:00:51.78Z</time></trkpt><trkpt lat="41.9863234" lon="12.0945821"><ele>25.8</ele><time>2026-05-03T10:00:53.78Z</time></trkpt><trkpt lat="41.9863593" lon="12.0944653"><ele>25.6</ele><time>2026-05-03T10:00:55.779Z</time></trkpt><trkpt lat="41.986389" lon="12.0943438"><ele>25.4</ele><time>2026-05-03T10:00:57.78Z</time></trkpt><trkpt lat="41.9864277" lon="12.0942269"><ele>25.2</ele><time>2026-05-03T10:00:59.783Z</time></trkpt><trkpt lat="41.9864608" lon="12.0941036"><ele>25.0</ele><time>2026-05-03T10:01:01.783Z</time></trkpt><trkpt lat="41.9864956" lon="12.0939811"><ele>25.0</ele><time>2026-05-03T10:01:03.789Z</time></trkpt><trkpt lat="41.9865266" lon="12.0938522"><ele>25.0</ele><time>2026-05-03T10:01:05.782Z</time></trkpt><trkpt lat="41.9865564" lon="12.0937203"><ele>25.0</ele><time>2026-05-03T10:01:07.777Z</time></trkpt><trkpt lat="41.9865922" lon="12.0935945"><ele>25.0</ele><time>2026-05-03T10:01:09.778Z</time></trkpt><trkpt lat="41.9866243" lon="12.0934584"><ele>25.0</ele><time>2026-05-03T10:01:11.782Z</time></trkpt><trkpt lat="41.9866562" lon="12.0933223"><ele>25.0</ele><time>2026-05-03T10:01:13.778Z</time></trkpt><trkpt lat="41.9866884" lon="12.0931905"><ele>25.0</ele><time>2026-05-03T10:01:15.779Z</time></trkpt><trkpt lat="41.9867164" lon="12.0930588"><ele>25.0</ele><time>2026-05-03T10:01:17.78Z</time></trkpt><trkpt lat="41.9867492" lon="12.0929142"><ele>25.0</ele><time>2026-05-03T10:01:19.78Z</time></trkpt><trkpt lat="41.9867886" lon="12.0927606"><ele>25.0</ele><time>2026-05-03T10:01:21.783Z</time></trkpt><trkpt lat="41.9868288" lon="12.0926148"><ele>25.0</ele><time>2026-05-03T10:01:23.778Z</time></trkpt><trkpt lat="41.9868898" lon="12.0924826"><ele>25.0</ele><time>2026-05-03T10:01:25.782Z</time></trkpt><trkpt lat="41.9869842" lon="12.0924235"><ele>25.0</ele><time>2026-05-03T10:01:27.781Z</time></trkpt><trkpt lat="41.9870815" lon="12.0924334"><ele>25.0</ele><time>2026-05-03T10:01:29.78Z</time></trkpt><trkpt lat="41.9871701" lon="12.0924682"><ele>25.0</ele><time>2026-05-03T10:01:31.782Z</time></trkpt><trkpt lat="41.9872563" lon="12.0925141"><ele>25.0</ele><time>2026-05-03T10:01:33.779Z</time></trkpt><trkpt lat="41.987341" lon="12.0925339"><ele>25.0</ele><time>2026-05-03T10:01:35.778Z</time></trkpt><trkpt lat="41.9874288" lon="12.0925017"><ele>25.0</ele><time>2026-05-03T10:01:37.779Z</time></trkpt><trkpt lat="41.9875022" lon="12.0924248"><ele>25.0</ele><time>2026-05-03T10:01:39.779Z</time></trkpt><trkpt lat="41.9875714" lon="12.0923278"><ele>25.0</ele><time>2026-05-03T10:01:41.78Z</time></trkpt><trkpt lat="41.9876473" lon="12.0922316"><ele>25.4</ele><time>2026-05-03T10:01:43.781Z</time></trkpt><trkpt lat="41.9877285" lon="12.0921347"><ele>25.8</ele><time>2026-05-03T10:01:45.78Z</time></trkpt><trkpt lat="41.9877965" lon="12.0920372"><ele>26.200000000000003</ele><time>2026-05-03T10:01:47.783Z</time></trkpt><trkpt lat="41.9878768" lon="12.0919433"><ele>26.6</ele><time>2026-05-03T10:01:49.784Z</time></trkpt><trkpt lat="41.9879489" lon="12.0918434"><ele>27.0</ele><time>2026-05-03T10:01:51.784Z</time></trkpt><trkpt lat="41.9880047" lon="12.0917355"><ele>27.0</ele><time>2026-05-03T10:01:53.788Z</time></trkpt><trkpt lat="41.9880429" lon="12.0916158"><ele>27.000000000000004</ele><time>2026-05-03T10:01:55.78Z</time></trkpt><trkpt lat="41.9880742" lon="12.0915004"><ele>27.000000000000004</ele><time>2026-05-03T10:01:57.778Z</time></trkpt><trkpt lat="41.9881087" lon="12.0913846"><ele>27.0</ele><time>2026-05-03T10:01:59.784Z</time></trkpt><trkpt lat="41.9881411" lon="12.0912753"><ele>27.0</ele><time>2026-05-03T10:02:01.785Z</time></trkpt><trkpt lat="41.9881719" lon="12.0911646"><ele>27.428571428571427</ele><time>2026-05-03T10:02:03.779Z</time></trkpt><trkpt lat="41.9882003" lon="12.09107"><ele>27.857142857142854</ele><time>2026-05-03T10:02:05.784Z</time></trkpt><trkpt lat="41.9882306" lon="12.0909833"><ele>28.285714285714285</ele><time>2026-05-03T10:02:07.779Z</time></trkpt><trkpt lat="41.9882572" lon="12.0908995"><ele>28.714285714285715</ele><time>2026-05-03T10:02:09.778Z</time></trkpt><trkpt lat="41.9882805" lon="12.0908158"><ele>29.142857142857142</ele><time>2026-05-03T10:02:11.783Z</time></trkpt><trkpt lat="41.9882916" lon="12.0907139"><ele>29.571428571428573</ele><time>2026-05-03T10:02:13.784Z</time></trkpt><trkpt lat="41.9883186" lon="12.0906252"><ele>30.0</ele><time>2026-05-03T10:02:15.779Z</time></trkpt><trkpt lat="41.9883438" lon="12.0905265"><ele>30.5</ele><time>2026-05-03T10:02:17.78Z</time></trkpt><trkpt lat="41.9883761" lon="12.090438"><ele>31.0</ele><time>2026-05-03T10:02:19.78Z</time></trkpt><trkpt lat="41.9884126" lon="12.0903477"><ele>31.5</ele><time>2026-05-03T10:02:21.78Z</time></trkpt><trkpt lat="41.9884475" lon="12.0902554"><ele>32.0</ele><time>2026-05-03T10:02:23.782Z</time></trkpt><trkpt lat="41.9884766" lon="12.0901514"><ele>32.5</ele><time>2026-05-03T10:02:25.782Z</time></trkpt><trkpt lat="41.9885129" lon="12.0900448"><ele>33.0</ele><time>2026-05-03T10:02:27.785Z</time></trkpt><trkpt lat="41.988542" lon="12.0899357"><ele>33.666666666666664</ele><time>2026-05-03T10:02:29.784Z</time></trkpt><trkpt lat="41.9885743" lon="12.0898296"><ele>34.333333333333336</ele><time>2026-05-03T10:02:31.78Z</time></trkpt><trkpt lat="41.9886067" lon="12.0897273"><ele>35.0</ele><time>2026-05-03T10:02:33.781Z</time></trkpt><trkpt lat="41.9886383" lon="12.089623"><ele>35.66666666666667</ele><time>2026-05-03T10:02:35.782Z</time></trkpt><trkpt lat="41.9886637" lon="12.0895204"><ele>36.333333333333336</ele><time>2026-05-03T10:02:37.782Z</time></trkpt><trkpt lat="41.9886905" lon="12.0894122"><ele>37.0</ele><time>2026-05-03T10:02:39.782Z</time></trkpt><trkpt lat="41.9887258" lon="12.0893041"><ele>37.0</ele><time>2026-05-03T10:02:41.784Z</time></trkpt><trkpt lat="41.9887602" lon="12.0891988"><ele>37.0</ele><time>2026-05-03T10:02:43.782Z</time></trkpt><trkpt lat="41.9887933" lon="12.0890868"><ele>37.0</ele><time>2026-05-03T10:02:45.782Z</time></trkpt><trkpt lat="41.9888246" lon="12.0889714"><ele>37.0</ele><time>2026-05-03T10:02:47.782Z</time></trkpt><trkpt lat="41.9888533" lon="12.088856"><ele>37.0</ele><time>2026-05-03T10:02:49.786Z</time></trkpt><trkpt lat="41.9888815" lon="12.0887384"><ele>37.0</ele><time>2026-05-03T10:02:51.787Z</time></trkpt><trkpt lat="41.9889097" lon="12.0886143"><ele>36.6</ele><time>2026-05-03T10:02:53.783Z</time></trkpt><trkpt lat="41.9889443" lon="12.0884878"><ele>36.2</ele><time>2026-05-03T10:02:55.788Z</time></trkpt><trkpt lat="41.988979" lon="12.0883722"><ele>35.8</ele><time>2026-05-03T10:02:57.78Z</time></trkpt><trkpt lat="41.9890096" lon="12.088244"><ele>35.4</ele><time>2026-05-03T10:02:59.791Z</time></trkpt><trkpt lat="41.9890395" lon="12.0881157"><ele>35.0</ele><time>2026-05-03T10:03:01.782Z</time></trkpt><trkpt lat="41.9890857" lon="12.0879953"><ele>35.0</ele><time>2026-05-03T10:03:03.777Z</time></trkpt><trkpt lat="41.9891283" lon="12.087889"><ele>35.0</ele><time>2026-05-03T10:03:05.777Z</time></trkpt><trkpt lat="41.9891627" lon="12.0877801"><ele>35.0</ele><time>2026-05-03T10:03:07.779Z</time></trkpt><trkpt lat="41.9892255" lon="12.0877019"><ele>35.0</ele><time>2026-05-03T10:03:10.78Z</time></trkpt><trkpt lat="41.9893236" lon="12.0877667"><ele>35.0</ele><time>2026-05-03T10:03:13.797Z</time></trkpt><trkpt lat="41.9893958" lon="12.0878127"><ele>35.0</ele><time>2026-05-03T10:03:15.782Z</time></trkpt><trkpt lat="41.9894697" lon="12.0878699"><ele>35.0</ele><time>2026-05-03T10:03:17.785Z</time></trkpt><trkpt lat="41.9895421" lon="12.0879313"><ele>35.0</ele><time>2026-05-03T10:03:19.782Z</time></trkpt><trkpt lat="41.9896155" lon="12.087996"><ele>35.0</ele><time>2026-05-03T10:03:21.781Z</time></trkpt><trkpt lat="41.9896893" lon="12.0880549"><ele>35.0</ele><time>2026-05-03T10:03:23.793Z</time></trkpt><trkpt lat="41.9897622" lon="12.0881176"><ele>35.0</ele><time>2026-05-03T10:03:25.78Z</time></trkpt><trkpt lat="41.9898302" lon="12.0881928"><ele>35.0</ele><time>2026-05-03T10:03:27.783Z</time></trkpt><trkpt lat="41.9898985" lon="12.0882658"><ele>36.0</ele><time>2026-05-03T10:03:29.784Z</time></trkpt><trkpt lat="41.9899578" lon="12.0883416"><ele>36.0</ele><time>2026-05-03T10:03:31.786Z</time></trkpt><trkpt lat="41.9900148" lon="12.0884103"><ele>36.0</ele><time>2026-05-03T10:03:33.785Z</time></trkpt><trkpt lat="41.9900842" lon="12.0884728"><ele>36.0</ele><time>2026-05-03T10:03:36.783Z</time></trkpt></trkseg></trk></gpx>